[[{"header":{"parameterUnit":"m.s-1","parameterCategory":1,"la1":30.6,"la2":28.766,"lo1":-90.7593,"lo2":-88.6598,"dy":0.0162,"dx":0.0183,"nx":116,"ny":114,"refTime":"2024-05-10T06:00:00:Z","depth":0,"parameterNumber":2,"parameterNumberName":"U-component_of_WINDS"},"data":[0.0,0.0,0.0,0.0,0.0,0.0,0.0,0.0,0.0,0.0,0.0,0.0,0.0,0.0,0.0,0.0,0.0,0.0,0.0,0.0,0.0,0.0,0.0,0.0,0.0,0.0,0.0,0.0,0.0,0.0,0.0,0.0,0.0,0.0,0.0,0.0,0.0,0.0,0.0,0.0,0.0,0.0,0.0,0.0,0.0,0.0,0.0,0.0,0.0,0.0,0.0,0.0,0.0,0.0,0.0,0.0,0.0,0.0,0.0,0.0,0.0,0.0,0.0,0.0,0.0,0.0,0.0,0.0,0.0,0.0,0.0,0.0,0.0,0.0,0.0,0.0,0.0,0.0,0.0,0.0,0.0,0.0,0.0,0.0,0.0,0.0,0.0,0.0,0.0,0.0,0.0,0.0,0.0,0.0,0.0,0.0,0.0,0.0,0.0,0.0,0.0,0.0,0.0,0.0,0.0,0.0,0.0,0.0,0.0,0.0,0.0,0.0,0.0,0.0,0.0,0.0,0.0,0.0,0.0,0.0,0.0,0.0,0.0,0.0,0.0,0.0,0.0,0.0,0.0,0.0,0.0,0.0,0.0,0.0,0.0,0.0,0.0,0.0,0.0,0.0,0.0,0.0,0.0,0.0,0.0,0.0,0.0,0.0,0.0,0.0,0.0,0.0,0.0,0.0,0.0,0.0,0.0,0.0,0.0,0.0,0.0,0.0,0.0,0.0,0.0,0.0,0.0,0.0,0.0,0.0,0.0,0.0,0.0,0.0,0.0,0.0,0.0,0.0,0.0,0.0,0.0,0.0,0.0,0.0,0.0,0.0,0.0,0.0,0.0,0.0,0.0,0.0,0.0,0.0,0.0,0.0,0.0,0.0,0.0,0.0,0.0,0.0,0.0,0.0,0.0,0.0,0.0,0.0,0.0,0.0,0.0,0.0,0.0,0.0,0.0,0.0,0.0,0.0,0.0,0.0,0.0,0.0,0.0,0.0,0.0,0.0,0.0,0.0,0.0,0.0,0.0,0.0,0.0,0.0,0.0,0.0,0.0,0.0,0.0,0.0,0.0,0.0,0.0,0.0,0.0,0.0,0.0,0.0,0.0,0.0,0.0,0.0,0.0,0.0,0.0,0.0,0.0,0.0,0.0,0.0,0.0,0.0,0.0,0.0,0.0,0.0,0.0,0.0,0.0,0.0,0.0,0.0,0.0,0.0,0.0,0.0,0.0,0.0,0.0,0.0,0.0,0.0,0.0,0.0,0.0,0.0,0.0,0.0,0.0,0.0,0.0,0.0,0.0,0.0,0.0,0.0,0.0,0.0,0.0,0.0,0.0,0.0,0.0,0.0,0.0,0.0,0.0,0.0,0.0,0.0,0.0,0.0,0.0,0.0,0.0,0.0,0.0,0.0,0.0,0.0,0.0,0.0,0.0,0.0,0.0,0.0,0.0,0.0,0.0,0.0,0.0,0.0,0.0,0.0,0.0,0.0,0.0,0.0,0.0,0.0,0.0,0.0,0.0,0.0,0.0,0.0,0.0,0.0,0.0,0.0,0.0,0.0,0.0,0.0,0.0,0.0,0.0,0.0,0.0,0.0,0.0,0.0,0.0,0.0,0.0,0.0,0.0,0.0,0.0,0.0,0.0,0.0,0.0,0.0,0.0,0.0,0.0,0.0,0.0,0.0,0.0,0.0,0.0,0.0,0.0,0.0,0.0,0.0,0.0,0.0,0.0,0.0,0.0,0.0,0.0,0.0,0.0,0.0,0.0,0.0,0.0,0.0,0.0,0.0,0.0,0.0,0.0,0.0,0.0,0.0,0.0,0.0,0.0,0.0,0.0,0.0,0.0,0.0,0.0,0.0,0.0,0.0,0.0,0.0,0.0,0.0,0.0,0.0,0.0,0.0,0.0,0.0,0.0,0.0,0.0,0.0,0.0,0.0,0.0,0.0,0.0,0.0,0.0,0.0,0.0,0.0,0.0,0.0,0.0,0.0,0.0,0.0,0.0,0.0,0.0,0.0,0.0,0.0,0.0,0.0,0.0,0.0,0.0,0.0,0.0,0.0,0.0,0.0,0.0,0.0,0.0,0.0,0.0,0.0,0.0,0.0,0.0,0.0,0.0,0.0,0.0,0.0,0.0,0.0,0.0,0.0,0.0,0.0,0.0,0.0,0.0,0.0,0.0,0.0,0.0,0.0,0.0,0.0,0.0,0.0,0.0,0.0,0.0,0.0,0.0,0.0,0.0,0.0,0.0,0.0,0.0,0.0,0.0,0.0,0.0,0.0,0.0,0.0,0.0,0.0,0.0,0.0,0.0,0.0,0.0,0.0,0.0,0.0,0.0,0.0,0.0,0.0,0.0,0.0,0.0,0.0,0.0,0.0,0.0,0.0,0.0,0.0,0.0,0.0,0.0,0.0,0.0,0.0,0.0,0.0,0.0,0.0,0.0,0.0,0.0,0.0,0.0,0.0,0.0,0.0,0.0,0.0,0.0,0.0,0.0,0.0,0.0,0.0,0.0,0.0,0.0,0.0,0.0,0.0,0.0,0.0,0.0,0.0,0.0,0.0,0.0,0.0,0.0,0.0,0.0,0.0,0.0,0.0,0.0,0.0,0.0,0.0,0.0,0.0,0.0,0.0,0.0,0.0,0.0,0.0,0.0,0.0,0.0,0.0,0.0,0.0,0.0,0.0,0.0,0.0,0.0,0.0,0.0,0.0,0.0,0.0,0.0,0.0,0.0,0.0,0.0,0.0,0.0,0.0,0.0,0.0,0.0,0.0,0.0,0.0,0.0,0.0,0.0,0.0,0.0,0.0,0.0,0.0,0.0,0.0,0.0,0.0,0.0,0.0,0.0,0.0,0.0,0.0,0.0,0.0,0.0,0.0,0.0,0.0,0.0,0.0,0.0,0.0,0.0,0.0,0.0,0.0,0.0,0.0,0.0,0.0,0.0,0.0,0.0,0.0,0.0,0.0,0.0,0.0,0.0,0.0,0.0,0.0,0.0,0.0,0.0,0.0,0.0,0.0,0.0,0.0,0.0,0.0,0.0,0.0,0.0,0.0,0.0,0.0,0.0,0.0,0.0,0.0,0.0,0.0,0.0,0.0,0.0,0.0,0.0,0.0,0.0,0.0,0.0,0.0,0.0,0.0,0.0,0.0,0.0,0.0,0.0,0.0,0.0,0.0,0.0,0.0,0.0,0.0,0.0,0.0,0.0,0.0,0.0,0.0,0.0,0.0,0.0,0.0,0.0,0.0,0.0,0.0,0.0,0.0,0.0,0.0,0.0,0.0,0.0,0.0,0.0,0.0,0.0,0.0,0.0,0.0,0.0,0.0,0.0,0.0,0.0,0.0,0.0,0.0,0.0,0.0,0.0,0.0,0.0,0.0,0.0,0.0,0.0,0.0,0.0,0.0,0.0,0.0,0.0,0.0,0.0,0.0,0.0,0.0,0.0,0.0,0.0,0.0,0.0,0.0,0.0,0.0,0.0,0.0,0.0,0.0,0.0,0.0,0.0,0.0,0.0,0.0,0.0,0.0,0.0,0.0,0.0,0.0,0.0,0.0,0.0,0.0,0.0,0.0,0.0,0.0,0.0,0.0,0.0,0.0,0.0,0.0,0.0,0.0,0.0,0.0,0.0,0.0,0.0,0.0,0.0,0.0,0.0,0.0,0.0,0.0,0.0,0.0,0.0,0.0,0.0,0.0,0.0,0.0,0.0,0.0,0.0,0.0,0.0,0.0,0.0,0.0,0.0,0.0,0.0,0.0,0.0,0.0,0.0,0.0,0.0,0.0,0.0,0.0,0.0,0.0,0.0,0.0,0.0,0.0,0.0,0.0,0.0,0.0,0.0,0.0,0.0,0.0,0.0,0.0,0.0,0.0,0.0,0.0,0.0,0.0,0.0,0.0,0.0,0.0,0.0,0.0,0.0,0.0,0.0,0.0,0.0,0.0,0.0,0.0,0.0,0.0,0.0,0.0,0.0,0.0,0.0,0.0,0.0,0.0,0.0,0.0,0.0,0.0,0.0,0.0,0.0,0.0,0.0,0.0,0.0,0.0,0.0,0.0,0.0,0.0,0.0,0.0,0.0,0.0,0.0,0.0,0.0,0.0,0.0,0.0,0.0,0.0,0.0,0.0,0.0,0.0,0.0,0.0,0.0,0.0,0.0,0.0,0.0,0.0,0.0,0.0,0.0,0.0,0.0,0.0,0.0,0.0,0.0,0.0,0.0,0.0,0.0,0.0,0.0,0.0,0.0,0.0,0.0,0.0,0.0,0.0,0.0,0.0,0.0,0.0,0.0,0.0,0.0,0.0,0.0,0.0,0.0,0.0,0.0,0.0,0.0,0.0,0.0,0.0,0.0,0.0,0.0,0.0,0.0,0.0,0.0,0.0,0.0,0.0,0.0,0.0,0.0,0.0,0.0,0.0,0.0,0.0,0.0,0.0,0.0,0.0,0.0,0.0,0.0,0.0,0.0,0.0,0.0,0.0,0.0,0.0,0.0,0.0,0.0,0.0,0.0,0.0,0.0,0.0,0.0,0.0,0.0,0.0,0.0,0.0,0.0,0.0,0.0,0.0,0.0,0.0,0.0,0.0,0.0,0.0,0.0,0.0,0.0,0.0,0.0,0.0,0.0,0.0,0.0,0.0,0.0,0.0,0.0,0.0,0.0,0.0,0.0,0.0,0.0,0.0,0.0,0.0,0.0,0.0,0.0,0.0,0.0,0.0,0.0,0.0,0.0,0.0,0.0,0.0,0.0,0.0,0.0,0.0,0.0,0.0,0.0,0.0,0.0,0.0,0.0,0.0,0.0,0.0,0.0,0.0,0.0,0.0,0.0,0.0,0.0,0.0,0.0,0.0,0.0,0.0,0.0,0.0,0.0,0.0,0.0,0.0,0.0,0.0,0.0,0.0,0.0,0.0,0.0,0.0,0.0,0.0,0.0,0.0,0.0,0.0,0.0,0.0,0.0,0.0,0.0,0.0,0.0,0.0,0.0,0.0,0.0,0.0,0.0,0.0,0.0,0.0,0.0,0.0,0.0,0.0,0.0,0.0,0.0,0.0,0.0,0.0,0.0,0.0,0.0,0.0,0.0,0.0,0.0,0.0,0.0,0.0,0.0,0.0,0.0,0.0,0.0,0.0,0.0,0.0,0.0,0.0,0.0,0.0,0.0,0.0,0.0,0.0,0.0,0.0,0.0,0.0,0.0,0.0,0.0,0.0,0.0,0.0,0.0,0.0,0.0,0.0,0.0,0.0,0.0,0.0,0.0,0.0,0.0,0.0,0.0,0.0,0.0,0.0,0.0,0.0,0.0,0.0,0.0,0.0,0.0,0.0,0.0,0.0,0.0,0.0,0.0,0.0,0.0,0.0,0.0,0.0,0.0,0.0,0.0,0.0,0.0,0.0,0.0,0.0,0.0,0.0,0.0,0.0,0.0,0.0,0.0,0.0,0.0,0.0,0.0,0.0,0.0,0.0,0.0,0.0,0.0,0.0,0.0,0.0,0.0,0.0,0.0,0.0,0.0,0.0,0.0,0.0,0.0,0.0,0.0,0.0,0.0,0.0,0.0,0.0,0.0,0.0,0.0,0.0,0.0,0.0,0.0,0.0,0.0,0.0,0.0,0.0,0.0,0.0,0.0,0.0,0.0,0.0,0.0,0.0,0.0,0.0,0.0,0.0,0.0,0.0,0.0,0.0,0.0,0.0,0.0,0.0,0.0,0.0,0.0,0.0,0.0,0.0,0.0,0.0,0.0,0.0,0.0,0.0,0.0,0.0,0.0,0.0,0.0,0.0,0.0,0.0,0.0,0.0,0.0,0.0,0.0,0.0,0.0,0.0,0.0,0.0,0.0,0.0,0.0,0.0,0.0,0.0,0.0,0.0,0.0,0.0,0.0,0.0,0.0,0.0,0.0,0.0,0.0,0.0,0.0,0.0,0.0,0.0,0.0,0.0,0.0,0.0,0.0,0.0,0.0,0.0,0.0,0.0,0.0,0.0,0.0,0.0,0.0,0.0,0.0,0.0,0.0,0.0,0.0,0.0,0.0,0.0,0.0,0.0,0.0,0.0,0.0,0.0,0.0,0.0,0.0,0.0,-4.3587,-4.427,0.0,0.0,0.0,0.0,0.0,0.0,0.0,0.0,0.0,0.0,0.0,0.0,0.0,0.0,0.0,0.0,0.0,0.0,0.0,0.0,0.0,0.0,0.0,0.0505,0.0606,-0.0,-0.0,-0.0,-0.0,0.0,0.0,0.0,0.0,0.0,-0.645,-0.6545,-0.7033,-0.7925,-0.8127,-0.9209,-1.1072,-1.1072,-1.1365,-1.195,0.0,0.0,0.0,0.0,0.0,0.0,0.0,0.0,0.0,0.0,0.0,0.0,0.0,0.0,0.0,0.0,0.0,0.0,0.0,0.0,0.0,0.0,0.0,0.0,0.0,0.0,0.0,0.0,0.0,0.0,0.0,0.0,0.0,0.0,0.0,0.0,0.0,0.0,0.0,0.0,0.0,0.0,0.0,0.0,0.0,0.0,0.0,0.0,0.0,0.0,0.0,0.0,0.0,0.0,0.0,0.0,0.0,0.0,0.0,0.0,0.0,0.0,0.0,0.0,0.0,0.0,0.0,0.0,0.0,0.0,-4.4414,-4.4789,0.0,0.0,0.0,0.0,0.0,0.0,0.0,0.0,0.0,0.0,0.0,0.0,0.0,0.0,0.0,0.0,0.0,0.0,0.0,0.0,0.0,0.1313,0.0404,0.1111,0.1212,0.0404,-0.0202,-0.0706,-0.1108,-0.444,0.0,0.0,-0.6445,-0.6437,-0.6437,-0.6639,-0.7431,-0.8806,-0.9501,-1.0779,-1.2732,-1.2969,-1.3088,-1.3088,-1.3925,0.0,0.0,0.0,0.0,0.0,0.0,0.0,0.0,0.0,0.0,0.0,0.0,0.0,0.0,0.0,0.0,0.0,0.0,0.0,0.0,0.0,0.0,0.0,0.0,0.0,0.0,0.0,0.0,0.0,0.0,0.0,0.0,0.0,0.0,0.0,0.0,0.0,0.0,0.0,0.0,0.0,0.0,0.0,0.0,0.0,0.0,0.0,0.0,0.0,0.0,0.0,0.0,0.0,0.0,0.0,0.0,0.0,0.0,0.0,0.0,0.0,0.0,0.0,-3.7934,-3.8799,-3.9708,-4.1341,-4.2328,-4.2986,-4.5024,-4.5024,-4.3596,-4.4733,0.0,0.0,0.0,0.0,0.0,0.0,0.0,0.0,0.0,0.0,0.0,0.0,0.0,0.0,0.0,0.0,0.0,0.0,0.0,0.1516,0.1415,0.1516,0.1515,0.1412,-0.121,-0.3531,-0.5448,-0.606,-0.6358,-0.6439,-0.6437,-0.6437,-0.6437,-0.6437,-0.7229,-0.8806,-1.1063,-1.2436,-1.2732,-1.3849,-1.4457,-1.4451,-1.4304,-1.4298,-1.4298,0.0,0.0,0.0,0.0,0.0,0.0,0.0,0.0,0.0,0.0,0.0,0.0,0.0,0.0,0.0,0.0,0.0,0.0,0.0,0.0,0.0,0.0,0.0,0.0,0.0,0.0,0.0,0.0,0.0,0.0,0.0,0.0,0.0,0.0,0.0,0.0,0.0,0.0,0.0,0.0,0.0,-2.9994,-2.9994,0.0,0.0,0.0,0.0,0.0,0.0,0.0,0.0,0.0,0.0,0.0,0.0,0.0,-3.6358,-3.6358,-3.7134,-3.747,-3.7483,-3.9033,-3.976,-3.9685,-4.1788,-4.2154,-4.134,-4.361,0.0,-4.4107,-4.3409,0.0,0.0,0.0,0.0,0.0,0.0,0.0,0.0,0.0,0.0,0.0,0.0,0.0,0.0,0.0,0.0,0.0,0.0,0.0,0.0,0.0,0.1111,0.0606,0.0303,-0.1715,-0.3935,-0.6261,-0.6364,-0.6356,-0.6437,-0.6437,-0.6437,-0.6437,-0.7129,-0.8609,-1.0769,-1.263,-1.3613,-1.3613,-1.4225,-1.4479,-1.4479,-1.4827,-1.4849,-1.4751,-1.5239,0.0,0.0,0.0,0.0,0.0,0.0,0.0,0.0,0.0,0.0,0.0,0.0,0.0,0.0,0.0,0.0,0.0,0.0,0.0,0.0,0.0,0.0,0.0,0.0,0.0,0.0,0.0,0.0,0.0,0.0,0.0,0.0,0.0,0.0,0.0,0.0,0.0,0.0,0.0,-2.9995,-2.9994,-2.9994,-2.9994,-3.0819,0.0,0.0,0.0,0.0,0.0,0.0,0.0,0.0,0.0,-3.6358,-3.6659,-3.6822,-3.6822,-3.7472,-3.7846,-3.7859,-3.909,-3.9599,-3.9471,-4.092,-4.1209,-4.0694,-4.194,-4.2404,-4.2404,-4.2695,-4.3081,-4.3259,0.0,0.0,0.0,0.0,-4.2043,-4.2618,0.0,0.0,0.0,0.0,0.0,0.0,0.0,0.0,0.0,0.0,0.0,0.0,0.1212,0.0505,-0.0303,-0.0908,-0.2017,-0.3731,-0.5952,-0.6155,-0.625,-0.6437,-0.6437,-0.6437,-0.6437,-0.8014,-0.9985,-1.2145,-1.3607,-1.4298,-1.4298,-1.437,-1.4497,-1.4684,-1.5332,-1.5464,-1.54,-1.6188,-1.6627,-1.678,0.0,0.0,0.0,0.0,0.0,0.0,0.0,0.0,0.0,0.0,0.0,0.0,0.0,0.0,0.0,0.0,0.0,0.0,0.0,0.0,0.0,0.0,0.0,0.0,0.0,0.0,0.0,0.0,0.0,0.0,0.0,0.0,0.0,0.0,0.0,0.0,0.0,-2.9995,-2.9994,-2.9994,-2.9994,-3.0787,0.0,0.0,0.0,0.0,0.0,0.0,-3.6571,-3.6571,-3.6634,-3.6784,-3.7186,-3.74,-3.74,-3.7952,-3.8228,-3.8228,-3.902,-3.9399,-3.9411,-4.0109,-4.0402,-4.0402,-4.0782,-4.0883,-4.0984,-4.2039,-4.2431,-4.2333,-4.1597,-4.1311,-4.1311,-4.1311,-4.1677,-4.2252,0.0,0.0,0.0,0.0,0.0,0.0,0.0,0.0,0.0,0.0,0.0,0.1212,0.0202,-0.0,-0.0404,-0.151,-0.2316,-0.3524,-0.5331,-0.5536,-0.5837,-0.6337,-0.6437,-0.6437,-0.6437,-0.8996,-1.0765,-1.1658,-1.342,-1.4298,-1.4304,-1.457,-1.5072,-1.5752,-1.6017,-1.611,-1.5999,-1.6759,-1.7211,-1.7584,-1.7563,0.0,0.0,0.0,0.0,0.0,0.0,0.0,0.0,0.0,0.0,0.0,0.0,0.0,0.0,0.0,0.0,0.0,0.0,0.0,0.0,0.0,0.0,0.0,0.0,0.0,0.0,0.0,0.0,0.0,0.0,0.0,0.0,0.0,0.0,0.0,0.0,0.0,0.0,-2.9994,-2.9994,0.0,0.0,0.0,0.0,-3.6156,-3.6358,-3.6584,-3.7111,-3.7149,-3.7374,-3.7902,-3.7952,-3.7965,-3.7965,-3.853,-3.8831,-3.8831,-3.9396,-3.9647,-3.9659,-3.9968,-4.007,-4.0173,-4.0681,-4.0883,-4.0883,-4.1198,-4.1411,-4.1411,-4.1311,-4.1311,-4.1311,-4.1311,-4.1677,-4.2252,0.0,0.0,0.0,0.0,0.0,0.1617,0.1617,0.1617,0.1617,0.1617,0.1111,0.0707,0.0303,-0.0707,-0.1412,-0.1814,-0.2621,-0.3429,-0.4433,-0.4834,-0.5334,-0.5837,-0.6234,-0.703,-0.8418,-0.9891,-1.1365,-1.2845,-1.3437,-1.3919,-1.4298,-1.4877,-1.5306,-1.5588,-1.6642,-1.7227,-1.743,-1.7923,-1.8291,-1.8569,-1.8958,-1.9398,0.0,0.0,0.0,0.0,0.0,0.0,0.0,0.0,0.0,0.0,0.0,0.0,0.0,0.0,0.0,0.0,0.0,0.0,0.0,0.0,0.0,0.0,0.0,0.0,0.0,0.0,0.0,0.0,0.0,0.0,0.0,0.0,0.0,0.0,0.0,0.0,0.0,-2.9973,-2.9994,0.0,-3.3001,-3.3499,-3.4587,-3.6789,-3.7211,-3.75,-3.7701,-3.7713,-3.7801,-3.8002,-3.8366,-3.8567,-3.8567,-3.912,-3.9396,-3.9408,-3.9597,-3.9697,-3.9697,-3.9788,-3.989,-3.989,-4.0185,-4.0377,-4.0377,-4.0896,-4.1097,-4.1311,-4.1311,-4.1311,-4.1311,-4.1311,-4.1442,-4.1703,0.0,0.0,0.0,0.1818,0.1617,0.1617,0.1617,0.1617,0.1516,0.1212,0.0707,0.0202,-0.0303,-0.1312,-0.2118,-0.2422,-0.2927,-0.343,-0.3932,-0.4334,-0.4834,-0.5534,-0.6334,-0.7726,-0.971,-1.0391,-1.157,-1.3249,-1.3443,-1.3727,-1.4298,-1.4771,-1.5343,-1.5818,-1.685,-1.7725,-1.8422,-1.854,-1.8889,-1.9384,-1.976,-1.9878,-2.0053,0.0,0.0,0.0,0.0,0.0,0.0,0.0,0.0,0.0,0.0,0.0,0.0,0.0,0.0,0.0,0.0,0.0,0.0,0.0,0.0,0.0,0.0,0.0,0.0,0.0,0.0,0.0,0.0,0.0,0.0,0.0,0.0,0.0,0.0,-2.9583,-3.0034,-2.9953,-3.0275,-3.1334,-3.3703,-3.406,-3.5117,-3.7352,-3.7801,-3.809,-3.8291,-3.8304,-3.8379,-3.8567,-3.8944,-3.9145,-3.9145,-3.9509,-3.9697,-3.9697,-3.9697,-3.9697,-3.9697,-3.9697,-3.9697,-3.9697,-3.9981,-4.007,-4.0173,-4.0681,-4.0997,-4.1198,-4.1211,-4.1311,-4.1311,-4.1311,-4.1311,-4.1402,0.0,0.3726,0.2822,0.1818,0.1617,0.1617,0.1617,0.1617,0.1314,0.0505,0.0404,-0.0202,-0.1816,-0.2017,-0.2321,-0.313,-0.323,-0.343,-0.3932,-0.4031,-0.4529,-0.5629,-0.693,-0.8425,-0.992,-1.0493,-1.1473,-1.2764,-1.3249,-1.3727,-1.4298,-1.4298,-1.5153,-1.6581,-1.6581,-1.7426,-1.8735,-1.8735,-1.9122,-1.9836,-1.9844,-1.9558,-1.9149,0.0,0.0,0.0,0.0,0.0,0.0,0.0,0.0,0.0,0.0,0.0,0.0,0.0,0.0,0.0,0.0,0.0,0.0,0.0,0.0,0.0,0.0,0.0,0.0,0.0,0.0,0.0,0.0,0.0,0.0,0.0,0.0,0.0,-2.7392,-2.8868,-3.0034,-3.0088,-3.0852,-3.2401,-3.5023,-3.4901,-3.5636,-3.7829,-3.8052,-3.8304,-3.8868,-3.8894,-3.9145,-3.9672,-3.9697,-3.9697,-3.9697,-3.9697,-3.9697,-3.9697,-3.9697,-3.9697,-3.9697,-3.9697,-3.9697,-3.9697,-3.9981,-4.007,-4.0185,-4.0681,-4.0883,-4.0883,-4.1211,-4.1311,-4.1311,-4.1311,-4.1311,-4.1389,0.4123,0.2821,0.1919,0.1617,0.1617,0.1617,0.1617,0.1617,0.1314,0.0505,-0.0101,-0.0908,-0.1916,-0.2522,-0.2927,-0.323,-0.323,-0.323,-0.343,-0.3783,-0.4636,-0.6301,-0.777,-0.8924,-1.0019,-1.0699,-1.1487,-1.2175,-1.2759,-1.3055,-1.3244,-1.419,-1.4854,-1.5235,-1.5805,-1.6473,-1.7239,-1.7239,-1.7341,-1.7611,-1.8326,-1.8806,-1.9132,0.0,0.0,0.0,0.0,0.0,0.0,0.0,0.0,0.0,0.0,0.0,0.0,0.0,0.0,0.0,0.0,0.0,0.0,0.0,0.0,0.0,0.0,0.0,0.0,0.0,0.0,0.0,0.0,0.0,0.0,0.0,-2.8348,-2.931,-2.9242,-2.9706,-3.0236,-3.0947,-3.105,-3.1902,-3.4061,-3.4861,-3.5853,-3.7248,-3.8575,-3.9295,-3.9459,-3.9471,-3.9534,-3.9685,-3.9697,-3.9697,-3.9697,-3.9697,-3.9697,-3.9697,-3.9697,-3.9697,-3.9697,-3.9697,-3.9697,-3.9697,-3.9788,-3.9788,-3.989,-4.0185,-4.0389,-4.0707,-4.111,-4.1311,-4.1311,-4.1311,-4.1211,-4.1075,0.3323,0.232,0.1617,0.1617,0.1617,0.1617,0.1617,0.1617,0.1212,-0.0,-0.0504,-0.121,-0.2422,-0.2927,-0.323,-0.323,-0.323,-0.3219,-0.3194,-0.3846,-0.5103,-0.7205,-0.8276,-0.932,-1.0511,-1.0998,-1.1487,-1.198,-1.2273,-1.257,-1.2861,-1.3715,-1.4382,-1.4752,-1.533,-1.6001,-1.6588,-1.6588,-1.6588,-1.6595,-1.7056,-1.7505,-1.7898,-1.8079,-1.7823,-1.7579,-1.8156,-1.7991,-1.7582,-1.7582,0.0,0.0,0.0,0.0,0.0,0.0,0.0,0.0,0.0,0.0,0.0,0.0,0.0,0.0,0.0,0.0,0.0,0.0,0.0,0.0,0.0,0.0,0.0,0.0,-2.8528,-2.9471,-2.9558,-3.0216,-3.0732,-3.1157,-3.1469,-3.2229,-3.3691,-3.4575,-3.5761,-3.7271,-3.8423,-3.9154,-3.9697,-3.9697,-3.9697,-3.9697,-3.9697,-3.9697,-3.9697,-3.9697,-3.9697,-3.9697,-3.9697,-3.9697,-3.9697,-3.9697,-3.9697,-3.9697,-3.9697,-3.9697,-3.9697,-4.0083,-4.0402,-4.0504,0.0,0.0,0.0,0.0,-4.1211,-4.1149,0.2522,0.1919,0.1617,0.1617,0.1617,0.1617,0.1617,0.1617,0.101,-0.0605,-0.0806,-0.1412,-0.3029,-0.323,-0.323,-0.323,-0.323,-0.3204,-0.3143,-0.4221,-0.5723,-0.7892,-0.8513,-0.9513,-1.1194,-1.1194,-1.1389,-1.1878,-1.198,-1.2175,-1.2662,-1.3152,-1.3817,-1.4472,-1.4956,-1.5629,-1.6298,-1.6298,-1.6298,-1.6298,-1.5832,-1.589,-1.6213,-1.6434,-1.658,-1.6651,-1.7025,-1.7315,-1.7542,-1.7569,0.0,0.0,0.0,0.0,0.0,0.0,0.0,0.0,0.0,0.0,0.0,0.0,0.0,0.0,0.0,0.0,0.0,0.0,0.0,0.0,0.0,0.0,0.0,0.0,-2.7986,-2.8624,-2.9174,-3.0419,-3.1328,-3.1006,-3.1971,-3.2849,-3.3627,-3.4229,-3.5344,-3.7394,-3.7725,-3.8384,-3.9478,-3.9581,0.0,0.0,0.0,-3.9697,-3.9697,-3.9697,-3.9697,-3.9697,-3.9697,-3.9697,-3.9697,-3.9697,-3.9697,-3.9697,-3.9697,-3.9697,-3.9788,-4.03,-4.0504,-4.0605,-4.0795,-4.1097,-4.1311,-4.1311,-4.1311,-4.1311,0.1918,0.1718,0.1617,0.1617,0.1617,0.1617,0.1617,0.1617,0.101,-0.0605,-0.0806,-0.1412,-0.3029,-0.323,-0.323,-0.323,-0.323,-0.3404,-0.373,-0.4767,-0.6166,-0.7845,-0.8456,-0.9513,-1.1194,-1.1194,-1.1292,-1.1389,-1.178,-1.178,-1.1492,-1.2467,-1.305,-1.3147,-1.363,-1.4202,-1.4777,-1.4777,-1.4777,-1.4771,-1.4879,-1.5478,-1.6211,-1.6069,-1.6137,-1.6407,-1.6981,-1.7188,-1.7268,-1.7502,-1.7898,-1.8318,-1.8422,-1.8743,0.0,0.0,0.0,0.0,0.0,0.0,0.0,0.0,0.0,0.0,0.0,0.0,0.0,0.0,0.0,0.0,0.0,0.0,0.0,-2.771,-2.7733,-2.7884,-2.9576,-3.0726,-3.1423,-3.1356,-3.1854,-3.2321,-3.2891,-3.3877,-3.4692,-3.5124,-3.6858,-3.795,-3.8279,-3.9141,-3.9697,-3.9697,-3.9697,-3.9697,-3.9697,-3.9697,-3.9697,-3.9697,-3.9697,0.0,-3.9697,-3.9697,-3.9697,-3.9697,-3.9697,-3.9788,-4.0083,-4.0185,-4.0389,-4.0896,-4.111,-4.1211,-4.1311,-4.1311,-4.1311,-4.1311,0.1617,0.1617,0.1617,0.1617,0.1617,0.1617,0.1617,0.1617,0.101,-0.0605,-0.0806,-0.1412,-0.3029,-0.323,-0.323,-0.323,-0.3401,-0.3778,-0.4272,-0.5165,-0.6446,-0.8307,-0.8682,-0.9513,-1.1194,-1.1194,-1.1194,-1.1194,-1.1487,-1.1487,-1.1194,-1.2273,-1.2764,-1.2861,-1.3534,-1.401,-1.4298,-1.4298,-1.4394,-1.449,-1.479,-1.5261,-1.5832,-1.5698,-1.5945,-1.6313,-1.6607,-1.6901,-1.7174,-1.7315,-1.7671,-1.7891,-1.747,-1.7681,-1.7891,0.0,0.0,0.0,0.0,0.0,0.0,0.0,0.0,0.0,0.0,0.0,0.0,0.0,0.0,-2.0562,-2.0891,0.0,-2.3149,-2.5755,-2.6285,-2.7035,-2.879,-2.9894,-3.0681,-3.1371,-3.1971,-3.2478,-3.2706,-3.3285,-3.3818,-3.448,-3.61,-3.7287,-3.7832,-3.9037,-3.9697,-3.9697,-3.9697,-3.9697,-3.9697,-3.9697,-3.9697,-3.9697,-3.9697,-3.9788,-3.989,-3.989,-3.9981,-4.0096,-4.0096,-4.0198,-4.0287,-4.0491,-4.0795,-4.1097,-4.1211,-4.1311,-4.1311,-4.1311,-4.1311,-4.1311,0.1617,0.1617,0.1617,0.1617,0.1617,0.1617,0.1617,0.1617,0.1111,-0.0403,-0.0706,-0.131,-0.2826,-0.313,-0.323,-0.323,-0.3778,-0.4263,-0.473,-0.5365,-0.6634,-0.852,-0.8528,-0.9316,-1.09,-1.0998,-1.0998,-1.1194,-1.1194,-1.1292,-1.1394,-1.237,-1.2861,-1.2958,-1.3913,-1.4298,-1.4298,-1.4298,-1.449,-1.4688,-1.4987,-1.5267,-1.5445,-1.535,-1.5691,-1.6192,-1.6051,-1.6308,-1.676,-1.6607,-1.6808,-1.6935,-1.6293,-1.6187,-1.6293,-1.5636,-1.5636,0.0,0.0,0.0,0.0,0.0,0.0,0.0,0.0,-2.0315,-2.0909,-2.0933,-2.0925,-2.0948,-2.1012,-2.2225,-2.3324,-2.3783,-2.4863,-2.6277,-2.8077,-2.9101,-3.0115,-3.1385,-3.223,-3.2727,-3.2727,-3.2727,-3.3058,-3.4043,-3.5223,-3.6414,-3.7512,-3.8712,-3.9478,-3.9697,-3.9697,-3.9697,-3.9697,-3.9788,-3.9788,-3.9697,-3.98,-3.9993,-4.007,-4.0173,-4.0287,-4.0504,-4.0605,-4.0605,-4.0605,-4.0896,-4.111,-4.1311,-4.1311,-4.1311,-4.1311,-4.1311,-4.1311,-4.1311,0.1617,0.1617,0.1617,0.1617,0.1617,0.1617,0.1617,0.1617,0.1313,0.0404,-0.0404,-0.1109,-0.2017,-0.2725,-0.323,-0.323,-0.4126,-0.4724,-0.4832,-0.5724,-0.6722,-0.773,-0.773,-0.8524,-1.0117,-1.0117,-1.0511,-1.1194,-1.1194,-1.1487,-1.1883,-1.2565,-1.3055,-1.3443,-1.4016,-1.4298,-1.4298,-1.4298,-1.449,-1.4688,-1.4987,-1.5267,-1.5445,-1.4682,-1.4987,-1.5817,-1.5095,-1.5071,-1.5149,-1.4458,-1.459,-1.5007,-1.5114,-1.5322,-1.553,-1.5749,-1.5861,-1.5861,-1.5861,-1.7556,-1.9273,-1.9252,-1.9262,-1.9598,0.0,-2.0814,-2.0909,-2.0933,-2.0925,-2.1028,-2.1458,-2.1651,-2.2177,-2.3866,-2.4545,-2.5824,-2.8414,-2.9551,-3.0561,-3.1737,-3.2416,-3.2727,-3.2727,-3.2727,-3.2727,-3.2841,-3.4043,-3.5234,-3.6294,-3.7512,-3.8594,-3.9697,-3.9697,-3.9697,-3.9697,-3.9981,-3.9981,-3.9697,-4.0198,-4.03,-4.007,-4.0402,-4.0504,-4.0504,-4.0795,-4.0883,-4.0896,-4.1097,-4.1311,-4.1311,-4.1311,-4.1311,-4.1311,-4.1311,-4.1311,-4.1311,0.1617,0.1617,0.1617,0.1617,0.1617,0.1617,0.1617,0.1617,0.1314,0.0505,-0.0303,-0.1109,-0.1916,-0.2725,-0.323,-0.323,-0.4133,-0.4834,-0.4834,-0.5834,-0.6734,-0.7531,-0.763,-0.8127,-0.932,-0.9324,-0.9517,-1.0006,-1.0006,-1.0207,-1.0609,-1.1184,-1.1473,-1.1765,-1.2247,-1.2538,-1.2538,-1.2538,-1.2732,-1.3125,-1.3221,-1.3511,-1.3794,-1.3511,-1.3607,-1.4004,-1.3625,-1.3726,0.0,-1.3718,-1.3854,-1.4077,-1.367,-1.3819,-1.4035,-1.3501,-1.3614,-1.4051,-1.4928,-1.5232,-1.5642,-1.6987,-1.831,-1.9508,-2.0254,-2.0646,-2.0909,-2.0933,-2.0925,-2.1036,-2.1393,-2.1616,-2.2116,-2.3043,-2.3727,-2.5006,-2.7949,-2.8748,-2.992,-3.2169,-3.2613,-3.2727,-3.2727,-3.2727,-3.2727,-3.2727,-3.3818,-3.5013,-3.6185,-3.7287,-3.8489,-3.9697,-3.989,-3.9878,-3.9878,-4.0185,-4.03,-4.0198,-4.0402,-4.0491,-4.058,-4.0694,-4.0795,-4.101,-4.1097,-4.111,-4.1097,-4.1211,-4.1311,-4.1311,-4.1311,-4.1311,-4.1311,-4.1311,-4.1311,-4.1311,0.1617,0.1617,0.1617,0.1617,0.1617,0.1617,0.1617,0.1617,0.1415,0.0808,-0.0,-0.0908,-0.1916,-0.3026,-0.3632,-0.343,-0.4435,-0.5035,-0.5035,-0.5934,-0.6637,-0.7232,-0.7232,-0.763,-0.8425,-0.8428,-0.8722,-0.9217,-0.9217,-0.9414,-0.9817,-1.0199,-1.0489,-1.0685,-1.1072,-1.117,-1.117,-1.117,-1.1463,-1.1955,-1.1955,-1.2247,-1.2635,-1.2436,-1.2242,-1.2242,-1.2242,-1.249,-1.2715,-1.2476,-1.2683,-1.28,-1.2168,-1.2342,-1.2572,-1.1878,-1.2005,-1.2659,-1.3753,-1.3254,-1.2759,-1.4522,-1.6174,-1.7615,-1.8597,-1.9427,-2.0132,-2.0292,-2.0601,-2.106,-2.1505,-2.1791,-2.2108,-2.2561,-2.3228,-2.4672,-2.755,-2.8265,-2.9534,-3.2332,-3.2727,-3.2727,-3.2727,-3.2727,-3.2727,-3.2727,-3.3501,-3.4469,-3.5651,-3.6858,-3.8043,-3.9245,-3.9865,-4.0185,-4.0185,-4.0491,-4.0605,-4.0504,-4.0605,-4.0795,-4.0883,-4.0997,-4.111,-4.1311,-4.1311,-4.1311,-4.1311,-4.1311,-4.1311,-4.1311,-4.1311,-4.1311,-4.1311,-4.1311,-4.1311,-4.1311,0.1617,0.1617,0.1617,0.1617,0.1617,0.1617,0.1617,0.1617,0.1617,0.1617,0.0909,-0.0202,-0.1816,-0.3627,-0.4533,-0.4033,-0.4935,-0.5534,-0.5534,-0.6137,-0.6437,-0.6434,-0.6434,-0.6833,-0.763,-0.763,-0.8127,-0.9217,-0.9217,-0.9608,-1.0391,-1.0391,-1.0685,-1.1175,-1.117,-1.117,-1.117,-1.117,-1.1463,-1.1955,-1.1955,-1.2247,-1.263,-1.1658,-1.1268,-1.1268,-1.1268,-1.1307,-1.129,-1.0294,-1.0117,-1.041,-1.0814,-1.1193,-1.1438,-1.1842,-1.2219,-1.2441,-1.2441,-1.2493,-1.2431,-1.2538,-1.2578,-1.3067,-1.4982,-1.6845,-1.8359,-1.879,-1.996,-2.1131,-2.1814,-2.1949,-2.2188,-2.2887,-2.3586,-2.4961,-2.7587,-2.8514,-2.9855,-3.2373,-3.2727,-3.2727,-3.2727,-3.2727,-3.2727,-3.2727,-3.2727,-3.3275,-3.448,-3.587,-3.7145,-3.8323,-3.975,-4.0504,-4.0504,-4.0795,-4.0795,-4.0504,-4.101,-4.1097,-4.0883,-4.1211,-4.1311,-4.1311,-4.1311,-4.1311,-4.1311,-4.1311,-4.1311,-4.1311,-4.1311,-4.1311,-4.1311,-4.1311,-4.1311,-4.1311,0.1617,0.1617,0.1617,0.1617,0.1617,0.1617,0.1617,0.1617,0.1617,0.1617,0.1314,0.0,0.0,0.0,0.0,0.0,-0.534,-0.5636,-0.5636,-0.6137,-0.6437,-0.6437,-0.6437,-0.6537,-0.6833,-0.6936,-0.7338,-0.7832,-0.8035,-0.8333,-0.8825,-0.8825,-0.892,-0.9118,-0.9118,-0.9118,-0.9118,-0.9118,-0.941,-0.9899,-0.9899,-1.0199,-1.06,-1.0306,-1.0109,-1.0109,0.0,-1.0151,-1.0124,-0.9944,-0.9925,-1.0034,-1.0445,-1.0864,-1.1327,-1.1402,-1.1455,-1.1682,-1.226,-1.2446,-1.2398,-1.2398,-1.3018,-1.3858,-1.4641,-1.5931,-1.7101,-1.7745,-1.8276,-1.9045,-2.0567,-2.0933,-2.1449,-2.2474,-2.3443,-2.4969,-2.7587,-2.8523,-2.9874,-3.2373,-3.2727,-3.2727,-3.2727,-3.2727,-3.2727,-3.2727,-3.2965,-3.3829,-3.5761,-3.6522,-3.782,-3.9737,-4.0377,-4.0795,-4.0795,-4.0997,-4.111,-4.101,-4.1211,-4.1211,-4.1211,-4.1211,-4.1311,-4.1311,-4.1311,-4.1311,-4.1311,-4.1311,-4.1311,-4.1311,-4.1311,-4.1311,-4.1311,-4.1311,-4.1311,-4.1311,0.0,0.1314,0.1314,0.1314,0.1314,0.0,0.0,0.0,0.0,0.0,0.0,0.0,0.0,0.0,0.0,0.0,0.0,-0.5844,-0.5844,-0.6239,-0.6437,-0.6437,-0.6437,-0.6437,-0.6437,-0.6642,-0.6942,-0.7238,-0.7444,-0.7746,-0.8038,-0.8038,-0.8038,-0.8038,-0.8038,-0.8038,-0.8038,-0.8038,-0.8305,-0.8747,-0.8803,-0.9087,-0.9539,-0.9604,-0.9628,0.0,-0.9628,-0.9327,-0.9141,-0.9654,-0.9835,-0.9937,-1.0031,-1.0317,-1.065,-1.0651,-1.0684,-1.0798,-1.1371,-1.1468,-1.1559,-1.1891,-1.2545,-1.3186,-1.3722,-1.4781,-1.5843,-1.6374,-1.7009,-1.7952,-1.9553,-2.0312,-2.1076,-2.2316,-2.3371,-2.4969,-2.7587,-2.8523,-2.9874,-3.2373,-3.2727,-3.2727,-3.2851,-3.2851,-3.2851,-3.2851,-3.3193,-3.4155,-3.6077,-3.6846,-3.8137,-3.9955,-4.0681,-4.0997,-4.0997,-4.1211,-4.1311,-4.1311,-4.1311,-4.1311,-4.1311,-4.1311,-4.1311,-4.1311,-4.1311,-4.1311,-4.1311,-4.1311,-4.1311,-4.1311,-4.1311,-4.1311,-4.1311,-4.1311,-4.1311,-4.1311,0.0,0.0,0.0808,0.0,0.0,0.0,0.0,0.0,0.0,0.0,0.0,0.0,0.0,0.0,0.0,0.0,0.0,0.0,-0.6364,-0.6448,-0.6439,-0.6439,-0.6337,-0.6337,-0.6337,-0.6539,-0.6842,-0.7039,-0.7341,-0.7543,-0.7839,-0.7939,-0.7939,-0.7839,-0.7939,-0.7939,-0.7839,-0.7939,-0.8153,-0.8519,-0.8765,-0.9026,-0.9388,-0.9563,-0.9628,-0.9628,-0.9529,-0.8931,-0.8233,-0.924,-0.9662,-0.9839,-0.9495,-0.9448,-0.9471,-0.9798,-0.9798,-0.9798,-0.9798,-0.9798,-1.0017,-1.0794,-1.1017,-1.1345,-1.211,-1.3398,-1.4471,-1.4578,-1.6062,-1.7728,-1.8971,-1.9959,-2.1076,-2.2182,-2.334,-2.4944,-2.7587,-2.8505,-2.9846,-3.2373,-3.2737,-3.2851,-3.3193,-3.3193,-3.3193,-3.3193,-3.3523,-3.4155,-3.53,-3.6703,-3.8101,-3.9287,-4.0567,-4.1311,-4.1311,-4.1311,-4.1311,-4.1311,-4.1311,-4.1311,-4.1311,-4.1311,-4.1311,-4.1311,-4.1311,-4.1311,-4.1311,-4.1311,-4.1311,-4.1311,-4.1311,-4.1311,-4.1311,-4.1311,-4.1311,-4.1311,0.0,0.0,0.0,0.0,0.0,0.0,0.0,0.0,0.0,0.0,0.0,0.0,0.0,0.0,0.0,0.0,0.0,0.0,-0.6271,-0.6369,-0.6366,-0.6366,-0.5651,-0.5242,-0.5242,-0.5035,-0.5031,-0.5131,-0.5429,-0.5527,-0.5627,-0.6431,-0.6334,-0.5627,-0.6434,-0.6434,-0.5932,-0.6731,-0.7412,-0.7977,-0.8715,-0.9304,-0.9563,-0.9612,-0.9628,-0.9525,-0.8722,-0.8603,-0.8704,-0.8498,-0.888,-0.9542,-1.0661,-1.0729,-1.0468,-1.0684,-1.0351,-0.9798,-0.9798,-0.9798,-0.9908,-1.0131,-1.0574,-1.1126,-1.1345,-1.2214,-1.3083,-1.3521,-1.4374,-1.5458,-1.68,-1.8523,-2.0121,-2.0974,-2.2523,-2.4664,-2.755,-2.8256,-2.9524,-3.2332,-3.2965,-3.3079,-3.3193,-3.3646,-3.3861,-3.3861,-3.3974,-3.4814,-3.6811,-3.7465,-3.8742,-4.0681,-4.1097,-4.1311,-4.1311,-4.1311,-4.1311,-4.1311,-4.1311,-4.1311,-4.1311,-4.1311,-4.1311,-4.1311,-4.1311,-4.1311,-4.1311,-4.1311,-4.1311,-4.1311,-4.1311,-4.1311,-4.1311,-4.1311,-4.1311,-4.1311,0.0,0.0,0.0,0.0,0.0,0.0,0.0,0.0,0.0,0.0,0.0,0.0,0.0,0.0,0.0,0.0,0.0,0.0,0.0,-0.444,-0.4947,-0.5354,-0.4744,-0.4438,-0.4438,-0.4433,-0.4429,-0.4429,-0.4626,-0.4824,-0.4824,-0.5427,-0.5327,-0.4824,-0.5427,-0.5529,-0.5229,-0.5829,-0.6401,0.0,0.0,-0.7928,-0.8137,-0.8199,-0.8264,-0.8221,-0.7607,-0.7801,-0.8236,-0.8334,-0.8973,-0.9888,-1.0949,-1.0828,-1.0355,-1.0464,-0.9911,-0.9251,-0.9251,-0.8916,-0.8806,-0.9578,-1.0127,-1.0684,-1.1455,-1.2001,-1.255,-1.3207,-1.3743,-1.4595,-1.6086,-1.8043,-1.9771,-2.0528,-2.2278,-2.4565,-2.7532,-2.8279,-2.9623,-3.255,-3.3182,-3.3409,-3.3533,-3.3861,-3.4199,-3.4311,-3.4311,-3.5256,-3.7571,-3.7784,-3.8963,-4.1211,-4.1311,-4.1311,-4.1311,-4.1311,-4.1311,-4.1311,-4.1311,-4.1311,-4.1311,-4.1311,-4.1311,-4.1311,-4.1311,-4.1311,-4.1311,-4.1311,-4.1311,-4.1311,-4.1311,-4.1311,-4.1311,-4.1311,-4.1311,-4.1311,0.0,0.0,0.0,0.0,0.0,0.0,0.0,0.0,0.0,0.0,-0.0,-0.0101,-0.0202,-0.0202,0.0,0.0,0.0,0.0,0.0,0.0,-0.2944,-0.3658,-0.3649,-0.3745,-0.3745,-0.3934,-0.4028,-0.4028,-0.4225,-0.4423,-0.4423,-0.4524,-0.4524,-0.4423,-0.4524,-0.4726,-0.483,-0.4941,-0.53,-0.5726,-0.5929,-0.6176,-0.639,0.0,-0.6588,-0.6577,-0.6592,-0.6874,-0.7396,-0.8595,-0.9578,-1.0477,-1.0858,-1.0574,-1.0127,-1.0127,-0.9581,-0.8816,-0.8816,-0.826,-0.7925,-0.9467,-0.9908,-1.0351,-1.1891,-1.2332,-1.2659,-1.3207,-1.3851,-1.4702,-1.608,-1.8043,-1.9771,-2.0528,-2.2352,-2.4621,-2.7523,-2.8567,-3.0006,-3.2882,-3.3523,-3.3749,-3.4086,-3.4086,-3.4311,-3.4736,-3.4736,-3.5685,-3.7796,-3.7995,-3.9067,-4.1211,-4.1311,-4.1311,-4.1311,-4.1311,-4.1311,-4.1311,-4.1311,-4.1311,-4.1311,-4.1311,-4.1311,-4.1311,-4.1311,-4.1311,-4.1311,-4.1311,-4.1311,-4.1311,-4.1311,-4.1311,-4.1311,-4.1311,-4.1311,-4.1311,0.0,0.0,0.0,0.0,0.0,0.0,0.0,0.0,0.0,0.0,-0.0303,-0.0303,0.0,0.0,0.0,0.0,0.0,0.0,0.0,0.0,0.0,-0.2114,-0.2084,-0.2067,-0.2067,-0.2137,-0.212,-0.212,-0.212,-0.212,-0.2221,-0.3024,-0.3022,-0.2221,-0.3123,-0.3224,-0.2927,-0.3888,-0.4623,-0.5127,-0.6155,-0.6516,-0.6516,-0.6537,0.0,0.0,-0.6794,-0.684,-0.6978,-0.8937,-0.9862,-1.0413,-1.166,-1.2001,-1.2001,-1.2001,-1.1341,-1.0688,-1.0688,-1.0021,-0.9467,-0.9688,-1.0351,-1.0907,-1.1236,-1.2219,-1.3207,-1.3315,-1.4175,-1.5137,-1.6086,-1.8043,-1.9771,-2.0528,-2.2908,-2.5337,-2.76,-2.901,-3.072,-3.2975,-3.3646,-3.4086,-3.4086,-3.4311,-3.4847,-3.5806,-3.5916,-3.6545,-3.7796,-3.8755,-3.993,-4.1211,-4.1311,-4.1311,-4.1311,-4.1311,-4.1311,-4.1311,-4.1311,-4.1311,-4.1311,-4.1311,-4.1311,-4.1311,-4.1311,-4.1311,-4.1311,-4.1311,-4.1311,-4.1311,-4.1311,-4.1311,-4.1311,-4.1311,-4.1311,-4.1311,0.0,0.0,0.0,0.0,0.0,0.0,0.0,-0.1415,-0.1212,-0.1212,-0.101,-0.0909,-0.1111,-0.1415,-0.1516,0.0,0.0,0.0,0.0,0.0,0.0,-0.1706,-0.1692,-0.1684,-0.1684,-0.1669,-0.1662,-0.1662,0.0,-0.1662,-0.1662,-0.218,-0.2284,-0.1974,-0.2491,-0.2698,-0.2702,-0.3247,-0.3782,-0.4205,-0.4663,-0.4915,-0.4953,0.0,0.0,0.0,-0.5946,-0.6513,-0.729,-0.8673,-0.9801,-1.0899,-1.2001,-1.2441,-1.2441,-1.2441,-1.1782,-1.1126,-1.1126,-1.046,-0.9908,-1.0351,-1.1008,-1.1669,-1.211,-1.3088,-1.3851,-1.4175,-1.503,-1.5879,-1.6611,-1.8583,-2.031,-2.107,-2.3275,-2.5798,-2.8267,-2.9715,-3.1287,-3.3406,-3.4086,-3.4311,-3.4311,-3.4947,-3.5598,-3.6122,-3.7287,-3.823,-3.8755,-3.9827,-4.0782,-4.1311,-4.1311,-4.1311,-4.1311,-4.1311,-4.1311,-4.1311,-4.1311,-4.1311,-4.1311,-4.1311,-4.1311,-4.1311,-4.1311,-4.1311,-4.1311,-4.1311,-4.1311,-4.1311,-4.1311,-4.1311,-4.1311,-4.1311,-4.1311,-4.1311,0.0,0.0,0.0,0.0,0.0,0.0,-0.1516,-0.1617,-0.1617,-0.1617,-0.1622,-0.1525,-0.1422,-0.1518,-0.162,0.0,0.0,0.0,0.0,0.0,0.0,0.0,0.0,0.0,-0.1821,0.0,0.0,-0.1811,-0.1704,0.0,0.0,0.0,0.0,0.0,-0.2237,-0.2558,-0.2986,-0.2998,-0.3216,0.0,0.0,-0.3476,-0.3516,0.0,0.0,0.0,0.0,-0.626,-0.7482,-0.8481,-0.9695,-1.1013,-1.211,-1.2441,-1.2441,-1.2441,-1.1891,-1.1345,-1.1345,-1.0899,-1.0566,-1.1345,-1.1882,-1.2536,-1.331,-1.3959,-1.4493,-1.5137,-1.6028,-1.6813,-1.7662,-1.9442,-2.1068,-2.2137,-2.4073,-2.6435,-2.9162,-3.0489,-3.206,-3.417,-3.4736,-3.4947,-3.5157,-3.6013,-3.6654,-3.6869,-3.8767,-3.9917,-3.9917,-4.0782,-4.1311,-4.1311,-4.1311,-4.1311,-4.1311,-4.1311,-4.1311,-4.1311,-4.1311,-4.1311,-4.1311,-4.1311,-4.1311,-4.1311,-4.1311,-4.1311,-4.1311,-4.1311,-4.1311,-4.1311,-4.1311,-4.1311,-4.1311,-4.1311,-4.1311,-4.1311,0.0,0.0,0.0,0.0,0.0,0.0,-0.1617,-0.1617,-0.1617,-0.1617,-0.1641,-0.2071,-0.31,-0.2243,-0.1628,0.0,0.0,0.0,0.0,0.0,0.0,0.0,0.0,0.0,0.0,0.0,0.0,-0.2131,-0.1811,0.0,0.0,0.0,0.0,0.0,0.0,-0.277,-0.2988,-0.3036,0.0,0.0,0.0,0.0,0.0,0.0,0.0,0.0,0.0,-0.5817,-0.6705,-0.8913,-0.9798,-1.0237,-1.1887,-1.2441,-1.2441,-1.2441,-1.2327,-1.2332,-1.2332,-1.2219,-1.2327,-1.2985,-1.3098,-1.331,-1.3954,-1.4498,-1.5143,-1.598,-1.6927,-1.8077,-1.959,-2.055,-2.1844,-2.3994,-2.5649,-2.764,-3.0038,-3.1625,-3.3301,-3.5429,-3.5893,-3.6437,-3.7477,-3.769,-3.8218,-3.9183,-4.0465,-4.1097,-4.1097,-4.1211,-4.1311,-4.1311,-4.1311,-4.1311,-4.1311,-4.1311,-4.1311,-4.1311,-4.1311,-4.1311,-4.1311,-4.1311,-4.1311,-4.1311,-4.1311,-4.1311,-4.1311,-4.1311,-4.1311,-4.1311,-4.1311,-4.1311,-4.1311,-4.1311,-4.1311,-4.1311,0.0,0.0,0.0,0.0,0.0,0.0,-0.2662,-0.3279,-0.3702,-0.3847,-0.3877,-0.3998,-0.4523,-0.4076,-0.3863,-0.3892,-0.3209,0.0,0.0,0.0,0.0,0.0,0.0,0.0,0.0,0.0,-0.4493,-0.4385,-0.4382,0.0,0.0,0.0,0.0,0.0,0.0,-0.3076,-0.3409,-0.3433,0.0,0.0,0.0,0.0,0.0,0.0,0.0,0.0,0.0,0.0,-0.7817,-0.9357,-1.0131,-1.0684,-1.1455,-1.2001,-1.2441,-1.2441,-1.2441,-1.2436,-1.2417,-1.2413,-1.2521,-1.328,-1.383,-1.431,-1.4783,-1.5373,-1.6072,-1.7194,-1.8081,-1.915,-2.0772,-2.2325,-2.3845,-2.5468,-2.7284,-2.915,-3.1045,-3.2286,-3.3733,-3.5779,-3.6122,-3.6654,-3.7796,-3.8533,-3.939,-4.0567,-4.0997,-4.1311,-4.1311,-4.1311,-4.1311,-4.1311,-4.1311,-4.1311,-4.1311,-4.1311,-4.1311,-4.1311,-4.1311,-4.1311,-4.1311,-4.1311,-4.1311,-4.1311,-4.1311,-4.1311,-4.1311,-4.1311,-4.1311,-4.1311,-4.1311,-4.1311,-4.1311,-4.1311,-4.1311,-4.1311,0.0,0.0,0.0,0.0,0.0,-0.378,-0.3954,-0.4692,-0.5235,-0.5303,-0.5335,-0.5461,-0.578,-0.5592,-0.5717,-0.6468,-0.51,0.0,0.0,0.0,0.0,0.0,0.0,0.0,0.0,0.0,-0.6248,-0.6031,-0.6139,-0.5804,0.0,0.0,-0.4804,-0.425,0.0,0.0,0.0,0.0,0.0,0.0,0.0,0.0,0.0,0.0,0.0,0.0,0.0,0.0,0.0,0.0,0.0,-1.1126,-1.1564,-1.2105,-1.2427,-1.2654,-1.254,-1.2422,-1.2724,-1.2945,-1.329,-1.3898,-1.4467,-1.5087,-1.6003,-1.6515,-1.723,-1.8624,-1.9505,-2.0676,-2.2177,-2.3977,-2.564,-2.7045,-2.8655,-3.0377,-3.2373,-3.3372,-3.4629,-3.6967,-3.718,-3.7595,-3.8755,-3.9609,-4.0465,-4.1211,-4.1311,-4.1311,-4.1311,-4.1311,-4.1311,-4.1311,-4.1311,-4.1311,-4.1311,-4.1311,-4.1311,-4.1311,-4.1311,-4.1311,-4.1311,-4.1311,-4.1311,-4.1311,-4.1311,-4.1311,-4.1311,-4.1311,-4.1311,-4.1311,-4.1311,-4.1311,-4.1311,-4.1311,-4.1311,-4.1311,0.0,0.0,0.0,0.0,0.0,-0.5095,-0.5297,-0.5309,-0.5309,-0.5312,-0.5285,-0.5778,-0.697,-0.6303,-0.6808,-0.9151,-0.7144,0.0,0.0,0.0,0.0,0.0,0.0,0.0,-0.6687,-0.6687,-0.6687,-0.6687,-0.6359,-0.6359,-0.6687,-0.6687,-0.68,-0.7027,0.0,0.0,0.0,0.0,0.0,0.0,0.0,0.0,0.0,0.0,0.0,0.0,0.0,0.0,0.0,0.0,0.0,0.0,0.0,-1.2856,-1.2507,-1.3088,-1.2856,-1.2611,-1.3367,-1.4164,-1.4797,-1.5229,-1.5291,-1.5904,-1.7708,-1.8105,-1.8547,-2.031,-2.1447,-2.2552,-2.4386,-2.5468,-2.6825,-2.9051,-2.986,-3.1264,-3.4311,-3.5141,-3.6485,-3.9225,-3.9597,-4.0032,-4.1097,-4.1311,-4.1311,-4.1311,-4.1311,-4.1311,-4.1311,-4.1311,-4.1311,-4.1311,-4.1311,-4.1311,-4.1311,-4.1311,-4.1311,-4.1311,-4.1311,-4.1311,-4.1311,-4.1311,-4.1311,-4.1311,-4.1311,-4.1311,-4.1311,-4.1311,-4.1311,-4.1311,-4.1311,-4.1311,-4.1311,-4.1311,-4.1311,-4.1311,0.0,0.0,0.0,0.0,0.0,0.0,-0.6468,-0.713,-0.7702,-0.801,-0.806,-0.8307,-0.8855,-0.8676,-0.8813,-0.9596,-0.8216,0.0,0.0,0.0,0.0,0.0,0.0,0.0,-0.9137,-0.9354,-0.9354,-0.9137,-0.9247,-0.8913,-0.8251,-0.8251,-0.7805,-0.7138,-0.7138,-0.7138,0.0,0.0,0.0,0.0,0.0,0.0,-0.902,0.0,0.0,0.0,0.0,0.0,0.0,0.0,0.0,0.0,0.0,0.0,0.0,-1.3733,-1.3764,-1.3821,-1.4374,-1.4713,-1.5316,-1.7215,-1.7695,-1.7988,-1.9131,-1.9626,-2.024,-2.1696,-2.2918,-2.431,-2.5964,-2.7466,-2.8744,-2.9942,-3.1679,-3.3294,-3.4636,-3.5875,-3.7429,-3.9328,-4.0249,-4.0883,-4.1211,-4.1311,-4.1311,-4.1311,-4.1311,-4.1311,-4.1311,-4.1311,-4.1311,-4.1311,-4.1311,-4.1311,-4.1311,-4.1311,-4.1311,-4.1311,-4.1311,-4.1311,-4.1311,-4.1311,-4.1311,-4.1311,-4.1311,-4.1311,-4.1311,-4.1311,-4.1311,-4.1311,-4.1311,-4.1311,-4.1311,-4.1311,-4.1311,-4.1311,0.0,0.0,0.0,0.0,0.0,0.0,-0.8112,-0.8682,-0.9265,-0.9475,-0.9596,-0.9599,-0.9816,-0.9926,-1.0036,-1.0036,-0.9364,0.0,0.0,0.0,0.0,0.0,0.0,0.0,-1.0472,-1.0582,-1.0582,-1.0472,-1.0582,-1.0359,-0.9585,-0.9585,-0.9137,-0.8468,-0.8468,-0.8468,0.0,0.0,0.0,0.0,0.0,0.0,-1.0566,0.0,0.0,0.0,0.0,0.0,0.0,0.0,0.0,0.0,0.0,0.0,0.0,0.0,-1.6154,-1.7388,-1.6882,-1.6851,-1.7464,-1.9222,-1.9577,-1.9724,-2.0681,-2.1302,-2.2131,-2.3582,-2.4718,-2.6018,-2.7552,-2.8956,-3.0297,-3.1538,-3.3207,-3.483,-3.6145,-3.7394,-3.8605,-4.0096,-4.0883,-4.1311,-4.1311,-4.1311,-4.1311,-4.1311,-4.1311,-4.1311,-4.1311,-4.1311,-4.1311,-4.1311,-4.1311,-4.1311,-4.1311,-4.1311,-4.1311,-4.1311,-4.1311,-4.1311,-4.1311,-4.1311,-4.1311,-4.1311,-4.1311,-4.1311,0.0,-4.1311,-4.1311,-4.1311,-4.1311,-4.1311,-4.1311,-4.1311,-4.1311,-4.1311,0.0,0.0,0.0,0.0,0.0,0.0,0.0,-0.9816,-0.9816,-0.9816,-0.9816,-0.9816,-0.9816,-1.0147,-1.0366,-1.0366,-1.0582,0.0,0.0,0.0,0.0,0.0,0.0,-1.0692,-1.0692,-1.0692,-1.0692,-1.0692,-1.0692,-1.0692,-1.0692,-1.0692,-1.0692,-1.0802,-1.0802,-1.0911,0.0,0.0,0.0,0.0,-1.1678,-1.1787,0.0,0.0,0.0,0.0,0.0,0.0,0.0,0.0,0.0,0.0,0.0,0.0,0.0,0.0,0.0,0.0,0.0,-2.0003,-2.0472,-2.1137,-2.1011,-2.1219,-2.2437,-2.3191,0.0,-2.5854,-2.6717,-2.7669,-2.9367,-3.0172,-3.1391,-3.3799,-3.4727,-3.5939,-3.8491,-3.936,-4.0134,-4.1211,-4.1311,-4.1311,-4.1311,-4.1311,-4.1311,-4.1311,-4.1311,-4.1311,-4.1311,-4.1311,-4.1311,-4.1311,-4.1311,-4.1311,-4.1311,-4.1311,-4.1311,-4.1311,-4.1311,-4.1311,-4.1311,-4.1311,-4.1311,-4.1311,-4.1311,-4.1311,-4.1311,-4.1311,-4.1311,-4.1311,-4.1311,-4.1311,-4.1311,-4.1311,-4.1311,-4.1311,0.0,0.0,0.0,0.0,0.0,0.0,0.0,0.0,0.0,0.0,-1.0147,-1.0253,-1.0472,-1.0582,-1.0692,0.0,0.0,0.0,0.0,0.0,0.0,0.0,-1.0692,-1.0692,-1.0692,-1.0911,-1.0911,-1.0692,-1.0911,-1.1017,-1.1017,-1.1017,-1.1131,-1.135,-1.135,-1.1568,0.0,0.0,0.0,0.0,-1.2223,-1.2223,0.0,0.0,0.0,0.0,-1.2441,-1.3297,0.0,0.0,0.0,0.0,0.0,0.0,0.0,0.0,-2.2096,-2.2859,-2.2383,0.0,-2.1193,-2.1994,-2.2197,-2.2631,0.0,-2.5726,-2.6372,-2.7473,-2.8658,-2.9932,-3.1122,-3.2383,-3.3617,-3.5023,-3.6719,-3.8214,-3.8856,-4.0094,-4.0997,-4.1311,-4.1311,-4.1311,-4.1311,-4.1311,-4.1311,-4.1311,-4.1311,-4.1311,-4.1311,-4.1311,-4.1311,-4.1311,-4.1311,-4.1311,-4.1311,-4.1311,-4.1311,-4.1311,-4.1311,-4.1311,-4.1311,-4.1311,-4.1311,-4.1311,-4.1311,-4.1311,-4.1311,-4.1311,-4.1311,-4.1311,-4.1311,-4.1311,-4.1311,-4.1311,-4.1311,-4.1311,0.0,0.0,0.0,0.0,0.0,0.0,0.0,0.0,0.0,0.0,-1.0472,-1.0582,-1.0802,-1.0986,-1.1151,0.0,0.0,0.0,0.0,0.0,0.0,-1.0916,-1.1021,-1.1131,-1.1131,-1.124,-1.124,-1.1131,-1.124,-1.1345,-1.1345,-1.1345,-1.1459,-1.1568,-1.1678,-1.1896,0.0,0.0,0.0,-1.3197,-1.3197,0.0,0.0,0.0,0.0,0.0,-1.4516,-1.5321,0.0,-1.5412,-1.6226,-1.7216,0.0,0.0,0.0,0.0,-2.4261,-2.3965,-2.4667,-2.3521,-2.2268,-2.3424,-2.3966,-2.4625,-2.6608,-2.7473,-2.8116,-2.8986,-2.9848,-3.0952,-3.2576,-3.3571,-3.4731,-3.6785,-3.8166,-3.9359,-4.0499,-4.1433,-4.215,-4.2625,-4.2722,-4.2722,-4.2722,-4.2248,-4.1967,-4.1967,-4.1597,-4.1311,-4.1311,-4.1311,-4.1311,-4.1311,-4.1311,-4.1311,-4.1311,-4.1311,-4.1311,-4.1311,-4.1311,-4.1311,-4.1311,-4.1311,-4.1311,-4.1311,-4.1311,-4.1311,-4.1311,-4.1311,-4.1311,-4.1311,-4.1311,-4.1311,-4.1311,-4.1311,-4.1311,-4.1311,0.0,0.0,0.0,0.0,0.0,0.0,0.0,0.0,0.0,0.0,0.0,0.0,0.0,0.0,0.0,0.0,0.0,0.0,0.0,0.0,-1.1744,-1.1244,-1.1455,-1.1568,-1.1568,-1.1678,-1.1678,-1.1568,-1.1787,-1.1891,-1.1891,-1.2105,-1.2214,-1.2323,-1.254,-1.2649,-1.2649,-1.2866,-1.3516,-1.4482,-1.4482,0.0,0.0,0.0,0.0,0.0,0.0,0.0,0.0,-1.735,-1.7757,-1.8314,-1.7279,0.0,0.0,0.0,0.0,0.0,-2.6811,-2.5392,-2.3991,-2.5296,-2.6063,-2.6834,-2.8223,-2.8976,-2.9544,-3.0475,-3.0809,-3.1663,-3.3993,-3.4664,-3.5795,-3.8617,-3.9259,-4.0063,-4.2239,-4.2695,-4.3081,-4.3937,-4.4219,-4.4312,-4.4312,-4.3545,-4.3081,-4.3081,-4.2248,-4.1683,-4.1498,-4.1498,-4.1498,-4.1311,-4.1311,-4.1311,-4.1311,-4.1311,-4.1311,-4.1311,-4.1311,-4.1311,-4.1311,-4.1311,-4.1311,-4.1311,-4.1311,-4.1311,-4.1311,-4.1311,-4.1311,-4.1311,-4.1311,-4.1311,-4.1311,-4.1311,-4.1311,-4.1311,0.0,0.0,0.0,0.0,0.0,0.0,0.0,0.0,0.0,0.0,0.0,0.0,0.0,0.0,0.0,0.0,0.0,0.0,0.0,-1.2041,-1.1928,-1.1896,-1.1678,-1.1568,-1.1568,-1.1787,-1.1787,-1.1568,-1.2758,-1.3403,-1.3403,-1.4352,-1.4995,-1.5215,-1.5322,-1.5322,-1.5322,-1.5328,-1.5642,-1.5949,-1.5949,0.0,0.0,0.0,0.0,0.0,0.0,0.0,0.0,-1.8,-1.9619,-2.2204,-2.1918,0.0,0.0,0.0,0.0,0.0,-2.7422,-2.6915,-2.6788,-2.7571,-2.7795,-2.8223,-2.9743,-3.0172,-3.0611,-3.1862,-3.2864,-3.4004,-3.5705,-3.7189,-3.858,-3.9977,-4.0629,-4.1093,-4.1484,-4.2235,-4.2889,-4.2985,-4.3735,-4.4312,-4.4312,-4.4125,-4.4031,-4.4031,-4.3937,-4.3464,-4.2612,-4.2612,-4.2137,-4.1311,-4.1311,-4.1311,-4.1311,-4.1311,-4.1311,-4.1311,-4.1311,-4.1311,-4.1311,-4.1311,-4.1311,-4.1311,-4.1311,-4.1311,-4.1311,-4.1311,-4.1311,-4.1311,-4.1311,-4.1311,-4.1311,-4.1311,-4.1311,-4.1311,0.0,0.0,0.0,0.0,0.0,0.0,0.0,0.0,0.0,0.0,0.0,0.0,0.0,0.0,0.0,0.0,0.0,0.0,0.0,-1.2451,-1.2674,-1.3197,-1.3088,-1.2975,-1.2975,-1.3722,-1.404,-1.3932,-1.4674,-1.5001,-1.49,-1.553,-1.5849,-1.5861,-1.6174,-1.628,-1.6168,-1.6274,-1.6804,-1.743,0.0,0.0,0.0,0.0,0.0,0.0,0.0,0.0,0.0,0.0,-2.1645,-2.3533,-2.6707,0.0,0.0,0.0,0.0,0.0,-2.9036,-2.8966,-2.9272,-3.0607,-2.988,-2.9482,-3.1472,-3.2214,-3.2777,-3.3901,-3.4778,-3.5842,-3.7375,-3.8391,-3.9284,-4.0642,-4.1597,-4.2346,-4.2806,-4.3829,-4.4656,-4.5144,-4.5613,-4.5898,-4.5898,-4.5432,-4.4869,-4.4312,-4.4312,-4.3654,-4.2052,-4.2514,-4.2333,-4.1311,-4.1311,-4.1311,-4.1311,-4.1311,-4.1311,-4.1311,-4.1311,-4.1311,-4.1311,-4.1311,-4.1311,-4.1337,-4.1638,-4.1589,-4.1282,-4.1761,-4.1917,-4.1917,-4.1917,-4.2071,-4.2226,-4.2045,-4.1684,-4.135,0.0,0.0,0.0,0.0,0.0,0.0,0.0,0.0,0.0,0.0,0.0,0.0,0.0,0.0,0.0,0.0,0.0,0.0,0.0,-1.3593,-1.392,-1.4702,-1.4911,-1.4905,-1.4696,-1.5541,-1.6068,-1.6068,-1.6586,-1.6797,-1.6916,-1.7114,-1.7114,-1.6916,-1.7331,-1.7331,-1.7219,-1.7437,-1.8073,-1.8923,0.0,0.0,0.0,0.0,0.0,0.0,0.0,0.0,0.0,0.0,0.0,0.0,0.0,0.0,0.0,-3.0618,-3.0356,-3.0464,-3.0662,-3.0899,-3.1424,-3.3049,-3.1845,-3.0949,-3.3215,-3.4086,-3.4738,-3.5757,-3.6533,-3.7501,-3.8868,-3.946,-4.0214,-4.1406,-4.2528,-4.345,-4.4219,-4.5144,-4.6062,-4.6829,-4.7121,-4.7309,-4.7309,-4.6638,-4.5703,-4.4776,-4.4869,-4.4031,-4.1782,-4.2612,-4.2612,-4.1311,-4.1311,-4.1311,-4.1311,-4.1311,-4.1311,-4.1311,-4.1311,-4.1311,-4.1311,-4.1311,-4.1389,-4.1533,-4.181,-4.1839,-4.1634,-4.2307,-4.2645,-4.2645,-4.2684,-4.2827,-4.2853,-4.2632,-4.2125,-4.1762,0.0,0.0,0.0,0.0,0.0,0.0,0.0,0.0,0.0,0.0,0.0,0.0,0.0,0.0,0.0,0.0,0.0,0.0,-1.5834,-1.5815,-1.5767,-1.6162,-1.7127,-1.7239,-1.6162,-1.6268,-1.6374,-1.6592,-1.7752,-1.8812,-1.9768,-1.9872,-1.9872,-1.9768,-1.9864,-1.9864,-1.9864,-1.9872,-2.0086,-2.0331,-2.0736,0.0,0.0,0.0,0.0,0.0,0.0,0.0,0.0,0.0,0.0,0.0,0.0,0.0,-3.158,-3.1559,-3.151,-3.1446,-3.1527,-3.2207,-3.3215,-3.3809,-3.3456,-3.3404,-3.5055,-3.5497,-3.5809,-3.6819,-3.7972,-3.8881,-3.9446,-4.1141,-4.2544,-4.2695,-4.3559,-4.4219,-4.4312,-4.5144,-4.5869,-4.5883,-4.6726,-4.7309,-4.7309,-4.7207,-4.6741,-4.5779,-4.655,-4.5808,-4.2889,-4.3654,-4.3286,-4.1311,-4.1311,-4.1311,-4.1311,-4.1311,-4.1311,-4.1311,-4.1311,-4.1311,-4.1311,-4.1311,-4.1611,-4.2095,-4.1581,-4.1737,-4.2424,-4.2827,-4.301,-4.3023,-4.3402,-4.3075,-4.2502,-4.2489,-4.2658,-4.2866,0.0,0.0,0.0,0.0,0.0,0.0,0.0,0.0,0.0,0.0,0.0,0.0,0.0,0.0,0.0,0.0,0.0,0.0,-1.6448,-1.6449,-1.6804,-1.7542,-1.7969,-1.8499,-1.8916,-1.87,-1.87,-1.8812,-1.9235,-1.9768,-2.0308,-2.0308,-2.03,-2.0078,-2.0498,-2.0901,-2.1285,-2.0798,-2.1636,-2.3175,-2.2593,-2.3139,0.0,0.0,0.0,0.0,0.0,0.0,0.0,0.0,-2.5388,-2.8734,-3.0926,-3.161,-3.1631,-3.1631,-3.1636,-3.1721,-3.2409,-3.3151,-3.4133,-3.5608,-3.6149,-3.6382,-3.6986,-3.7394,-3.7954,-3.8994,-3.9789,-4.0598,-4.1465,-4.2293,-4.2985,-4.364,-4.4577,-4.5235,-4.5235,-4.6077,-4.6726,-4.6726,-4.7106,-4.7309,-4.7309,-4.7309,-4.6916,-4.5869,-4.6726,-4.5987,-4.2985,-4.3735,-4.3368,-4.1411,-4.1311,-4.1311,-4.1311,-4.1311,-4.1311,-4.1311,-4.1311,-4.1311,-4.1311,-4.1311,-4.1432,-4.1632,-4.1957,-4.1917,-4.1872,-4.3397,-4.4081,-4.4081,-4.4267,-4.4108,-4.3896,-4.3896,-4.3922,-4.4081,0.0,0.0,0.0,0.0,0.0,0.0,0.0,0.0,0.0,0.0,0.0,0.0,0.0,0.0,0.0,0.0,0.0,0.0,-1.7765,-1.7752,-1.8178,-1.9027,-1.9027,-1.9554,-2.0617,-2.0403,-2.0395,-2.0395,-2.0696,-2.0806,-2.0617,-2.1318,-2.1412,-2.0901,-2.1607,-2.2266,-2.2866,-2.2384,-2.321,-2.5006,-2.4302,-2.4649,0.0,0.0,0.0,0.0,0.0,0.0,0.0,0.0,-2.839,-3.1585,-3.1585,-3.162,-3.1618,-3.1618,-3.1823,-3.2353,-3.3206,-3.4298,-3.5541,-3.7269,-3.8235,-3.8774,-3.8952,-3.9242,-3.9645,-4.046,-4.1308,-4.1954,-4.2695,-4.3355,-4.4003,-4.467,-4.5613,-4.6255,-4.6255,-4.6829,-4.7309,-4.7309,-4.7309,-4.7309,-4.7309,-4.7309,-4.6916,-4.5869,-4.6726,-4.5987,-4.2985,-4.3735,-4.3368,-4.1411,-4.1311,-4.1311,-4.1311,-4.1311,-4.1311,-4.1311,-4.1311,-4.1311,-4.1311,-4.1311,-4.1396,-4.1698,-4.1957,-4.2173,-4.2473,-4.402,-4.4722,-4.4722,-4.4722,-4.4722,-4.4722,-4.4722,-4.4722,-4.46,0.0,0.0,0.0,0.0,0.0,0.0,0.0,0.0,-1.2192,-1.2739,-1.2767,0.0,0.0,0.0,0.0,0.0,0.0,0.0,-2.0078,-2.0086,-2.0197,-2.0522,-2.0522,-2.0617,-2.0925,-2.0925,-2.0925,-2.0925,-2.2021,-2.192,-2.1019,-2.3103,-2.3502,-2.2526,-2.3601,-2.4417,-2.4804,-2.4804,-2.5043,-2.5552,-2.5862,-2.5475,-2.4836,0.0,0.0,0.0,0.0,0.0,0.0,0.0,-3.1592,-3.1618,-3.1618,-3.1618,-3.1618,-3.1618,-3.242,-3.3327,-3.3945,-3.5668,-3.7509,-3.8604,-3.9693,-4.0579,-4.118,-4.0853,-4.0592,-4.1193,-4.215,-4.2792,-4.2792,-4.447,-4.5779,-4.5779,-4.6638,-4.7309,-4.7309,-4.7309,-4.7309,-4.7309,-4.7309,-4.7309,-4.7309,-4.7309,-4.6916,-4.5869,-4.6726,-4.5987,-4.2971,-4.3735,-4.3368,-4.1411,-4.1311,-4.1311,-4.1311,-4.1311,-4.1311,-4.1311,-4.1311,-4.1311,-4.1311,-4.1311,-4.1758,-4.2463,-4.1697,-4.2574,-4.4722,-4.4722,-4.4722,-4.4722,-4.4722,-4.4722,-4.4722,-4.4722,-4.4722,-4.4561,0.0,0.0,0.0,0.0,0.0,0.0,0.0,0.0,-1.2569,-1.3497,-1.3409,0.0,0.0,0.0,0.0,0.0,0.0,0.0,-2.0609,-2.0712,-2.0712,-2.0822,-2.0822,-2.1019,-2.142,-2.2224,-2.2426,-2.203,-2.3111,-2.3502,-2.3203,-2.3791,-2.3899,-2.361,-2.429,-2.5095,-2.5848,-2.5424,-2.6406,-2.8051,-2.7139,-2.7352,-2.841,0.0,0.0,0.0,0.0,0.0,0.0,0.0,0.0,0.0,-3.1618,-3.1618,-3.1721,-3.251,-3.3263,-3.4179,-3.5818,-3.7295,-3.8665,-3.9715,-4.0525,-4.1102,-4.1272,-4.118,-4.1287,-4.2195,-4.2598,-4.3259,-4.4656,-4.5403,-4.6062,-4.6726,-4.7121,-4.7309,-4.7309,-4.7309,-4.7309,-4.7309,-4.7309,-4.7309,-4.7309,-4.7309,-4.7207,-4.6916,-4.7121,-4.627,-4.4031,-4.4125,-4.3368,-4.1411,-4.1311,-4.1311,-4.1311,-4.1311,-4.1311,-4.1311,-4.1311,-4.1311,-4.1311,-4.1311,-4.1425,-4.1593,-4.1386,-4.2574,-4.4722,-4.4722,-4.4722,-4.4722,-4.4722,-4.4722,-4.4722,-4.4722,-4.4722,-4.46,0.0,0.0,0.0,0.0,0.0,0.0,0.0,0.0,-1.2851,-1.3583,-1.3598,-1.4155,0.0,0.0,0.0,0.0,0.0,0.0,-2.1121,-2.1224,-2.1318,-2.1522,-2.181,-2.2299,-2.2885,-2.3989,-2.4384,-2.4088,-2.4492,-2.459,-2.4285,-2.4982,-2.5273,-2.505,-2.5695,-2.6614,-2.7482,-2.7119,-2.7998,-2.9467,-2.8525,-2.889,-2.9959,0.0,0.0,0.0,0.0,0.0,0.0,0.0,0.0,0.0,-3.1618,-3.2217,-3.2938,-3.3398,-3.4422,-3.5653,-3.7369,-3.8675,-3.9645,-4.0512,-4.105,-4.1311,-4.1311,-4.1311,-4.1597,-4.2598,-4.3081,-4.3923,-4.5494,-4.6151,-4.6638,-4.7207,-4.7309,-4.7309,-4.7309,-4.7309,-4.7309,-4.7309,-4.7309,-4.7309,-4.7309,-4.7309,-4.7309,-4.7309,-4.7309,-4.6462,-4.4406,-4.4312,-4.3368,-4.1411,-4.1311,-4.1311,-4.1311,-4.1311,-4.1311,-4.1311,-4.1311,-4.1311,-4.1311,-4.1311,-4.1282,-4.1389,-4.2241,-4.3464,-4.4722,-4.4722,-4.4722,-4.4722,-4.4722,-4.4722,-4.4722,-4.4722,-4.4626,-4.4505,0.0,0.0,-1.2441,-1.2441,0.0,0.0,0.0,0.0,-1.3029,-1.3479,-1.3542,-1.4272,0.0,0.0,0.0,0.0,0.0,0.0,-2.1623,-2.1725,-2.2021,-2.2627,-2.3402,-2.4267,-2.4925,-2.5935,-2.6522,-2.6628,-2.6167,-2.5586,-2.4884,-2.6602,-2.7145,-2.6646,-2.7615,-2.8634,-2.9476,-2.9415,-2.9684,-3.0098,-3.0087,-3.0041,-3.0044,-3.0203,0.0,0.0,0.0,0.0,0.0,0.0,0.0,0.0,-3.1991,-3.3286,-3.4781,-3.4443,-3.5791,-3.7535,-3.8692,-3.9732,-4.0631,-4.118,-4.1311,-4.1311,-4.1311,-4.1411,-4.1683,-4.2695,-4.3735,-4.4762,-4.5779,-4.6638,-4.7309,-4.7309,-4.7309,-4.7309,-4.7309,-4.7309,-4.7309,-4.7309,-4.7309,-4.7309,-4.7309,-4.7309,-4.7309,-4.7309,-4.7309,-4.6462,-4.4499,-4.4312,-4.3368,-4.1498,-4.1311,-4.1311,-4.1311,-4.1311,-4.1311,-4.1311,-4.1311,-4.1311,-4.1311,-4.1311,-4.1279,-4.1452,-4.373,-4.473,-4.4683,-4.4709,-4.4722,-4.4722,-4.4722,-4.4722,-4.4626,-4.4626,-4.4518,-4.419,0.0,0.0,-1.2441,-1.2441,0.0,0.0,0.0,0.0,0.0,-1.4779,0.0,0.0,0.0,0.0,0.0,0.0,0.0,0.0,-2.1725,-2.2123,-2.2619,-2.3402,-2.4571,-2.5548,-2.6031,-2.6723,-2.7326,-2.7998,-2.7704,-2.7421,-2.722,-2.8084,-2.8315,-2.8247,-2.9189,-2.9923,-3.0586,-3.0643,-3.0893,-3.11,-3.0262,-2.9974,-3.014,-3.1583,-3.1857,0.0,0.0,0.0,0.0,0.0,0.0,0.0,-3.4628,-3.4825,-3.5746,-3.637,-3.7144,-3.8124,-3.9711,-4.0551,-4.1154,-4.1285,-4.1311,-4.1311,-4.1311,-4.1868,-4.2792,-4.3735,-4.4762,-4.5779,-4.6829,-4.7121,-4.7309,-4.7309,-4.7309,-4.7309,-4.7309,-4.7309,-4.7309,-4.7309,-4.7309,-4.7309,-4.7309,-4.7309,-4.7309,-4.7309,-4.7309,-4.6741,-4.5508,-4.4762,-4.3748,-4.2514,-4.1683,-4.1311,-4.1311,-4.1311,-4.1311,-4.1311,-4.1311,-4.1311,-4.1311,-4.1311,-4.1279,-4.1452,-4.373,-4.4705,-4.4677,-4.4725,-4.4722,-4.4722,-4.4722,-4.4505,-4.4274,-4.4409,-4.4203,-4.3887,0.0,0.0,0.0,0.0,0.0,0.0,0.0,0.0,0.0,0.0,0.0,0.0,0.0,0.0,0.0,0.0,-2.2114,-2.2811,-2.3011,-2.3701,-2.4473,-2.5538,-2.6234,-2.6904,-2.7494,-2.7788,-2.8186,-2.8581,-2.8931,-2.8849,-2.855,-2.9148,-2.9498,-2.9742,-3.0466,-3.1061,-3.1625,-3.1657,-3.159,-3.1448,-3.1162,-3.0708,-3.0257,-3.2608,-3.2708,-3.164,-3.1639,0.0,0.0,0.0,0.0,0.0,0.0,0.0,-3.7657,-3.7912,-3.8523,-3.9385,-4.0486,-4.1076,-4.1311,-4.1311,-4.1311,-4.1311,-4.1311,-4.2431,-4.364,-4.4219,-4.5144,-4.6062,-4.7121,-4.7309,-4.7309,-4.7309,-4.7309,-4.7309,-4.7309,-4.7309,-4.7309,-4.7309,-4.7309,-4.7309,-4.7309,-4.7309,-4.7309,-4.7309,-4.7309,-4.6829,-4.5869,-4.4869,-4.3829,-4.2792,-4.1769,-4.1311,-4.1311,-4.1311,-4.1311,-4.1311,-4.1311,-4.1311,-4.1311,-4.1311,-4.1279,-4.1414,-4.2567,-4.3717,-4.4679,-4.4743,-4.4686,-4.4722,-4.4505,-4.4396,-4.419,-4.4094,-4.3874,-4.364,0.0,0.0,0.0,0.0,0.0,0.0,0.0,0.0,0.0,0.0,0.0,0.0,0.0,0.0,0.0,0.0,0.0,0.0,-2.4688,-2.5557,-2.6522,-2.7589,-2.7683,-2.8081,-2.8757,-2.8833,-2.8921,-2.9008,-3.0163,-3.0482,-3.0002,-3.04,-3.0766,-3.1173,-3.1645,-3.2126,-3.2576,-3.2663,-3.2491,-3.2049,-3.2425,-3.2314,-3.2151,-3.4263,-3.4082,-3.2707,-3.269,-3.2649,-3.2661,-3.2707,0.0,0.0,0.0,0.0,-3.9628,-3.9242,-3.9693,-4.0553,-4.1154,-4.1311,-4.1311,-4.1311,-4.1311,-4.1311,-4.1311,-4.2819,-4.4312,-4.4312,-4.5235,-4.6344,-4.7121,-4.7309,-4.7309,-4.7309,-4.7309,-4.7309,-4.7309,-4.7309,-4.7309,-4.7309,-4.7309,-4.7309,-4.7309,-4.7309,-4.7309,-4.7309,-4.7309,-4.6931,-4.6062,-4.4961,-4.3951,-4.3245,-4.1993,-4.1311,-4.1311,-4.1311,-4.1311,-4.1311,-4.1311,-4.1311,-4.1311,-4.1145,-4.1088,-4.1284,-4.1336,-4.254,-4.4494,-4.444,-4.4476,-4.4626,-4.4287,-4.4177,-4.4094,-4.3887,-4.3653,-4.3283,0.0,0.0,0.0,0.0,0.0,0.0,0.0,0.0,0.0,0.0,-1.8938,-1.9665,0.0,0.0,-2.2013,-2.3294,-2.3989,-2.4679,-2.546,0.0,0.0,-2.7589,-2.8269,-2.8653,-2.8757,-2.9172,-2.9598,-3.0024,-3.1923,-3.3101,-3.3389,-3.2524,-3.2115,-3.2202,-3.2659,-3.3138,-3.3704,-3.43,-3.4452,-3.4064,-3.3656,-3.6016,-3.9615,-3.8017,-3.7277,-3.7047,-3.707,-3.703,-3.7067,-3.7035,-3.7095,0.0,0.0,0.0,-4.0106,-4.0044,-4.0174,-4.0553,-4.1154,-4.1311,-4.1311,-4.1311,-4.1311,-4.1311,-4.1311,-4.2819,-4.4312,-4.4312,-4.5793,-4.7121,-4.7309,-4.7309,-4.7309,-4.7309,-4.7309,-4.7309,-4.7309,-4.7309,-4.7309,-4.7309,-4.7309,-4.7309,-4.7309,-4.7309,-4.7309,-4.7309,-4.7309,-4.7207,-4.7121,-4.5341,-4.4532,-4.4936,-4.2592,-4.1311,-4.1311,-4.1311,-4.1311,-4.1311,-4.1311,-4.1311,-4.1311,-4.0385,-4.0423,-4.1289,-4.1347,-4.219,-4.3743,-4.3332,-4.3704,-4.4313,-4.4107,-4.3764,-4.3504,-4.3517,-4.3295,-4.3085,0.0,0.0,0.0,0.0,0.0,0.0,0.0,0.0,0.0,0.0,0.0,-2.0901,0.0,-2.2409,-2.3502,-2.4088,-2.545,-2.6617,-2.7389,-2.7977,-2.8269,-2.8269,-2.9095,-2.977,-3.0052,-3.0824,-3.1611,-3.2399,-3.3899,-3.4875,-3.5419,-3.548,-3.5387,-3.5155,-3.5525,-3.5871,-3.6079,-3.6495,-3.6519,-3.6424,-3.6086,-3.8086,-4.1217,-4.0214,-3.9043,-3.7863,-3.7934,-3.7922,-3.7934,-3.788,-3.8756,-3.9808,-3.9829,0.0,0.0,0.0,-4.0906,-4.0971,-4.1246,-4.1311,-4.1311,-4.1311,-4.1311,-4.1311,-4.1311,-4.2431,-4.345,-4.345,-4.5052,-4.6638,-4.7207,-4.7309,-4.7309,-4.7309,-4.7309,-4.7309,-4.7309,-4.7309,-4.7309,-4.7309,-4.7309,-4.7309,-4.7309,-4.7309,-4.7309,-4.7309,-4.7309,-4.7309,-4.7309,-4.5796,-4.5018,-4.5288,-4.2711,-4.1308,-4.1311,-4.1311,-4.135,-4.1302,-4.1279,-4.0974,-4.0413,-3.9943,-3.9918,-4.0411,-4.0605,-4.1286,-4.2385,-4.2497,-4.2931,-4.3534,-4.3636,-4.3517,-4.3394,-4.3184,-4.3085,-4.2974,0.0,0.0,0.0,0.0,0.0,0.0,0.0,0.0,0.0,0.0,0.0,0.0,0.0,0.0,0.0,0.0,-2.6628,-2.7977,-2.8757,-2.9024,-2.9198,-2.9198,-3.0205,-3.0994,-3.1378,-3.2385,-3.3401,-3.4558,-3.5673,-3.6575,-3.727,-3.827,-3.8546,-3.8189,-3.7766,-3.7582,-3.7688,-3.804,-3.7778,-3.7175,-3.8324,-3.9295,-4.014,-4.0662,-4.0017,-3.873,-3.8799,-3.8781,-3.8768,-3.8749,-3.986,-4.1319,-4.1346,-4.134,0.0,0.0,0.0,-4.1311,-4.1311,-4.1311,-4.1311,-4.1311,-4.1311,-4.1311,-4.1311,-4.2052,-4.2792,-4.2792,-4.4191,-4.5703,-4.6726,-4.7121,-4.7309,-4.7309,-4.7309,-4.7309,-4.7309,-4.7309,-4.7309,-4.7309,-4.7309,-4.7309,-4.7309,-4.7309,-4.7309,-4.7309,-4.7019,-4.6991,-4.7314,-4.5689,-4.5068,-4.5836,-4.2889,-4.1255,-4.125,-4.1289,-4.1175,-4.0935,-4.0924,-4.0491,-3.9652,-3.9677,-3.9741,-3.9766,-4.0083,-4.0645,-4.1375,-4.1834,-4.2409,-4.2971,-4.3191,-4.3283,-4.3295,-4.3085,-4.2974,-4.2974,0.0,0.0,0.0,0.0,0.0,0.0,0.0,0.0,0.0,0.0,0.0,0.0,-2.2426,-2.3701,-2.4982,-2.6264,-2.7115,-2.7977,-2.8757,-2.9646,-3.017,-3.017,-3.1541,0.0,-3.2406,-3.3368,-3.4474,-3.5535,-3.7122,-3.8367,-3.9418,-4.0541,-4.1084,-4.0945,-3.8136,-3.6873,-3.6991,-3.8368,-3.7279,-3.5037,-3.9431,-3.9375,-3.6893,-3.9013,-4.0367,-4.1153,-4.1093,-4.1146,-4.112,-4.1108,-4.124,-4.1346,-4.128,-4.1285,-4.1285,0.0,0.0,0.0,-4.1311,-4.1311,-4.1311,-4.1311,-4.1311,-4.1311,-4.1311,-4.2052,-4.2792,-4.2792,-4.364,-4.4684,-4.5689,-4.6638,-4.7309,-4.7309,-4.7309,-4.7309,-4.7309,-4.7309,-4.7309,-4.7309,-4.7309,-4.7309,-4.7309,-4.7309,-4.7309,-4.7309,-4.6447,-4.6281,-4.7272,-4.48,-4.4553,-4.717,-4.3336,-4.1328,-4.1253,-4.1282,-4.0823,-3.9779,-3.9791,-3.9779,-3.9664,-3.9651,-3.9689,-3.9689,-4.0045,-4.0645,-4.1375,-4.1622,-4.2074,-4.2671,-4.2884,-4.2974,-4.2974,-4.2974,-4.2974,-4.2974,0.0,0.0,0.0,0.0,0.0,0.0,0.0,0.0,0.0,0.0,0.0,0.0,0.0,-2.4777,-2.6157,-2.7115,-2.7882,-2.8735,-2.9635,-2.9988,-3.067,-3.1644,-3.2747,-3.3727,-3.4512,-3.5461,-3.6675,-3.8176,-3.8781,-3.9574,-4.0681,-4.111,-4.1311,-4.1211,-4.0134,-3.9663,-3.9765,-4.0249,-3.9804,-3.902,-4.0681,-3.9702,-3.7381,-3.7531,-3.871,-4.037,-4.1031,-4.1261,-4.1294,-4.1301,-4.134,-4.1254,-4.1272,-4.1311,-4.1311,-4.1311,-4.1311,-4.1311,-4.1311,-4.1311,-4.1311,-4.1311,-4.1311,-4.1311,-4.1311,-4.1597,-4.1868,-4.1868,-4.2612,-4.345,-4.3815,-4.5221,-4.6535,-4.7207,-4.7309,-4.7309,-4.7309,-4.7309,-4.7309,-4.7309,-4.7309,-4.7309,-4.7309,-4.7309,-4.7019,-4.6358,-4.5973,-4.5906,-4.6031,-4.4678,-4.5021,-4.7275,-4.3426,-4.1002,-4.0236,-4.0236,-4.0109,-3.9753,-3.9739,-3.9674,-3.9674,-3.9712,-3.9725,-3.9725,-3.984,-4.0082,-4.0335,-4.0786,-4.1235,-4.1802,-4.2355,-4.2672,-4.2974,-4.2974,-4.2974,-4.2974,0.0,0.0,0.0,0.0,0.0,-2.0345,-2.0124,-2.0609,-2.0925,-2.0925,0.0,0.0,0.0,0.0,-2.722,-2.7977,-2.8817,-2.9555,-3.017,-3.0953,-3.1932,-3.2934,-3.4198,-3.5302,-3.6042,-3.691,-3.807,-3.9612,-3.9612,-4.0187,-4.1311,-4.1311,-4.1311,-4.1311,-4.1311,-4.1311,-4.1311,-4.1071,-4.1097,-4.125,-4.1319,-4.0175,-3.8441,-3.7755,-3.8404,-3.9835,-4.0488,-4.1023,-4.1263,-4.1263,-4.135,-4.1311,-4.1311,-4.1311,-4.1311,-4.1311,-4.1311,-4.1311,-4.1311,-4.1311,-4.1311,-4.1311,-4.1311,-4.1311,-4.1311,-4.1311,-4.1311,-4.1311,-4.2027,-4.2726,-4.3007,-4.4288,-4.5524,-4.615,-4.6844,-4.7207,-4.6829,-4.7106,-4.7309,-4.7309,-4.7019,-4.6903,-4.7271,-4.6668,-4.6327,-4.6301,-4.5479,-4.5295,-4.5931,-4.4303,-4.3779,-4.4666,-4.2173,-4.0385,-3.9676,-3.9739,-3.9662,-3.9674,-3.9647,-3.9697,-3.9697,-3.9697,-3.9697,-3.9697,-3.9697,-3.9697,-3.9735,-4.0287,-4.0852,-4.1392,-4.1932,-4.2497,-4.2974,-4.2974,-4.2974,-4.2974,0.0,0.0,-2.1509,-2.1399,-2.1155,-2.0925,-2.0925,-2.0925,-2.0925,-2.0925,0.0,0.0,0.0,0.0,0.0,-2.8746,-2.9635,-3.026,-3.0283,-3.2552,-3.396,-3.3985,-3.5941,-3.7011,-3.7037,-3.7625,-3.8475,-3.9612,-3.9625,-4.0213,-4.1311,-4.1311,-4.1311,-4.1311,-4.1311,-4.1311,-4.1298,-4.0767,-4.0844,-4.124,-4.1246,-4.0694,-3.9684,-3.9697,-3.9709,-3.9748,-3.9753,-4.0376,-4.1253,-4.1266,-4.1302,-4.1324,-4.1311,-4.1311,-4.1311,-4.1311,-4.1311,-4.1311,0.0,0.0,0.0,-4.1311,-4.1311,-4.1311,-4.1337,-4.135,-4.135,-4.1363,-4.1808,-4.2479,-4.3458,-4.4089,-4.4474,-4.4269,-4.5956,-4.6888,-4.5912,-4.6668,-4.7237,-4.7207,-4.6344,-4.6177,-4.7093,-4.5459,-4.5123,-4.7023,-4.4757,-4.4443,-4.6967,-4.3372,-4.0745,-3.9714,-3.9701,-3.9674,-3.9697,-3.9697,-3.9697,-3.9697,-3.9697,-3.9697,-3.9697,-3.9697,-3.9697,-3.9697,-3.9697,-3.9697,-3.9735,-4.0275,-4.0827,-4.1392,-4.1919,-4.2472,-4.2974,-4.2974,-4.2974,-4.2974,0.0,-2.1897,-2.1454,-2.136,-2.1155,-2.0925,-2.0925,-2.1522,-2.2021,0.0,0.0,0.0,-2.5548,-2.7295,-2.8828,-2.9726,-3.0079,-3.0953,-3.2779,-3.3495,-3.4565,-3.612,-3.6649,-3.7207,-3.7639,-3.82,-3.8854,-3.9612,-4.0004,-4.0579,-4.1311,-4.1311,-4.1311,-4.1311,-4.1311,-4.1311,-4.1298,-4.0767,-4.0614,-4.0702,-4.0718,-4.0286,-3.9766,-4.0567,-4.0836,-4.0797,-3.9956,-3.988,-4.0249,-4.0989,-4.1318,-4.1315,-4.1337,-4.1311,-4.1311,-4.1311,-4.1311,-4.1311,-4.1311,0.0,0.0,0.0,0.0,0.0,-4.1834,-4.1925,-4.2043,-4.2461,-4.267,-4.2878,-4.3174,-4.3881,-4.4259,-4.3459,-4.5052,-4.6144,-4.5501,-4.5631,-4.5659,-4.5201,-4.4869,-4.5025,-4.5795,-4.5338,-4.5077,-4.5106,-4.4429,-4.3718,-4.2964,-4.1169,-4.0019,-3.975,-3.9737,-3.9659,-3.9697,-3.9697,-3.9697,-3.9697,-3.9697,-3.9697,-3.9697,-3.9697,-3.9697,-3.9697,-3.9697,-3.9697,-3.9697,-3.986,-4.0488,-4.1354,-4.1505,-4.2145,-4.2974,-4.2974,-4.2974,-4.2974,-2.2084,-2.1727,-2.1401,-2.1258,-2.106,-2.0925,-2.0925,-2.1827,-2.2526,0.0,0.0,0.0,-2.7295,-2.8269,-2.9198,-3.0079,-3.0519,-3.1639,-3.3721,-3.4514,-3.5491,-3.6959,-3.7246,-3.7547,-3.79,-3.8436,-3.9011,-3.9612,-3.9926,-4.037,-4.0932,-4.071,-4.0723,-4.0945,-4.1214,-4.1259,-4.1276,-4.1,-4.0681,-4.0514,-4.0287,-4.0262,-4.0428,-4.0555,-4.0607,-4.0568,-3.9892,-3.9663,-3.9753,-4.0389,-4.0885,-4.1289,-4.1337,-4.1311,-4.1311,-4.1311,-4.1311,-4.1311,-4.1311,-4.1311,-4.1376,-4.1611,0.0,0.0,-4.2396,-4.2526,-4.2618,-4.2958,-4.3206,-4.3376,-4.3376,-4.4057,-4.4412,-4.3834,-4.4724,-4.5321,-4.4954,-4.5092,-4.5099,-4.4734,-4.4241,-4.4174,-4.4794,-4.411,-4.3421,-4.3121,-4.3076,-4.2385,-4.0722,-4.0069,-3.9697,-3.9697,-3.9697,-3.9697,-3.9697,-3.9697,-3.9697,-3.9697,-3.9697,-3.9697,-3.9697,-3.9697,-3.9697,-3.9697,-3.9697,-3.9697,-3.971,-3.9936,-4.0551,-4.1367,-4.1593,-4.2208,-4.2974,-4.2974,-4.2974,-4.2974,0.0,-2.1417,-2.129,-2.0972,-2.1019,-2.1121,-2.1121,-2.2123,-2.282,0.0,-2.507,-2.7105,-2.8653,-2.8932,-2.9371,-3.0249,-3.1282,-3.2521,-3.4073,-3.5437,-3.6475,-3.7077,-3.7612,-3.7926,-3.7991,-3.8527,-3.9102,-3.9703,-3.9703,-3.9939,-4.0409,-3.986,-3.9899,-4.0435,-4.1038,-4.1267,-4.124,-4.1131,-4.0849,-4.0377,-3.9854,-4.0249,-4.0978,-4.0058,-3.9714,-3.9726,-3.9726,-3.9726,-3.9714,-3.974,-4.0464,-4.125,-4.1337,-4.1324,-4.1311,-4.1311,-4.1311,-4.1324,-4.1389,-4.1415,-4.1546,-4.2121,-4.2265,0.0,-4.2984,-4.3114,-4.3141,-4.3206,-4.3611,-4.3964,-4.3964,-4.4382,-4.4722,-4.4722,-4.4722,-4.4651,-4.442,-4.4743,-4.4926,-4.4857,-4.3863,-4.3326,-4.3918,-4.2312,-4.1253,-4.1126,-4.1142,-4.067,-3.9739,-3.9737,-3.9697,-3.9697,-3.9697,-3.9697,-3.9697,-3.9697,-3.9697,-3.9697,-3.9697,-3.9697,-3.9697,-3.9697,-3.9697,-3.9697,-3.9697,-3.9697,-3.9747,-4.035,-4.0902,-4.1392,-4.1932,-4.2497,-4.2974,-4.2974,-4.2974,-4.2974,-2.1465,-2.1219,-2.1004,-2.0933,-2.1623,-2.2232,-2.2232,-2.3809,-2.5099,-2.5099,-2.6638,-2.7987,-2.8757,-2.9463,-3.026,-3.1223,-3.2607,-3.4085,-3.5538,-3.64,-3.709,-3.7704,-3.7848,-3.8109,-3.854,-3.9128,-3.9703,-4.0252,-4.0252,-4.0305,-4.0409,-3.986,-3.9899,-4.0435,-4.1038,-4.1076,-4.0679,-4.0236,-3.9931,-3.9841,-3.9714,-3.9854,-4.0032,-3.9739,-3.9662,-3.9659,-3.9659,-3.9659,-3.9762,-4.0236,-4.076,-4.1282,-4.1266,-4.1276,-4.1311,-4.1311,-4.1311,-4.1415,-4.1873,-4.199,-4.2134,-4.2709,-4.2853,0.0,-4.3572,-4.3702,-4.3846,-4.4304,-4.4487,-4.4552,-4.4552,-4.4657,-4.4722,-4.4722,-4.4722,-4.4594,-4.4098,-4.37,-4.3287,-4.3104,-4.2206,-4.1789,-4.1834,-4.1494,-4.0987,-4.0084,-3.9993,-3.9928,-3.9659,-3.9685,-3.9697,-3.9697,-3.9697,-3.9697,-3.9697,-3.9697,-3.9697,-3.9697,-3.9697,-3.9697,-3.9697,-3.9697,-3.9697,-3.9697,-3.9697,-3.9697,-3.9772,-4.0764,-4.1241,-4.1392,-4.1932,-4.2497,-4.2974,-4.2974,-4.2974,-4.2974,-2.1187,-2.1044,-2.0925,-2.0925,-2.1827,-2.2526,-2.2526,-2.4304,-2.5693,-2.5693,-2.703,-2.8186,-2.8581,-2.9555,-3.0714,-3.1961,-3.3143,-3.4653,-3.64,-3.6828,-3.739,-3.8266,-3.8305,-3.8579,-3.9141,-3.9716,-4.0017,-4.0017,-4.0017,-3.9764,-3.9368,-3.8808,-3.8765,-3.9226,-4.0083,-4.0452,-4.0462,-3.9905,-3.9649,-3.9699,-3.9726,-3.9739,-3.9699,-3.9699,-3.9737,-3.9697,-3.9697,-3.9647,-3.9699,-3.9955,-4.0428,-4.0885,-4.1062,-4.1136,-4.1311,-4.1097,-4.1406,-4.1808,-4.1993,-4.228,-4.2735,-4.331,-4.3441,0.0,0.0,-4.4304,-4.4382,-4.4453,-4.4518,-4.4409,-4.4313,-4.4313,-4.4313,-4.4313,-4.4313,-4.4209,-4.3924,-4.336,-4.2984,-4.3087,-4.199,-4.1341,-4.1256,-4.0797,-4.0262,-3.9699,-3.9659,-3.9697,-3.9697,-3.9697,-3.9697,-3.9697,-3.9697,-3.9697,-3.9697,-3.9697,-3.9697,-3.9697,-3.9697,-3.9697,-3.9697,-3.9697,-3.9697,-3.9697,-3.9697,-3.9848,-4.0174,-4.099,-4.1505,-4.1806,-4.2346,-4.2735,-4.2974,-4.2974,-4.2974,-4.2974,-2.1304,-2.1264,-2.1216,-2.1514,-2.2417,-2.312,-2.312,-2.4796,-2.5984,-2.6081,-2.7136,-2.8092,-2.856,-2.9726,-3.0965,-3.2483,-3.3695,-3.5072,-3.6843,-3.7207,-3.7795,-3.8841,-3.888,-3.9155,-3.9756,-4.0187,-4.02,-3.9756,-3.9568,-3.9107,-3.8428,-3.7764,-3.7629,-3.8031,-3.8935,-3.9767,-4.0423,-3.9917,-3.9697,-3.9685,-3.9674,-3.9699,-3.9697,-3.9697,-3.9697,-3.9697,-3.9697,-3.9725,-3.9739,-3.9739,-4.0045,-4.0451,-4.0617,-4.0883,-4.1123,-4.1025,-4.149,-4.2008,-4.2035,-4.2528,-4.3113,-4.3792,-4.3935,-4.4053,0.0,0.0,0.0,-4.4313,-4.4203,-4.4216,-4.3899,-4.3899,-4.3861,-4.3746,-4.3848,-4.3874,-4.3759,-4.3462,-4.3232,-4.3507,-4.2188,-4.1217,-4.104,-4.0198,-3.9687,-3.9685,-3.9697,-3.9697,-3.9697,-3.9697,-3.9697,-3.9697,-3.9697,-3.9697,-3.9697,-3.9697,-3.9697,-3.9697,-3.9697,-3.9697,-3.9697,-3.9697,-3.9697,-3.9697,-3.9697,-4.0011,-4.0563,-4.1116,-4.1668,-4.2208,-4.276,-4.2974,-4.2974,-4.2974,-4.2974,-4.2974,-2.2732,-2.2537,-2.2619,-2.3601,-2.4599,-2.5294,-2.5294,-2.638,-2.7156,-2.7347,-2.7536,-2.8175,-2.9543,-3.0519,-3.1601,-3.281,-3.4699,-3.6204,-3.6959,-3.7952,-3.8815,-3.9481,-3.9507,-3.9756,-4.0305,-4.0383,-4.0383,-4.0331,-3.9628,-3.8999,-3.8334,-3.7565,-3.7429,-3.8018,-3.8117,-3.9076,-4.0423,-3.9917,-3.9697,-3.9697,-3.9685,-3.9685,-3.9697,-3.9697,-3.9697,-3.9697,-3.9697,-3.9685,-3.9672,-3.9672,-3.9865,-4.016,-4.0173,-4.0389,-4.0708,-4.1093,-4.1285,-4.1672,-4.2554,-4.2982,-4.3162,-4.4067,-4.4113,-4.4029,-4.43,0.0,-4.401,-4.3899,0.0,-4.3899,-4.3899,0.0,0.0,-4.3208,-4.3727,-4.392,-4.3233,-4.3501,-4.3611,-4.3085,-4.2048,-4.0913,-3.9994,-3.9725,-3.9685,-3.9697,-3.9697,-3.9697,-3.9697,-3.9697,-3.9697,-3.9697,-3.9697,-3.9697,-3.9697,-3.9697,-3.9697,-3.9697,-3.9697,-3.9697,-3.9697,-3.9697,-3.9697,-3.9697,-3.9697,-4.0011,-4.0563,-4.1116,-4.1668,-4.2208,-4.276,-4.2974,-4.2974,-4.2974,-4.2974,-4.2974,-2.3843,-2.3669,-2.3601,-2.3989,-2.4992,-2.5693,-2.5693,-2.6572,-2.7357,-2.7441,-2.7547,-2.8092,-2.9268,-3.0605,-3.1956,-3.3208,-3.5225,-3.6688,-3.7482,-3.8266,-3.9115,-4.003,-4.0069,-4.0344,-4.0932,-4.0592,-4.0155,-3.9732,-3.9077,-3.8316,-3.7454,-3.7024,-3.6955,-3.7128,-3.7442,-3.8235,-3.9357,-3.9626,-3.9726,-3.9697,-3.9697,-3.9697,-3.9697,-3.9697,-3.9697,-3.9697,-3.9697,-3.9697,-3.9697,-3.9697,-3.989,-4.007,-4.007,-4.0287,-4.0606,-4.0963,-4.1463,-4.2003,-4.2595,-4.3163,-4.3592,-4.3945,-4.401,-4.3899,-4.3997,-4.401,-4.3887,-4.364,0.0,0.0,0.0,0.0,0.0,0.0,-4.3305,-4.3441,-4.3079,-4.3269,-4.3488,-4.3912,-4.2437,-4.0901,-3.9853,-3.9659,-3.9697,-3.9697,-3.9697,-3.9697,-3.9697,-3.9697,-3.9697,-3.9697,-3.9697,-3.9697,-3.9697,-3.9697,-3.9697,-3.9697,-3.9697,-3.9697,-3.9697,-3.9697,-3.9697,-3.971,-4.0036,-4.0488,-4.104,-4.1593,-4.2133,-4.266,-4.2886,-4.2974,-4.2974,-4.2974,-4.2974,-4.2974,-2.5651,-2.5239,-2.482,-2.4903,-2.5577,-2.6177,-2.6177,-2.6774,-2.7262,-2.7262,-2.7452,-2.8188,-2.981,-3.0963,-3.2321,-3.4184,-3.5686,-3.6949,-3.7977,-3.8551,-3.9359,-4.0507,-4.0657,-4.0867,-4.1311,-4.0624,-3.9953,-3.9201,-3.8536,-3.7659,-3.6709,-3.6628,-3.6534,-3.6383,-3.6935,-3.7635,-3.8364,-3.9133,-3.955,-3.9697,-3.9697,-3.9697,-3.9697,-3.9697,-3.9697,-3.9697,-3.9697,-3.9697,-3.9697,-3.9697,-3.9788,-3.9981,-3.9981,-4.0083,-4.0338,-4.0828,-4.1428,-4.2017,-4.2524,-4.3127,-4.3666,-4.3764,-4.3666,-4.3666,-4.3776,-4.3666,-4.3543,-4.3295,-4.3295,0.0,0.0,0.0,-4.2924,-4.2748,0.0,-4.2748,-4.2192,-4.2131,-4.2588,-4.4096,-4.2229,-4.0568,-3.9825,-3.9697,-3.9697,-3.9697,-3.9697,-3.9697,-3.9697,-3.9697,-3.9697,-3.9697,-3.9697,-3.9697,-3.9697,-3.9697,-3.9697,-3.9697,-3.9697,-3.9697,-3.9697,-3.9697,-3.9772,-3.9936,-4.0337,-4.0915,-4.1593,-4.1995,-4.2484,-4.2974,-4.2974,-4.2974,-4.2974,-4.2974,-4.2974,-4.2974,-2.8205,-2.7322,-2.6488,-2.7143,-2.7262,-2.7262,-2.7262,-2.7262,-2.7262,-2.7262,-2.7262,-2.8518,-3.1796,-3.1646,-3.2687,-3.6225,-3.6353,-3.6842,-3.8161,-3.8851,-3.9679,-4.0805,-4.1172,-4.1298,-4.1311,-4.0538,-3.9757,-3.9201,-3.814,-3.7292,-3.6709,-3.6546,-3.6452,-3.6383,-3.6935,-3.7315,-3.7568,-3.858,-3.9195,-3.9697,-3.9697,-3.9697,-3.9697,-3.9697,-3.9697,-3.9697,-3.9697,-3.9697,-3.9697,-3.9697,-3.9697,-3.9697,-3.9697,-3.9697,-3.991,-4.099,-4.1329,-4.158,-4.266,-4.2961,-4.3085,-4.3406,-4.3184,-4.3085,-4.3406,-4.3184,-4.2986,-4.2986,-4.2974,-4.2974,-4.2974,-4.2974,-4.2773,-4.2048,-4.2572,0.0,0.0,-3.9778,-4.062,-4.2811,-4.1103,-3.971,-3.9697,-3.9697,-3.9697,-3.9697,-3.9697,-3.9697,-3.9697,-3.9697,-3.9697,-3.9697,-3.9697,-3.9697,-3.9697,-3.9697,-3.9697,-3.9697,-3.9697,-3.9697,-3.9697,-3.9697,-3.9986,-4.0488,-4.0513,-4.1128,-4.2133,-4.2145,-4.2484,-4.2974,-4.2974,-4.2974,-4.2974,-4.2974,-4.2974,-4.2974,-2.7093,-2.7582,-2.7839,-2.7682,-2.7458,-2.7262,-2.7262,-2.7262,-2.7262,-2.7262,-2.751,-2.8657,-3.1134,-3.2106,-3.3577,-3.5923,-3.7126,-3.8025,-3.889,-3.9239,-3.9715,-4.0301,-4.024,-4.0059,-3.9672,-3.902,-3.855,-3.8153,-3.7388,-3.6818,-3.6546,-3.6452,-3.6358,-3.6383,-3.6935,-3.7462,-3.7878,-3.8605,-3.9195,-3.9697,-3.9697,-3.9697,-3.9697,-3.9697,-3.9697,-3.9697,-3.9697,-3.9697,-3.9697,-3.9697,-3.9697,-3.9697,-3.9697,-3.9697,-3.9835,-4.0576,-4.1053,-4.1492,-4.2233,-4.2698,-4.2974,-4.3085,-4.3085,-4.2974,-4.3085,-4.3085,-4.2974,-4.2974,-4.2974,-4.2974,-4.2974,-4.2974,-4.2911,-4.2698,-4.2836,-4.2758,0.0,-4.0583,-3.9994,-4.0717,-4.0156,-3.9697,-3.9697,-3.9697,-3.9697,-3.9697,-3.9697,-3.9697,-3.9697,-3.9697,-3.9697,-3.9697,-3.9697,-3.9697,-3.9697,-3.9697,-3.9697,-3.9697,-3.9697,-3.9697,-3.971,-4.0074,-4.0337,-4.0563,-4.1291,-4.1806,-4.2183,-4.2547,-4.2811,-4.2974,-4.2974,-4.2974,-4.2974,-4.2974,-4.2974,-4.2974,-2.7222,-2.8035,-2.8659,-2.8028,-2.7552,-2.7262,-2.7262,-2.7262,-2.7314,-2.7479,-2.7738,-2.902,-3.1819,-3.2805,-3.4371,-3.6887,-3.7817,-3.8409,-3.891,-3.9035,-3.9239,-3.9449,-3.9449,-3.9171,-3.8787,-3.8165,-3.7789,-3.7584,-3.6906,-3.6534,-3.6358,-3.6358,-3.6358,-3.6383,-3.6935,-3.7487,-3.804,-3.863,-3.9195,-3.9697,-3.9697,-3.9697,-3.9697,-3.9697,-3.9697,-3.9697,-3.9697,-3.9697,-3.9697,-3.9697,-3.9697,-3.9697,-3.9697,-3.9697,-3.9798,-4.035,-4.0764,-4.1216,-4.1944,-4.2421,-4.2735,-4.2924,-4.2974,-4.2974,-4.2974,-4.2974,-4.2974,-4.2974,-4.2974,-4.2974,-4.2974,-4.2974,-4.2974,-4.2974,-4.2974,-4.2758,0.0,-4.0593,-3.9697,-3.9697,-3.9697,-3.9697,-3.9697,-3.9697,-3.9697,-3.9697,-3.9697,-3.9697,-3.9697,-3.9697,-3.9697,-3.9697,-3.9697,-3.9697,-3.9697,-3.9697,-3.9697,-3.9697,-3.9697,-3.9798,-3.9998,-4.035,-4.0727,-4.1141,-4.1844,-4.2271,-4.2472,-4.2836,-4.2974,-4.2974,-4.2974,-4.2974,-4.2974,-4.2974,-4.2974,-4.2974,-2.8587,-2.8928,-2.8949,-2.8048,-2.7541,-2.7262,-2.7262,-2.7282,-2.7448,-2.7872,-2.7986,-2.9543,-3.3683,-3.3746,-3.4987,-3.8806,-3.8479,-3.8189,-3.8497,-3.8497,-3.8485,-3.8459,-3.8643,-3.88,-3.8748,-3.7947,-3.7571,-3.7546,-3.6811,-3.6358,-3.6358,-3.6358,-3.637,-3.642,-3.6973,-3.7525,-3.809,-3.8668,-3.922,-3.9697,-3.9697,-3.9697,-3.9697,-3.9697,-3.9697,-3.9697,-3.9697,-3.9697,-3.9697,-3.9697,-3.9697,-3.9697,-3.9697,-3.9697,-3.9798,-4.0325,-4.0488,-4.0739,-4.1794,-4.2095,-4.2246,-4.2798,-4.2936,-4.2949,-4.2974,-4.2974,-4.2974,-4.2974,-4.2974,-4.2974,-4.2974,-4.2974,-4.2974,-4.2974,-4.2949,-4.2175,-4.0021,-3.968,-3.9697,-3.9697,-3.9697,-3.9697,-3.9697,-3.9697,-3.9697,-3.9697,-3.9697,-3.9697,-3.9697,-3.9697,-3.9697,-3.9697,-3.9697,-3.9697,-3.9697,-3.9697,-3.9697,-3.9697,-3.9722,-4.0011,-4.0513,-4.0576,-4.1166,-4.2158,-4.2183,-4.2497,-4.2974,-4.2974,-4.2974,-4.2974,-4.2974,-4.2974,-4.2974,-4.2974,-4.2974,-4.2974,-2.8173,-2.8193,-2.81,-2.7531,-2.7334,-2.7262,-2.7262,-2.7541,-2.779,-2.7914,-2.8825,-3.0536,-3.3227,-3.436,-3.6057,-3.8717,-3.9107,-3.936,-3.9652,-3.9461,-3.9285,-3.9081,-3.8956,-3.8452,-3.7606,-3.7455,-3.7081,-3.6679,-3.6528,-3.6358,-3.6358,-3.6358,-3.6584,-3.6998,-3.755,-3.8115,-3.8693,-3.9245,-3.9559,-3.9697,-3.9697,-3.9697,-3.9697,-3.9697,-3.9697,-3.9697,-3.9697,-3.9697,-3.9697,-3.9697,-3.9697,-3.9697,-3.9697,-3.9697,-3.9722,-3.986,-4.0199,-4.0576,-4.0865,-4.1241,-4.1681,-4.2233,-4.2371,-4.2472,-4.2886,-4.2974,-4.2974,-4.2974,-4.2974,-4.2974,-4.2974,-4.2974,-4.2974,-4.2974,-4.3026,-4.2252,-3.9972,-3.9753,-3.9697,-3.9697,-3.9697,-3.9697,-3.9697,-3.9697,-3.9697,-3.9697,-3.9697,-3.9697,-3.9697,-3.9697,-3.9697,-3.9697,-3.9697,-3.9697,-3.9697,-3.9697,-3.9697,-3.9697,-4.0111,-4.0375,-4.0538,-4.1367,-4.1882,-4.2183,-4.2585,-4.2848,-4.2974,-4.2974,-4.2974,-4.2974,-4.2974,-4.2974,-4.2974,-4.2974,-4.2974,-4.3037,-2.7976,-2.7924,-2.7841,-2.7593,-2.7552,-2.7552,-2.7552,-2.7759,-2.8142,-2.8752,-2.9508,-3.0936,-3.3283,-3.4302,-3.5744,-3.8233,-3.8748,-3.9146,-3.9537,-3.9423,-3.9183,-3.8729,-3.8592,-3.8191,-3.755,-3.7312,-3.7036,-3.6722,-3.6471,-3.6358,-3.6358,-3.6358,-3.6659,-3.7211,-3.7764,-3.8329,-3.8906,-3.9459,-3.9697,-3.9697,-3.9697,-3.9697,0.0,-3.9697,-3.9697,-3.9697,-3.9697,-3.9697,-3.9697,-3.9697,-3.9697,-3.9697,-3.9697,-3.9697,-3.9697,-3.9697,-3.991,-4.0212,-4.045,-4.0752,-4.1116,-4.1656,-4.1806,-4.1882,-4.2195,-4.2446,-4.2622,-4.2622,-4.2811,-4.2974,-4.2974,-4.2974,-4.2886,-4.261,-4.2245,-4.1461,-3.9879,-3.969,-3.9697,-3.9697,-3.9697,-3.9697,-3.9697,-3.9697,-3.9697,-3.9697,-3.9697,-3.9697,-3.9697,-3.9697,-3.9697,-3.9697,-3.9697,-3.9697,-3.9697,-3.9697,-3.9823,-4.0061,-4.0375,-4.0764,-4.1254,-4.1869,-4.2283,-4.2534,-4.2848,-4.2974,-4.2974,-4.2974,-4.2974,-4.2974,-4.2974,-4.2974,-4.3011,-4.325,-4.3338,-4.3376,-2.7924,-2.7872,-2.7852,-2.7914,-2.7924,-2.7966,-2.8079,-2.8152,-2.8628,-2.9839,-3.0149,-3.1126,-3.3508,-3.3803,-3.4982,-3.769,-3.795,-3.8178,-3.9007,-3.8981,-3.8755,-3.8253,-3.8228,-3.8191,-3.8115,-3.7651,-3.7362,-3.7287,-3.6734,-3.6471,-3.6471,-3.6395,-3.6684,-3.7312,-3.7789,-3.8366,-3.9007,-3.9484,-3.9697,-3.9697,-3.9697,-3.9697,-3.9697,-3.9697,-3.9697,-3.9697,-3.9697,-3.9697,-3.9697,-3.9697,-3.9697,-3.9697,-3.9697,-3.9697,-3.9697,-3.9697,-3.9697,-3.9798,-4.0275,-4.0413,-4.0538,-4.1091,-4.1229,-4.1254,-4.1317,-4.1706,-4.2045,-4.2045,-4.2434,-4.276,-4.276,-4.276,-4.2559,-4.1823,-4.1166,-4.0513,-3.9755,-3.9665,-3.9697,-3.9697,-3.9697,0.0,-3.9697,-3.9697,-3.9697,-3.9697,-3.9697,-3.9697,-3.9697,-3.9697,-3.9697,-3.9697,-3.9697,-3.9697,-3.9697,-3.9772,-4.0036,-4.0513,-4.0664,-4.1229,-4.2158,-4.2233,-4.2522,-4.2974,-4.2974,-4.2974,-4.2974,-4.2974,-4.2974,-4.2974,-4.2974,-4.3024,-4.3137,-4.3627,-4.389,-4.4016,-2.7924,-2.7624,-2.7489,-2.7852,-2.7924,-2.8183,-2.8949,-2.9384,-2.9715,-2.9963,-3.0977,-3.2196,-3.3617,-3.4109,-3.5353,-3.7713,-3.795,-3.8348,-3.9456,-3.9546,-3.9496,-3.9396,-3.9396,-3.9182,-3.873,-3.863,-3.8341,-3.7864,-3.7312,-3.7036,-3.7023,-3.6571,-3.6897,-3.7864,-3.7965,-3.858,-3.9559,-3.9647,-3.9697,-3.9697,-3.9697,-3.9697,-3.9697,-3.9697,-3.9697,-3.9697,-3.9697,-3.9697,-3.9697,-3.9697,-3.9697,-3.9697,-3.9697,-3.9697,-3.9697,-3.9697,-3.9697,-3.9722,-3.981,-3.9835,-3.9973,-4.0526,-4.0664,-4.0777,-4.1229,-4.1417,-4.148,-4.148,-4.1555,-4.163,-4.163,-4.163,-4.1442,-4.0877,-4.0807,-4.0543,-3.9757,-3.9722,-3.9697,-3.9697,-3.9697,-3.9697,-3.9697,-3.9697,-3.9697,-3.9697,-3.9697,-3.9697,-3.9697,-3.9697,-3.9697,-3.9697,-3.9697,-3.9697,-3.9697,-4.0149,-4.0425,-4.0526,-4.1442,-4.1969,-4.217,-4.2622,-4.2886,-4.2974,-4.2974,-4.2974,-4.2974,-4.2974,-4.2974,-4.2974,-4.2974,-4.3263,-4.3664,-4.3765,-4.4392,-4.5196,-2.7583,-2.7593,-2.7665,-2.7883,-2.8317,-2.8794,-2.9239,-2.9901,-3.0439,-3.0677,-3.1485,-3.235,-3.313,-3.3465,-3.4256,-3.6002,-3.6642,-3.7512,-3.8712,-3.9362,-3.9697,-3.9697,-3.9697,-3.9572,-3.9308,-3.9019,-3.873,-3.8454,-3.7889,-3.7613,-3.76,-3.7337,-3.7663,-3.8467,-3.8755,-3.9182,-3.9697,-3.9697,-3.9697,-3.9697,-3.9697,-3.9697,-3.9697,-3.9697,-3.9697,-3.9697,-3.9697,-3.9697,-3.9697,-3.9697,-3.9697,-3.9697,-3.9697,-3.9697,-3.9697,-3.9697,-3.9697,-3.9697,-3.9697,-3.9697,-3.976,-4.0023,-4.0086,-4.0162,-4.0425,-4.0714,-4.0915,-4.0915,-4.1141,-4.1342,-4.1342,-4.1103,-4.0827,-4.0563,-4.0312,-4.0153,-3.9735,-3.9697,-3.9697,-3.9697,-3.9697,-3.9697,-3.9697,-3.9697,-3.9697,-3.9697,-3.9697,-3.9697,-3.9697,-3.9697,-3.9697,-3.9697,-3.9697,-3.9835,-4.0124,-4.0388,-4.0802,-4.1367,-4.1907,-4.2308,-4.2585,-4.2848,-4.2974,-4.2974,-4.2974,-4.2974,-4.2974,-4.2974,-4.2974,-4.2999,-4.3288,-4.3564,-4.3865,-4.4455,-4.502,-4.5485,-2.7376,-2.7686,-2.7986,-2.8183,-2.8825,-2.9332,-2.9435,-3.0232,-3.0957,-3.1329,-3.1764,-3.2219,-3.2685,-3.2727,-3.3172,-3.4368,-3.5333,-3.6306,-3.7501,-3.8384,-3.8933,-3.8933,-3.8933,-3.9037,-3.9362,-3.8938,-3.8828,-3.9044,-3.8467,-3.8128,-3.8002,-3.8002,-3.8316,-3.8894,-3.9446,-3.9697,-3.9697,-3.9697,-3.9697,-3.9697,-3.9697,-3.9697,-3.9697,-3.9697,-3.9697,-3.9697,-3.9697,-3.9697,-3.9697,-3.9697,-3.9697,-3.9697,-3.9697,-3.9697,-3.9697,-3.9697,-3.9697,-3.9697,-3.9697,-3.9697,-3.9697,-3.9697,-3.9697,-3.9697,-3.9697,-4.0036,-4.0337,-4.0337,-4.0689,-4.099,-4.099,-4.0626,-4.0337,-4.0337,-3.9973,-3.9697,-3.9697,-3.9697,-3.9697,-3.9697,-3.9697,-3.9697,-3.9697,-3.9697,-3.9697,-3.9697,-3.9697,-3.9697,-3.9697,-3.9697,-3.9697,-3.9697,-3.981,-4.0074,-4.0513,-4.0752,-4.1304,-4.2158,-4.2271,-4.2559,-4.2974,-4.2974,-4.2974,-4.2974,-4.2974,-4.2974,-4.2974,-4.2974,-4.2974,-4.3024,-4.3463,-4.3689,-4.3915,-4.4807,-4.5208,-4.5309,-2.7779,-2.7893,-2.8183,-2.9032,-2.9249,-2.9446,-2.986,-3.0708,-3.1309,-3.1371,-3.1764,-3.2219,-3.2685,-3.2727,-3.3172,-3.4368,-3.4591,-3.5124,-3.6294,-3.6511,-3.6522,-3.6522,-3.6522,-3.7061,-3.8056,-3.8007,-3.8521,-3.9622,-3.9057,-3.853,-3.8002,-3.8002,-3.8316,-3.8894,-3.9446,-3.9697,-3.9697,-3.9697,-3.9697,-3.9697,-3.9697,-3.9697,-3.9697,-3.9697,-3.9697,-3.9697,-3.9697,-3.9697,-3.9697,-3.9697,-3.9697,-3.9697,-3.9697,-3.9697,-3.9697,-3.9697,-3.9697,-3.9697,-3.9697,-3.9697,-3.9697,-3.9697,-3.9697,-3.9697,-3.9697,-3.9735,-3.9772,-3.9772,-3.981,-3.9848,-3.9848,-3.981,-3.9772,-3.9772,-3.9722,-3.9697,-3.9697,-3.9697,-3.9697,-3.9697,-3.9697,-3.9697,-3.9697,-3.9697,-3.9697,-3.9697,-3.9697,-3.9697,-3.9697,-3.9697,-3.9697,-3.9697,-4.0174,-4.0463,-4.0513,-4.1505,-4.2045,-4.2158,-4.266,-4.2924,-4.2974,-4.2974,-4.2974,-4.2974,-4.2974,-4.2974,-4.2974,-4.2974,-4.2974,-4.2986,-4.3037,-4.3363,-4.3815,-4.3915,-4.4279,-4.4706,-2.8245,-2.8566,-2.8866,-2.9239,-2.9539,-2.9777,-2.9963,-3.0305,-3.0739,-3.1298,-3.2012,-3.252,-3.2716,-3.2727,-3.2841,-3.3388,-3.4043,-3.4692,-3.5113,-3.587,-3.6185,-3.6185,-3.6185,-3.6738,-3.7844,-3.795,-3.8489,-3.9697,-3.9471,-3.9245,-3.9019,-3.9019,-3.9145,-3.9371,-3.9597,-3.9697,-3.9697,-3.9697,-3.9697,-3.9697,-3.9697,-3.9697,-3.9697,-3.9697,-3.9697,-3.9697,-3.9697,-3.9697,-3.9697,-3.9697,-3.9697,-3.9697,-3.9697,-3.9697,-3.9697,-3.9697,-3.9697,-3.9697,-3.9697,-3.9697,-3.9697,-3.9697,-3.9697,-3.9697,-3.9697,-3.9697,-3.9697,-3.9697,-3.9697,-3.9697,-3.9697,-3.9697,-3.9697,-3.9697,-3.9697,-3.9697,-3.9697,-3.9697,-3.9697,-3.9697,-3.9697,-3.9697,-3.9697,-3.9697,-3.9697,-3.9697,-3.9697,-3.9697,-3.9697,-3.9697,-3.9697,-3.9697,-4.0224,-4.0676,-4.1015,-4.1769,-4.2321,-4.2647,-4.2873,-4.2974,-4.2974,-4.2974,-4.2974,-4.2974,-4.2974,-4.2974,-4.2974,-4.2974,-4.2974,-4.3011,-4.3338,-4.3601,-4.384,-4.4166,-4.443,-4.4618,-2.8621,-2.9073,-2.9342,-2.9487,-2.9777,-2.9994,-2.9994,-3.0108,-3.0429,-3.1091,-3.1961,-3.2582,-3.2716,-3.2727,-3.2727,-3.2727,-3.3501,-3.3931,-3.3931,-3.4681,-3.5212,-3.5212,-3.5212,-3.587,-3.7394,-3.7394,-3.8161,-3.9697,-3.9697,-3.9609,-3.9446,-3.9446,-3.9534,-3.9697,-3.9697,-3.9697,-3.9697,-3.9697,-3.9697,-3.9697,-3.9697,-3.9697,-3.9697,-3.9697,-3.9697,-3.9697,-3.9697,-3.9697,-3.9697,-3.9697,-3.9697,-3.9697,-3.9697,-3.9697,-3.9697,-3.9697,-3.9697,-3.9697,-3.9697,-3.9697,-3.9697,-3.9697,-3.9697,-3.9697,-3.9697,-3.9697,-3.9697,-3.9697,-3.9697,-3.9697,-3.9697,-3.9697,-3.9697,-3.9697,-3.9697,-3.9697,-3.9697,-3.9697,-3.9697,-3.9697,-3.9697,-3.9697,-3.9697,-3.9697,-3.9697,-3.9697,-3.9697,-3.9697,-3.9697,-4.0014,-4.0102,-3.9936,-4.0626,-4.1191,-4.158,-4.212,-4.2597,-4.2974,-4.2974,-4.2974,-4.2974,-4.2974,-4.2974,-4.2974,-4.2974,-4.2974,-4.2974,-4.2974,-4.2974,-4.3024,-4.3413,-4.3564,-4.3601,-4.4003,-4.4141,-4.4141,-2.8993,-2.9301,-2.9446,-2.9911,-2.9994,-2.9994,-2.9994,-3.0387,-3.0677,-3.0698,-3.1485,-3.2219,-3.2685,-3.2727,-3.2727,-3.2727,-3.2727,-3.2727,-3.2727,-3.2727,-3.2727,-3.2727,-3.2727,-3.3808,-3.6185,-3.6185,-3.7394,-3.9697,-3.9697,-3.9421,-3.8881,-3.8881,-3.917,-3.9697,-3.9697,-3.9697,-3.9697,-3.9697,-3.9697,-3.9697,-3.9697,-3.9697,-3.9697,-3.9697,-3.9697,-3.9697,-3.9697,-3.9697,-3.9697,-3.9697,-3.9697,-3.9697,-3.9697,-3.9697,-3.9697,-3.9697,-3.9697,-3.9697,-3.9697,-3.9697,-3.9697,-3.9697,-3.9697,-3.9697,-3.9697,-3.9697,-3.9697,-3.9697,-3.9697,-3.9697,-3.9697,-3.9697,-3.9697,-3.9697,-3.9697,-3.9697,-3.9697,-3.9697,-3.9697,-3.9697,-3.9697,-3.9697,-3.9697,-3.9697,-3.9697,-3.9697,-3.9697,-3.9697,-3.9697,-4.0727,-4.1056,-4.0513,-4.1568,-4.2133,-4.2145,-4.2685,-4.2974,-4.2974,-4.2974,-4.2974,-4.2974,-4.2974,-4.2974,-4.2974,-4.2974,-4.2974,-4.2974,-4.2974,-4.2974,-4.2974,-4.2986,-4.2986,-4.2986,-4.2999,-4.2999,-4.2999,-2.9466,-2.9777,-2.9818,-2.9973,-2.9994,-2.9994,-2.9994,-3.0118,-3.0325,-3.0646,-3.0936,-3.1412,-3.2178,-3.254,-3.2727,-3.2727,-3.2727,-3.2727,-3.2727,-3.2727,-3.2727,-3.2727,-3.2727,-3.3378,-3.5013,-3.5761,-3.6954,-3.8489,-3.9258,-3.9597,-3.9433,-3.9433,-3.9534,-3.9697,-3.9697,-3.9697,-3.9697,-3.9697,-3.9697,-3.9697,-3.9697,-3.9697,-3.9697,-3.9697,-3.9697,-3.9697,-3.9697,-3.9697,-3.9697,-3.9697,-3.9697,-3.9697,-3.9697,-3.9697,-3.9697,-3.9697,-3.9697,-3.9697,-3.9697,-3.9697,-3.9697,-3.9697,-3.9697,-3.9697,-3.9697,-3.9697,-3.9697,-3.9697,-3.9697,-3.9697,-3.9697,-3.9697,-3.9697,-3.9697,-3.9697,-3.9697,-3.9697,-3.9697,-3.9697,-3.9697,-3.9697,-3.9697,-3.9697,-3.9697,-3.9697,-3.9697,-3.9697,-4.0027,-4.0765,-4.0774,-4.087,-4.1065,-4.1781,-4.2158,-4.2158,-4.2698,-4.2974,-4.2974,-4.2974,-4.2974,-4.2974,-4.2974,-4.2974,-4.2974,-4.2974,-4.2974,-4.2974,-4.2974,-4.2974,-4.2974,-4.2974,-4.2974,-4.2974,-4.2974,-4.2974,-4.2974,-2.9608,-2.9994,-2.9994,-2.9994,-2.9994,-2.9994,-2.9994,-2.9994,-3.0098,-3.0387,-3.0584,-3.0905,-3.1464,-3.2095,-3.254,-3.2716,-3.2727,-3.2727,-3.2727,-3.2727,-3.2727,-3.2727,-3.2727,-3.3275,-3.448,-3.5234,-3.6306,-3.795,-3.9141,-3.9697,-3.9697,-3.9697,-3.9697,-3.9697,-3.9697,-3.9697,-3.9697,-3.9697,-3.9697,-3.9697,-3.9697,-3.9697,-3.9697,-3.9697,-3.9697,-3.9697,-3.9697,-3.9697,-3.9697,-3.9697,-3.9697,-3.9697,-3.9697,-3.9697,-3.9697,-3.9697,-3.9697,-3.9697,-3.9697,-3.9697,-3.9697,-3.9697,-3.9697,-3.9697,-3.9697,-3.9697,-3.9697,-3.9697,-3.9697,-3.9697,-3.9697,-3.9697,-3.9697,-3.9697,-3.9697,-3.9697,-3.9697,-3.9697,-3.9697,-3.9697,-3.9697,-3.9697,-3.9697,-3.9697,-3.9697,-3.9697,-3.991,-4.0442,-4.1216,-4.1178,-4.1248,-4.163,-4.2183,-4.2472,-4.2472,-4.2798,-4.2974,-4.2974,-4.2974,-4.2974,-4.2974,-4.2974,-4.2974,-4.2974,-4.2974,-4.2974,-4.2974,-4.2974,-4.2974,-4.2974,-4.2974,-4.2974,-4.2974,-4.2974,-4.2974,-4.2974,-2.9554,-2.9994,-2.9994,-2.9994,-2.9994,-2.9994,-2.9994,-2.9994,-2.9994,-2.9994,-3.0367,-3.0646,-3.0677,-3.1443,-3.2147,-3.2633,-3.2716,-3.2727,-3.2727,-3.2727,-3.2727,-3.2727,-3.2727,-3.3275,-3.4368,-3.448,-3.5674,-3.795,-3.9141,-3.9697,-3.9697,-3.9697,-3.9697,-3.9697,-3.9697,-3.9697,-3.9697,-3.9697,-3.9697,-3.9697,-3.9697,-3.9697,-3.9697,-3.9697,-3.9697,-3.9697,-3.9697,-3.9697,-3.9697,-3.9697,-3.9697,-3.9697,-3.9697,-3.9697,-3.9697,-3.9697,-3.9697,-3.9697,-3.9697,-3.9697,-3.9697,-3.9697,-3.9697,-3.9697,-3.9697,-3.9697,-3.9697,-3.9697,-3.9697,-3.9697,-3.9697,-3.9697,-3.9697,-3.9697,-3.9697,-3.9697,-3.9697,-3.9697,-3.9697,-3.9697,-3.9697,-3.9697,-3.9697,-3.9697,-3.971,-3.976,-4.0417,-4.0971,-4.1392,-4.1771,-4.2023,-4.2195,-4.271,-4.2974,-4.2974,-4.2974,-4.2974,-4.2974,-4.2974,-4.2974,-4.2974,-4.2974,-4.2974,-4.2974,-4.2974,-4.2974,-4.2974,-4.2974,-4.2974,-4.2974,-4.2974,-4.2974,-4.2974,-4.2974,-4.2974,-4.2986,-2.9554,-2.9994,-2.9994,-2.9994,-2.9994,-2.9994,-2.9994,-2.9994,-2.9994,-2.9994,-3.0087,-3.0294,-3.0646,-3.0874,-3.1329,-3.2137,-3.253,-3.2727,-3.2727,-3.2727,-3.2727,-3.2727,-3.2727,-3.2841,-3.3172,-3.4043,-3.5674,-3.795,-3.9141,-3.9697,-3.9697,-3.9697,-3.9697,-3.9697,-3.9697,-3.9697,-3.9697,-3.9697,-3.9697,-3.9697,-3.9697,-3.9697,-3.9697,-3.9697,-3.9697,-3.9697,-3.9697,-3.9697,-3.9697,-3.9697,-3.9697,-3.9697,-3.9697,-3.9697,-3.9697,-3.9697,-3.9697,-3.9697,-3.9697,-3.9697,-3.9697,-3.9697,-3.9697,-3.9697,-3.9697,-3.9697,-3.9697,-3.9697,-3.9697,-3.9697,-3.9697,-3.9697,-3.9697,-3.9697,-3.9697,-3.9697,-3.9697,-3.9697,-3.9697,-3.9697,-3.9697,-3.9697,-3.9697,-3.9697,-3.9898,-4.048,-4.0656,-4.1317,-4.2486,-4.2313,-4.2368,-4.2773,-4.2911,-4.2974,-4.2974,-4.2974,-4.2974,-4.2974,-4.2974,-4.2974,-4.2974,-4.2974,-4.2974,-4.2974,-4.2974,-4.2974,-4.2974,-4.2974,-4.2974,-4.2974,-4.2974,-4.2974,-4.2974,-4.2974,-4.2974,-4.3037,-2.9554,-2.9994,-2.9994,-2.9994,-2.9994,-2.9994,-2.9994,-2.9994,-2.9994,-2.9994,-2.9994,-3.0087,-3.0336,-3.0563,-3.0967,-3.1681,-3.2157,-3.2509,-3.2716,-3.2727,-3.2727,-3.2727,-3.2727,-3.2727,-3.2727,-3.3388,-3.4803,-3.7073,-3.8267,-3.9141,-3.9697,-3.9697,-3.9697,-3.9697,-3.9697,-3.9697,-3.9697,-3.9697,-3.9697,-3.9697,-3.9697,-3.9697,-3.9697,-3.9697,-3.9697,-3.9697,-3.9697,-3.9697,-3.9697,-3.9697,-3.9697,-3.9697,-3.9697,-3.9697,-3.9697,-3.9697,-3.9697,-3.9697,-3.9697,-3.9697,-3.9697,-3.9697,-3.9697,-3.9697,-3.9697,-3.9697,-3.9697,-3.9697,-3.9697,-3.9697,-3.9697,-3.9697,-3.9697,-3.9697,-3.9697,-3.9697,-3.9697,-3.9697,-3.9697,-3.9697,-3.9697,-3.9697,-3.9697,-3.9697,-3.9961,-4.0694,-4.0946,-4.1619,-4.2983,-4.273,-4.2672,-4.2974,-4.2974,-4.2974,-4.2974,-4.2974,-4.2974,-4.2974,-4.2974,-4.2974,-4.2974,-4.2974,-4.2974,-4.2974,-4.2974,-4.2974,-4.2974,-4.2974,-4.2974,-4.2974,-4.2974,-4.2974,-4.2974,-4.2974,-4.2974,-4.3062,-2.9333,-2.9879,-2.9994,-2.9994,-2.9994,-2.9994,-2.9994,-2.9994,-2.9994,-2.9994,-2.9994,-2.9994,-2.9994,-3.0346,-3.077,-3.1236,-3.1681,-3.2157,-3.2696,-3.2727,-3.2727,-3.2727,-3.2727,-3.2727,-3.2727,-3.2841,-3.392,-3.5979,-3.7287,-3.8384,-3.9465,-3.9581,-3.9697,-3.9697,-3.9697,-3.9697,-3.9697,-3.9697,-3.9697,-3.9697,-3.9697,-3.9697,-3.9697,-3.9697,-3.9697,-3.9697,-3.9697,-3.9697,-3.9697,-3.9697,-3.9697,-3.9697,-3.9697,-3.9697,-3.9697,-3.9697,-3.9697,-3.9697,-3.9697,-3.9697,-3.9697,-3.9697,-3.9697,-3.9697,-3.9697,-3.9697,-3.9697,-3.9697,-3.9697,-3.9697,-3.9697,-3.9697,-3.9697,-3.9697,-3.9697,-3.9697,-3.9697,-3.9697,-3.9697,-3.9697,-3.9697,-3.9697,-3.9697,-3.9772,-4.0061,-4.0769,-4.1178,-4.189,-4.2962,-4.3045,-4.2974,-4.2974,-4.2974,-4.2974,-4.2974,-4.2974,-4.2974,-4.2974,-4.2974,-4.2974,-4.2974,-4.2974,-4.2974,-4.2974,-4.2974,-4.2974,-4.2974,-4.2974,-4.2974,-4.2974,-4.2974,-4.2974,-4.2974,-4.2974,-4.3024,-4.3187,-2.8232,-2.9333,-2.9994,-2.9994,-2.9994,-2.9994,-2.9994,-2.9994,-2.9994,-2.9994,-2.9994,-2.9994,-2.9994,-3.0056,-3.0294,-3.076,-3.1215,-3.1836,-3.2675,-3.2727,-3.2727,-3.2727,-3.2727,-3.2727,-3.2727,-3.3717,-3.4368,-3.4803,-3.6858,-3.795,-3.8161,-3.9245,-3.9697,-3.9697,-3.9697,-3.9697,-3.9697,-3.9697,-3.9697,-3.9697,-3.9697,-3.9697,-3.9697,-3.9697,-3.9697,-3.9697,-3.9697,-3.9697,-3.9697,-3.9697,-3.9697,-3.9697,-3.9697,-3.9697,-3.9697,-3.9697,-3.9697,-3.9697,-3.9697,-3.9697,-3.9697,-3.9697,-3.9697,-3.9697,-3.9697,-3.9697,-3.9697,-3.9697,-3.9697,-3.9697,-3.9697,-3.9697,-3.9697,-3.9697,-3.9697,-3.9697,-3.9697,-3.9697,-3.9697,-3.9697,-3.9697,-3.9697,-3.9697,-4.0111,-4.047,-4.0814,-4.1547,-4.2283,-4.2985,-4.2949,-4.2974,-4.2974,-4.2974,-4.2974,-4.2974,-4.2974,-4.2974,-4.2974,-4.2974,-4.2974,-4.2974,-4.2974,-4.2974,-4.2974,-4.2974,-4.2974,-4.2974,-4.2974,-4.2974,-4.2974,-4.2974,-4.2974,-4.2974,-4.2974,-4.3275,-4.3752,-2.8784,-2.9659,-2.9994,-2.9994,-2.9994,-2.9994,-2.9994,-2.9994,-2.9994,-2.9994,-2.9994,-2.9994,-2.9994,-2.9994,-3.018,-3.0646,-3.1112,-3.1661,-3.2313,-3.2592,-3.2727,-3.2727,-3.2727,-3.2727,-3.2727,-3.3931,-3.4803,-3.5443,-3.7073,-3.8267,-3.8921,-3.9478,-3.9697,-3.9697,-3.9697,-3.9697,-3.9697,-3.9697,-3.9697,-3.9697,-3.9697,-3.9697,-3.9697,-3.9697,-3.9697,-3.9697,-3.9697,-3.9697,-3.9697,-3.9697,-3.9697,-3.9697,-3.9697,-3.9697,-3.9697,-3.9697,-3.9697,-3.9697,-3.9697,-3.9697,-3.9697,-3.9697,-3.9697,-3.9697,-3.9697,-3.9697,-3.9697,-3.9697,-3.9697,-3.9697,-3.9697,-3.9697,-3.9697,-3.9697,-3.9697,-3.9697,-3.9697,-3.9697,-3.9697,-3.9697,-3.9697,-3.9697,-3.9697,-4.0199,-4.0621,-4.0989,-4.1806,-4.2396,-4.2949,-4.2974,-4.2974,-4.2974,-4.2974,-4.2974,-4.2974,-4.2974,-4.2974,-4.2974,-4.2974,-4.2974,-4.2974,-4.2974,-4.2974,-4.2974,-4.2974,-4.2974,-4.2974,-4.2974,-4.2974,-4.2974,-4.2974,-4.2974,-4.3011,-4.3313,-4.3576,-4.3928,-2.9217,-2.9774,-2.9994,-2.9994,-2.9994,-2.9994,-2.9994,-2.9994,-2.9994,-2.9994,-2.9994,-2.9994,-2.9994,-2.9994,-3.0139,-3.0491,-3.105,-3.1526,-3.1868,-3.2416,-3.2727,-3.2727,-3.2727,-3.2727,-3.2727,-3.3931,-3.4902,-3.5761,-3.718,-3.8384,-3.9258,-3.9581,-3.9697,-3.9697,-3.9697,-3.9697,-3.9697,-3.9697,-3.9697,-3.9697,-3.9697,-3.9697,-3.9697,-3.9697,-3.9697,-3.9697,-3.9697,-3.9697,-3.9697,-3.9697,-3.9697,-3.9697,-3.9697,-3.9697,-3.9697,-3.9697,-3.9697,-3.9697,-3.9697,-3.9697,-3.9697,-3.9697,-3.9697,-3.9697,-3.9697,-3.9697,-3.9697,-3.9697,-3.9697,-3.9697,-3.9697,-3.9697,-3.9697,-3.9697,-3.9697,-3.9697,-3.9697,-3.9697,-3.9697,-3.9697,-3.9697,-3.9747,-3.9873,-4.0388,-4.0927,-4.1347,-4.202,-4.2534,-4.2949,-4.2974,-4.2974,-4.2974,-4.2974,-4.2974,-4.2974,-4.2974,-4.2974,-4.2974,-4.2974,-4.2974,-4.2974,-4.2974,-4.2974,-4.2974,-4.2974,-4.2974,-4.2974,-4.2974,-4.2974,-4.2974,-4.2974,-4.2974,-4.3037,-4.3589,-4.3878,-4.4129,-2.8116,-2.9217,-2.9994,-2.9994,-2.9994,-2.9994,-2.9994,-2.9994,-2.9994,-2.9994,-2.9994,-2.9994,-2.9994,-2.9994,-3.0005,-3.0046,-3.0864,-3.1391,-3.1422,-3.224,-3.2727,-3.2727,-3.2727,-3.2727,-3.2727,-3.3931,-3.4591,-3.458,-3.6858,-3.795,-3.8056,-3.9154,-3.9697,-3.9697,-3.9697,-3.9697,-3.9697,-3.9697,-3.9697,-3.9697,-3.9697,-3.9697,-3.9697,-3.9697,-3.9697,-3.9697,-3.9697,-3.9697,-3.9697,-3.9697,-3.9697,-3.9697,-3.9697,-3.9697,-3.9697,-3.9697,-3.9697,-3.9697,-3.9697,-3.9697,-3.9697,-3.9697,-3.9697,-3.9697,-3.9697,-3.9697,-3.9697,-3.9697,-3.9697,-3.9697,-3.9697,-3.9697,-3.9697,-3.9697,-3.9697,-3.9697,-3.9697,-3.9697,-3.9697,-3.9697,-3.9697,-3.9898,-4.0413,-4.0953,-4.1372,-4.1835,-4.2559,-4.2936,-4.2974,-4.2974,-4.2974,-4.2974,-4.2974,-4.2974,-4.2974,-4.2974,-4.2974,-4.2974,-4.2974,-4.2974,-4.2974,-4.2974,-4.2974,-4.2974,-4.2974,-4.2974,-4.2974,-4.2974,-4.2974,-4.2974,-4.2974,-4.2974,-4.3037,-4.3589,-4.4116,-4.4656,-2.8996,-2.9669,-2.9994,-2.9994,-2.9994,-2.9994,-2.9994,-2.9994,-2.9994,-2.9994,-2.9994,-2.9994,-2.9994,-2.9994,-2.9994,-2.9994,-3.0584,-3.1071,-3.136,-3.1961,-3.2426,-3.2716,-3.2727,-3.3058,-3.3829,-3.5013,-3.5881,-3.6642,-3.8279,-3.9037,-3.9037,-3.9478,-3.9697,-3.9697,-3.9697,-3.9697,-3.9697,-3.9697,-3.9697,-3.9697,-3.9697,-3.9697,-3.9697,-3.9697,-3.9697,-3.9697,-3.9697,-3.9697,-3.9697,-3.9697,-3.9697,-3.9697,-3.9697,-3.9697,-3.9697,-3.9697,-3.9697,-3.9697,-3.9697,-3.9697,-3.9697,-3.9697,-3.9697,-3.9697,-3.9697,-3.9697,-3.9697,-3.9697,-3.9697,-3.9697,-3.9697,-3.9697,-3.9697,-3.9697,-3.9697,-3.9697,-3.9697,-3.9697,-3.9697,-3.9697,-3.9697,-3.991,-4.0463,-4.1015,-4.1555,-4.207,-4.2647,-4.2974,-4.2974,-4.2974,-4.2974,-4.2974,-4.2974,-4.2974,-4.2974,-4.2974,-4.2974,-4.2974,-4.2974,-4.2974,-4.2974,-4.2974,-4.2974,-4.2974,-4.2974,-4.2974,-4.2974,-4.2974,-4.2974,-4.2974,-4.2974,-4.3187,-4.3551,-4.4104,-4.4669,-4.5246,-2.9112,-2.9774,-2.9994,-2.9994,-2.9994,-2.9994,-2.9994,-2.9994,-2.9994,-2.9994,-2.9994,-2.9994,-2.9994,-2.9994,-2.9994,-2.9994,-3.0419,-3.0884,-3.135,-3.193,-3.2395,-3.2716,-3.2727,-3.3275,-3.448,-3.5663,-3.6738,-3.795,-3.9141,-3.9697,-3.9697,-3.9697,-3.9697,-3.9697,-3.9697,-3.9697,-3.9697,-3.9697,-3.9697,-3.9697,-3.9697,-3.9697,-3.9697,-3.9697,-3.9697,-3.9697,-3.9697,-3.9697,-3.9697,-3.9697,-3.9697,-3.9697,-3.9697,-3.9697,-3.9697,-3.9697,-3.9697,-3.9697,-3.9697,-3.9697,-3.9697,-3.9697,-3.9697,-3.9697,-3.9697,-3.9697,-3.9697,-3.9697,-3.9697,-3.9697,-3.9697,-3.9697,-3.9697,-3.9697,-3.9697,-3.9697,-3.9697,-3.9697,-3.9697,-3.9697,-3.9848,-4.0174,-4.0727,-4.1279,-4.1819,-4.2371,-4.276,-4.2974,-4.2974,-4.2974,-4.2974,-4.2974,-4.2974,-4.2974,-4.2974,-4.2974,-4.2974,-4.2974,-4.2974,-4.2974,-4.2974,-4.2974,-4.2974,-4.2974,-4.2974,-4.2974,-4.2974,-4.2974,-4.2974,-4.2974,-4.2974,-4.3313,-4.3865,-4.4418,-4.4982,-4.5573,-2.8223,-2.9217,-2.9994,-2.9994,-2.9994,-2.9994,-2.9994,-2.9994,-2.9994,-2.9994,-2.9994,-2.9994,-2.9994,-2.9994,-2.9994,-2.9994,-3.0419,-3.0884,-3.135,-3.223,-3.2727,-3.2727,-3.2737,-3.3275,-3.448,-3.5651,-3.6738,-3.7938,-3.9141,-3.9697,-3.9697,-3.9697,-3.9697,-3.9697,-3.9697,-3.9697,-3.9697,-3.9697,-3.9697,-3.9697,-3.9697,-3.9697,-3.9697,-3.9697,-3.9697,-3.9697,-3.9697,-3.9697,-3.9697,-3.9697,-3.9697,-3.9697,-3.9697,-3.9697,-3.9697,-3.9697,-3.9697,-3.9697,-3.9697,-3.9697,-3.9697,-3.9697,-3.9697,-3.9697,-3.9697,-3.9697,-3.9697,-3.9697,-3.9697,-3.9697,-3.9697,-3.9697,-3.9697,-3.9697,-3.9697,-3.9697,-3.9697,-3.9697,-3.9697,-3.9697,-4.0174,-4.0727,-4.1279,-4.1844,-4.2384,-4.2936,-4.2974,-4.2974,-4.2974,-4.2974,-4.2974,-4.2974,-4.2974,-4.2974,-4.2974,-4.2974,-4.2974,-4.2974,-4.2974,-4.2974,-4.2974,-4.2974,-4.2974,-4.2974,-4.2974,-4.2974,-4.2974,-4.2974,-4.2974,-4.2974,-4.2986,-4.3325,-4.3878,-4.443,-4.4995,-4.5573,-2.9272,-2.9774,-2.9994,-2.9994,-2.9994,-2.9994,-2.9994,-2.9994,-2.9994,-2.9994,-2.9994,-2.9994,-2.9994,-2.9994,-2.9994,-2.9994,-3.0118,-3.0532,-3.1329,-3.193,-3.2713,-3.392,-3.3161,-3.3593,-3.5651,-3.6088,-3.7168,-3.9141,-3.9478,-3.9697,-3.9697,-3.9697,-3.9697,-3.9697,-3.9697,-3.9697,-3.9697,-3.9697,-3.9697,-3.9697,-3.9697,-3.9697,-3.9697,-3.9697,-3.9697,-3.9697,-3.9697,-3.9697,-3.9697,-3.9697,-3.9697,-3.9697,-3.9697,-3.9697,-3.9697,-3.9697,-3.9697,-3.9697,-3.9697,-3.9697,-3.9697,-3.9697,-3.9697,-3.9697,-3.9697,-3.9697,-3.9697,-3.9697,-3.9697,-3.9697,-3.9697,-3.9697,-3.9697,-3.9697,-3.9697,-3.9697,-3.9697,-3.9697,-3.9697,-3.9697,-4.0174,-4.0727,-4.1279,-4.1844,-4.2384,-4.2936,-4.2974,-4.2974,-4.2974,-4.2974,-4.2974,-4.2974,-4.2974,-4.2974,-4.2974,-4.2974,-4.2974,-4.2974,-4.2974,-4.2974,-4.2974,-4.2974,-4.2974,-4.2974,-4.2974,-4.2974,-4.2974,-4.2974,-4.2974,-4.3024,-4.3401,-4.389,-4.4443,-4.502,-4.5585,-4.6087,-2.8914,-2.9536,-2.9994,-2.9994,-2.9994,-2.9994,-2.9994,-2.9994,-2.9994,-2.9994,-2.9994,-2.9994,-2.9994,-2.9994,-2.9994,-2.9994,-3.0325,-3.0781,-3.134,-3.1961,-3.298,-3.4469,-3.3818,-3.4469,-3.6846,-3.6414,-3.7394,-3.9697,-3.9697,-3.9697,-3.9697,-3.9697,-3.9697,-3.9697,-3.9697,-3.9697,-3.9697,-3.9697,-3.9697,-3.9697,-3.9697,-3.9697,-3.9697,-3.9697,-3.9697,-3.9697,-3.9697,-3.9697,-3.9697,-3.9697,-3.9697,-3.9697,-3.9697,-3.9697,-3.9697,-3.9697,-3.9697,-3.9697,-3.9697,-3.9697,-3.9697,-3.9697,-3.9697,-3.9697,-3.9697,-3.9697,-3.9697,-3.9697,-3.9697,-3.9697,-3.9697,-3.9697,-3.9697,-3.9697,-3.9697,-3.9697,-3.9697,-3.9697,-3.9772,-3.9986,-4.0513,-4.1065,-4.1605,-4.2158,-4.2622,-4.2949,-4.2974,-4.2974,-4.2974,-4.2974,-4.2974,-4.2974,-4.2974,-4.2974,-4.2974,-4.2974,-4.2974,-4.2974,-4.2974,-4.2974,-4.2974,-4.2974,-4.2974,-4.2974,-4.2974,-4.2974,-4.2974,-4.2974,-4.2974,-4.3037,-4.3589,-4.4141,-4.4694,-4.5271,-4.5836,-4.6313,-2.791,-2.8894,-2.9942,-2.9984,-2.9994,-2.9994,-2.9994,-2.9994,-2.9994,-2.9994,-2.9994,-2.9994,-2.9994,-2.9994,-2.9994,-2.9994,-3.0801,-3.135,-3.1433,-3.2321,-3.3346,-3.458,-3.4692,-3.5674,-3.8056,-3.6954,-3.7501,-3.9697,-3.9697,-3.9697,-3.9697,-3.9697,-3.9697,-3.9697,-3.9697,-3.9697,-3.9697,-3.9697,-3.9697,-3.9697,-3.9697,-3.9697,-3.9697,-3.9697,-3.9697,-3.9697,-3.9697,-3.9697,-3.9697,-3.9697,-3.9697,-3.9697,-3.9697,-3.9697,-3.9697,-3.9697,-3.9697,-3.9697,-3.9697,-3.9697,-3.9697,-3.9697,-3.9697,-3.9697,-3.9697,-3.9697,-3.9697,-3.9697,-3.9697,-3.9697,-3.9697,-3.9697,-3.9697,-3.9697,-3.9697,-3.9697,-3.9697,-3.9697,-3.9898,-4.045,-4.1003,-4.1555,-4.2095,-4.266,-4.2974,-4.2974,-4.2974,-4.2974,-4.2974,-4.2974,-4.2974,-4.2974,-4.2974,-4.2974,-4.2974,-4.2974,-4.2974,-4.2974,-4.2974,-4.2974,-4.2974,-4.2974,-4.2974,-4.2974,-4.2974,-4.2974,-4.2974,-4.2974,-4.2974,-4.3037,-4.3639,-4.4179,-4.4706,-4.5334,-4.5886,-4.6313,-2.884,-2.9168,-2.957,-2.9932,-2.9994,-2.9994,-2.9994,-2.9994,-2.9994,-2.9994,-2.9994,-2.9994,-2.9994,-2.9994,-2.9994,-2.9994,-3.0512,-3.1143,-3.1857,-3.2934,-3.4285,-3.5738,-3.587,-3.6965,-3.9258,-3.8161,-3.8267,-3.9697,-3.9697,-3.9697,-3.9697,-3.9697,-3.9697,-3.9697,-3.9697,-3.9697,-3.9697,-3.9697,-3.9697,-3.9697,-3.9697,-3.9697,-3.9697,-3.9697,-3.9697,-3.9697,-3.9697,-3.9697,-3.9697,-3.9697,-3.9697,-3.9697,-3.9697,-3.9697,-3.9697,-3.9697,-3.9697,-3.9697,-3.9697,-3.9697,-3.9697,-3.9697,-3.9697,-3.9697,-3.9697,-3.9697,-3.9697,-3.9697,-3.9697,-3.9697,-3.9697,-3.9697,-3.9697,-3.9697,-3.9697,-3.9697,-3.9697,-3.9697,-3.9898,-4.045,-4.1003,-4.1555,-4.2095,-4.266,-4.2974,-4.2974,-4.2974,-4.2974,-4.2974,-4.2974,-4.2974,-4.2974,-4.2974,-4.2974,-4.2974,-4.2974,-4.2974,-4.2974,-4.2974,-4.2974,-4.2974,-4.2974,-4.2974,-4.2974,-4.2974,-4.2974,-4.2974,-4.2974,-4.2974,-4.3074,-4.4066,-4.4518,-4.4744,-4.5761,-4.6213,-4.6313,-2.8556,-2.9001,-2.9384,-2.9622,-2.9849,-2.9994,-2.9994,-2.9994,-2.9994,-2.9994,-2.9994,-2.9994,-2.9994,-2.9994,-3.0087,-3.0305,-3.1453,-3.238,-3.287,-3.4175,-3.5597,-3.6942,-3.6954,-3.7832,-3.9697,-3.9037,-3.9037,-3.9697,-3.9697,-3.9697,-3.9697,-3.9697,-3.9697,-3.9697,-3.9697,-3.9697,-3.9697,-3.9697,-3.9697,-3.9697,-3.9697,-3.9697,-3.9697,-3.9697,-3.9697,-3.9697,-3.9697,-3.9697,-3.9697,-3.9697,-3.9697,-3.9697,-3.9697,-3.9697,-3.9697,-3.9697,-3.9697,-3.9697,-3.9697,-3.9697,-3.9697,-3.9697,-3.9697,-3.9697,-3.9697,-3.9697,-3.9697,-3.9697,-3.9697,-3.9697,-3.9697,-3.9697,-3.9697,-3.9697,-3.9697,-3.9697,-3.9697,-3.9697,-3.9998,-4.0814,-4.0927,-4.1166,-4.1718,-4.2032,-4.2195,-4.2195,-4.2195,-4.2195,-4.2195,-4.2446,-4.2585,-4.2585,-4.2836,-4.2974,-4.2974,-4.2974,-4.2974,-4.2974,-4.2974,-4.2974,-4.2974,-4.2974,-4.2974,-4.2974,-4.2974,-4.2974,-4.2974,-4.2974,-4.3137,-4.3451,-4.4292,-4.4794,-4.5133,-4.5999,-4.6313,-4.6313,-2.7914,-2.8607,-2.9208,-2.929,-2.9684,-2.9994,-2.9994,-2.9994,-2.9994,-2.9994,-2.9994,-2.9994,-2.9994,-3.0067,-3.0294,-3.076,-3.2608,-3.3781,-3.3868,-3.5534,-3.6954,-3.7832,-3.8056,-3.8712,-3.9697,-3.9697,-3.9697,-3.9697,-3.9697,-3.9697,-3.9697,-3.9697,-3.9697,-3.9697,-3.9697,-3.9697,-3.9697,-3.9697,-3.9697,-3.9697,-3.9697,-3.9697,-3.9697,-3.9697,-3.9697,-3.9697,-3.9697,-3.9697,-3.9697,-3.9697,-3.9697,-3.9697,-3.9697,-3.9697,-3.9697,-3.9697,-3.9697,-3.9697,-3.9697,-3.9697,-3.9697,-3.9697,-3.9697,-3.9697,-3.9697,-3.9697,-3.9697,-3.9697,-3.9697,-3.9697,-3.9697,-3.9697,-3.9697,-3.9697,-3.9697,-3.9697,-3.9697,-3.9697,-4.0074,-4.1078,-4.0877,-4.084,-4.1304,-4.1342,-4.1342,-4.1342,-4.1342,-4.1342,-4.1342,-4.1769,-4.2057,-4.2158,-4.2597,-4.2886,-4.2974,-4.2974,-4.2974,-4.2974,-4.2974,-4.2974,-4.2974,-4.2974,-4.2974,-4.2974,-4.2974,-4.2974,-4.2974,-4.2974,-4.3313,-4.3853,-4.4405,-4.4982,-4.5547,-4.61,-4.6313,-4.6313,-2.7841,-2.8349,-2.8835,-2.9239,-2.9684,-2.9994,-2.9994,-2.9994,-2.9994,-2.9994,-2.9994,-2.9994,-2.9994,-3.0356,-3.0781,-3.1247,-3.2801,-3.3923,-3.4349,-3.6499,-3.7725,-3.7938,-3.8933,-3.9581,-3.9697,-3.9697,-3.9697,-3.9697,-3.9697,-3.9697,-3.9697,-3.9697,-3.9697,-3.9697,-3.9697,-3.9697,-3.9697,-3.9697,-3.9697,-3.9697,-3.9697,-3.9697,-3.9697,-3.9697,-3.9697,-3.9697,-3.9697,-3.9697,-3.9697,-3.9697,-3.9697,-3.9697,-3.9697,-3.9697,-3.9697,-3.9697,-3.9697,-3.9697,-3.9697,-3.9697,-3.9697,-3.9697,-3.9697,-3.9697,-3.9697,-3.9697,-3.9697,-3.9697,-3.9697,-3.9697,-3.9697,-3.9697,-3.9697,-3.9697,-3.9697,-3.9697,-3.9697,-3.9697,-3.9923,-4.0551,-4.0978,-4.1254,-4.1329,-4.1342,-4.1342,-4.1342,-4.1342,-4.1342,-4.1342,-4.1417,-4.1668,-4.2133,-4.2233,-4.2497,-4.2974,-4.2974,-4.2974,-4.2974,-4.2974,-4.2974,-4.2974,-4.2974,-4.2974,-4.2974,-4.2974,-4.2974,-4.2974,-4.2974,-4.3313,-4.3853,-4.4405,-4.4982,-4.5547,-4.61,-4.6313,-4.6313,-2.751,-2.7914,-2.838,-2.8835,-2.9301,-2.9694,-2.9953,-2.9994,-2.9994,-2.9994,-2.9994,-2.9994,-2.9994,-3.0636,-3.1153,-3.136,-3.3715,-3.5207,-3.5421,-3.7619,-3.8921,-3.8921,-3.9374,-3.9697,-3.9697,-3.9697,-3.9697,-3.9697,-3.9697,-3.9697,-3.9697,-3.9697,-3.9697,-3.9697,-3.9697,-3.9697,-3.9697,-3.9697,-3.9697,-3.9697,-3.9697,-3.9697,-3.9697,-3.9697,-3.9697,-3.9697,-3.9697,-3.9697,-3.9697,-3.9697,-3.9697,-3.9697,-3.9697,-3.9697,-3.9697,-3.9697,-3.9697,-3.9697,-3.9697,-3.9697,-3.9697,-3.9697,-3.9697,-3.9697,-3.9697,-3.9697,-3.9697,-3.9697,-3.9697,-3.9697,-3.9697,-3.9697,-3.9697,-3.9697,-3.9697,-3.9697,-3.9697,-3.9697,-3.9785,-4.0023,-4.0538,-4.0764,-4.045,-4.0425,-4.0425,-4.0425,-4.0425,-4.0425,-4.0425,-4.0714,-4.099,-4.1229,-4.1831,-4.2271,-4.2522,-4.2823,-4.2974,-4.2974,-4.2974,-4.2974,-4.2974,-4.2974,-4.2974,-4.2974,-4.2974,-4.2974,-4.2974,-4.2974,-4.3489,-4.4279,-4.4531,-4.5171,-4.5974,-4.6225,-4.6313,-4.6313]},{"header":{"parameterUnit":"m.s-1","parameterCategory":1,"la1":30.6,"la2":28.766,"lo1":-90.7593,"lo2":-88.6598,"dy":0.0162,"dx":0.0183,"nx":116,"ny":114,"refTime":"2024-05-10T06:00:00:Z","depth":0,"parameterNumber":3,"parameterNumberName":"V-component_of_WINDS"},"data":[0.0,0.0,0.0,0.0,0.0,0.0,0.0,0.0,0.0,0.0,0.0,0.0,0.0,0.0,0.0,0.0,0.0,0.0,0.0,0.0,0.0,0.0,0.0,0.0,0.0,0.0,0.0,0.0,0.0,0.0,0.0,0.0,0.0,0.0,0.0,0.0,0.0,0.0,0.0,0.0,0.0,0.0,0.0,0.0,0.0,0.0,0.0,0.0,0.0,0.0,0.0,0.0,0.0,0.0,0.0,0.0,0.0,0.0,0.0,0.0,0.0,0.0,0.0,0.0,0.0,0.0,0.0,0.0,0.0,0.0,0.0,0.0,0.0,0.0,0.0,0.0,0.0,0.0,0.0,0.0,0.0,0.0,0.0,0.0,0.0,0.0,0.0,0.0,0.0,0.0,0.0,0.0,0.0,0.0,0.0,0.0,0.0,0.0,0.0,0.0,0.0,0.0,0.0,0.0,0.0,0.0,0.0,0.0,0.0,0.0,0.0,0.0,0.0,0.0,0.0,0.0,0.0,0.0,0.0,0.0,0.0,0.0,0.0,0.0,0.0,0.0,0.0,0.0,0.0,0.0,0.0,0.0,0.0,0.0,0.0,0.0,0.0,0.0,0.0,0.0,0.0,0.0,0.0,0.0,0.0,0.0,0.0,0.0,0.0,0.0,0.0,0.0,0.0,0.0,0.0,0.0,0.0,0.0,0.0,0.0,0.0,0.0,0.0,0.0,0.0,0.0,0.0,0.0,0.0,0.0,0.0,0.0,0.0,0.0,0.0,0.0,0.0,0.0,0.0,0.0,0.0,0.0,0.0,0.0,0.0,0.0,0.0,0.0,0.0,0.0,0.0,0.0,0.0,0.0,0.0,0.0,0.0,0.0,0.0,0.0,0.0,0.0,0.0,0.0,0.0,0.0,0.0,0.0,0.0,0.0,0.0,0.0,0.0,0.0,0.0,0.0,0.0,0.0,0.0,0.0,0.0,0.0,0.0,0.0,0.0,0.0,0.0,0.0,0.0,0.0,0.0,0.0,0.0,0.0,0.0,0.0,0.0,0.0,0.0,0.0,0.0,0.0,0.0,0.0,0.0,0.0,0.0,0.0,0.0,0.0,0.0,0.0,0.0,0.0,0.0,0.0,0.0,0.0,0.0,0.0,0.0,0.0,0.0,0.0,0.0,0.0,0.0,0.0,0.0,0.0,0.0,0.0,0.0,0.0,0.0,0.0,0.0,0.0,0.0,0.0,0.0,0.0,0.0,0.0,0.0,0.0,0.0,0.0,0.0,0.0,0.0,0.0,0.0,0.0,0.0,0.0,0.0,0.0,0.0,0.0,0.0,0.0,0.0,0.0,0.0,0.0,0.0,0.0,0.0,0.0,0.0,0.0,0.0,0.0,0.0,0.0,0.0,0.0,0.0,0.0,0.0,0.0,0.0,0.0,0.0,0.0,0.0,0.0,0.0,0.0,0.0,0.0,0.0,0.0,0.0,0.0,0.0,0.0,0.0,0.0,0.0,0.0,0.0,0.0,0.0,0.0,0.0,0.0,0.0,0.0,0.0,0.0,0.0,0.0,0.0,0.0,0.0,0.0,0.0,0.0,0.0,0.0,0.0,0.0,0.0,0.0,0.0,0.0,0.0,0.0,0.0,0.0,0.0,0.0,0.0,0.0,0.0,0.0,0.0,0.0,0.0,0.0,0.0,0.0,0.0,0.0,0.0,0.0,0.0,0.0,0.0,0.0,0.0,0.0,0.0,0.0,0.0,0.0,0.0,0.0,0.0,0.0,0.0,0.0,0.0,0.0,0.0,0.0,0.0,0.0,0.0,0.0,0.0,0.0,0.0,0.0,0.0,0.0,0.0,0.0,0.0,0.0,0.0,0.0,0.0,0.0,0.0,0.0,0.0,0.0,0.0,0.0,0.0,0.0,0.0,0.0,0.0,0.0,0.0,0.0,0.0,0.0,0.0,0.0,0.0,0.0,0.0,0.0,0.0,0.0,0.0,0.0,0.0,0.0,0.0,0.0,0.0,0.0,0.0,0.0,0.0,0.0,0.0,0.0,0.0,0.0,0.0,0.0,0.0,0.0,0.0,0.0,0.0,0.0,0.0,0.0,0.0,0.0,0.0,0.0,0.0,0.0,0.0,0.0,0.0,0.0,0.0,0.0,0.0,0.0,0.0,0.0,0.0,0.0,0.0,0.0,0.0,0.0,0.0,0.0,0.0,0.0,0.0,0.0,0.0,0.0,0.0,0.0,0.0,0.0,0.0,0.0,0.0,0.0,0.0,0.0,0.0,0.0,0.0,0.0,0.0,0.0,0.0,0.0,0.0,0.0,0.0,0.0,0.0,0.0,0.0,0.0,0.0,0.0,0.0,0.0,0.0,0.0,0.0,0.0,0.0,0.0,0.0,0.0,0.0,0.0,0.0,0.0,0.0,0.0,0.0,0.0,0.0,0.0,0.0,0.0,0.0,0.0,0.0,0.0,0.0,0.0,0.0,0.0,0.0,0.0,0.0,0.0,0.0,0.0,0.0,0.0,0.0,0.0,0.0,0.0,0.0,0.0,0.0,0.0,0.0,0.0,0.0,0.0,0.0,0.0,0.0,0.0,0.0,0.0,0.0,0.0,0.0,0.0,0.0,0.0,0.0,0.0,0.0,0.0,0.0,0.0,0.0,0.0,0.0,0.0,0.0,0.0,0.0,0.0,0.0,0.0,0.0,0.0,0.0,0.0,0.0,0.0,0.0,0.0,0.0,0.0,0.0,0.0,0.0,0.0,0.0,0.0,0.0,0.0,0.0,0.0,0.0,0.0,0.0,0.0,0.0,0.0,0.0,0.0,0.0,0.0,0.0,0.0,0.0,0.0,0.0,0.0,0.0,0.0,0.0,0.0,0.0,0.0,0.0,0.0,0.0,0.0,0.0,0.0,0.0,0.0,0.0,0.0,0.0,0.0,0.0,0.0,0.0,0.0,0.0,0.0,0.0,0.0,0.0,0.0,0.0,0.0,0.0,0.0,0.0,0.0,0.0,0.0,0.0,0.0,0.0,0.0,0.0,0.0,0.0,0.0,0.0,0.0,0.0,0.0,0.0,0.0,0.0,0.0,0.0,0.0,0.0,0.0,0.0,0.0,0.0,0.0,0.0,0.0,0.0,0.0,0.0,0.0,0.0,0.0,0.0,0.0,0.0,0.0,0.0,0.0,0.0,0.0,0.0,0.0,0.0,0.0,0.0,0.0,0.0,0.0,0.0,0.0,0.0,0.0,0.0,0.0,0.0,0.0,0.0,0.0,0.0,0.0,0.0,0.0,0.0,0.0,0.0,0.0,0.0,0.0,0.0,0.0,0.0,0.0,0.0,0.0,0.0,0.0,0.0,0.0,0.0,0.0,0.0,0.0,0.0,0.0,0.0,0.0,0.0,0.0,0.0,0.0,0.0,0.0,0.0,0.0,0.0,0.0,0.0,0.0,0.0,0.0,0.0,0.0,0.0,0.0,0.0,0.0,0.0,0.0,0.0,0.0,0.0,0.0,0.0,0.0,0.0,0.0,0.0,0.0,0.0,0.0,0.0,0.0,0.0,0.0,0.0,0.0,0.0,0.0,0.0,0.0,0.0,0.0,0.0,0.0,0.0,0.0,0.0,0.0,0.0,0.0,0.0,0.0,0.0,0.0,0.0,0.0,0.0,0.0,0.0,0.0,0.0,0.0,0.0,0.0,0.0,0.0,0.0,0.0,0.0,0.0,0.0,0.0,0.0,0.0,0.0,0.0,0.0,0.0,0.0,0.0,0.0,0.0,0.0,0.0,0.0,0.0,0.0,0.0,0.0,0.0,0.0,0.0,0.0,0.0,0.0,0.0,0.0,0.0,0.0,0.0,0.0,0.0,0.0,0.0,0.0,0.0,0.0,0.0,0.0,0.0,0.0,0.0,0.0,0.0,0.0,0.0,0.0,0.0,0.0,0.0,0.0,0.0,0.0,0.0,0.0,0.0,0.0,0.0,0.0,0.0,0.0,0.0,0.0,0.0,0.0,0.0,0.0,0.0,0.0,0.0,0.0,0.0,0.0,0.0,0.0,0.0,0.0,0.0,0.0,0.0,0.0,0.0,0.0,0.0,0.0,0.0,0.0,0.0,0.0,0.0,0.0,0.0,0.0,0.0,0.0,0.0,0.0,0.0,0.0,0.0,0.0,0.0,0.0,0.0,0.0,0.0,0.0,0.0,0.0,0.0,0.0,0.0,0.0,0.0,0.0,0.0,0.0,0.0,0.0,0.0,0.0,0.0,0.0,0.0,0.0,0.0,0.0,0.0,0.0,0.0,0.0,0.0,0.0,0.0,0.0,0.0,0.0,0.0,0.0,0.0,0.0,0.0,0.0,0.0,0.0,0.0,0.0,0.0,0.0,0.0,0.0,0.0,0.0,0.0,0.0,0.0,0.0,0.0,0.0,0.0,0.0,0.0,0.0,0.0,0.0,0.0,0.0,0.0,0.0,0.0,0.0,0.0,0.0,0.0,0.0,0.0,0.0,0.0,0.0,0.0,0.0,0.0,0.0,0.0,0.0,0.0,0.0,0.0,0.0,0.0,0.0,0.0,0.0,0.0,0.0,0.0,0.0,0.0,0.0,0.0,0.0,0.0,0.0,0.0,0.0,0.0,0.0,0.0,0.0,0.0,0.0,0.0,0.0,0.0,0.0,0.0,0.0,0.0,0.0,0.0,0.0,0.0,0.0,0.0,0.0,0.0,0.0,0.0,0.0,0.0,0.0,0.0,0.0,0.0,0.0,0.0,0.0,0.0,0.0,0.0,0.0,0.0,0.0,0.0,0.0,0.0,0.0,0.0,0.0,0.0,0.0,0.0,0.0,0.0,0.0,0.0,0.0,0.0,0.0,0.0,0.0,0.0,0.0,0.0,0.0,0.0,0.0,0.0,0.0,0.0,0.0,0.0,0.0,0.0,0.0,0.0,0.0,0.0,0.0,0.0,0.0,0.0,0.0,0.0,0.0,0.0,0.0,0.0,0.0,0.0,0.0,0.0,0.0,0.0,0.0,0.0,0.0,0.0,0.0,0.0,0.0,0.0,0.0,0.0,0.0,0.0,0.0,0.0,0.0,0.0,0.0,0.0,0.0,0.0,0.0,0.0,0.0,0.0,0.0,0.0,0.0,0.0,0.0,0.0,0.0,0.0,0.0,0.0,0.0,0.0,0.0,0.0,0.0,0.0,0.0,0.0,0.0,0.0,0.0,0.0,0.0,0.0,0.0,0.0,0.0,0.0,0.0,0.0,0.0,0.0,0.0,0.0,0.0,0.0,0.0,0.0,0.0,0.0,0.0,0.0,0.0,0.0,0.0,0.0,0.0,0.0,0.0,0.0,0.0,0.0,0.0,0.0,0.0,0.0,0.0,0.0,0.0,0.0,0.0,0.0,0.0,0.0,0.0,0.0,0.0,0.0,0.0,0.0,0.0,0.0,0.0,0.0,0.0,0.0,0.0,0.0,0.0,0.0,0.0,0.0,0.0,0.0,0.0,0.0,0.0,0.0,0.0,0.0,0.0,0.0,0.0,0.0,0.0,0.0,0.0,0.0,0.0,0.0,0.0,0.0,0.0,0.0,0.0,0.0,0.0,0.0,0.0,0.0,0.0,0.0,0.0,0.0,0.0,0.0,0.0,0.0,0.0,0.0,0.0,0.0,0.0,0.0,0.0,0.0,0.0,0.0,0.0,0.0,0.0,0.0,0.0,0.0,0.0,0.0,0.0,0.0,0.0,0.0,0.0,0.0,0.0,0.0,0.0,0.0,0.0,0.0,0.0,0.0,0.0,0.0,0.0,0.0,0.0,0.0,0.0,0.0,0.0,0.0,0.0,0.0,0.0,0.0,0.0,0.0,0.0,0.0,0.0,0.0,0.0,0.0,0.0,0.0,0.0,0.0,0.0,0.0,0.0,0.0,0.0,0.0,0.0,0.0,0.0,0.0,0.0,0.0,0.0,0.0,0.0,0.0,0.0,0.0,0.0,0.0,0.0,0.0,0.0,0.0,0.0,0.0,0.0,0.0,0.0,0.0,0.0,0.0,0.0,0.0,0.0,0.0,0.0,0.0,0.0,0.0,0.0,0.0,-3.9246,-3.8653,0.0,0.0,0.0,0.0,0.0,0.0,0.0,0.0,0.0,0.0,0.0,0.0,0.0,0.0,0.0,0.0,0.0,0.0,0.0,0.0,0.0,0.0,0.0,-4.6306,-4.6305,-4.6308,-4.6308,-4.6269,-4.6191,0.0,0.0,0.0,0.0,0.0,-4.5896,-4.5844,-4.5692,-4.5526,-4.551,-4.5264,-4.4825,-4.4825,-4.4751,-4.4599,0.0,0.0,0.0,0.0,0.0,0.0,0.0,0.0,0.0,0.0,0.0,0.0,0.0,0.0,0.0,0.0,0.0,0.0,0.0,0.0,0.0,0.0,0.0,0.0,0.0,0.0,0.0,0.0,0.0,0.0,0.0,0.0,0.0,0.0,0.0,0.0,0.0,0.0,0.0,0.0,0.0,0.0,0.0,0.0,0.0,0.0,0.0,0.0,0.0,0.0,0.0,0.0,0.0,0.0,0.0,0.0,0.0,0.0,0.0,0.0,0.0,0.0,0.0,0.0,0.0,0.0,0.0,0.0,0.0,0.0,-3.9816,-3.9452,0.0,0.0,0.0,0.0,0.0,0.0,0.0,0.0,0.0,0.0,0.0,0.0,0.0,0.0,0.0,0.0,0.0,0.0,0.0,0.0,0.0,-4.629,-4.6307,-4.6295,-4.6293,-4.6287,-4.6289,-4.6245,-4.6178,-4.6115,0.0,0.0,-4.5858,-4.58,-4.58,-4.5791,-4.5629,-4.5304,-4.5184,-4.4896,-4.4402,-4.4496,-4.4543,-4.4543,-4.4165,0.0,0.0,0.0,0.0,0.0,0.0,0.0,0.0,0.0,0.0,0.0,0.0,0.0,0.0,0.0,0.0,0.0,0.0,0.0,0.0,0.0,0.0,0.0,0.0,0.0,0.0,0.0,0.0,0.0,0.0,0.0,0.0,0.0,0.0,0.0,0.0,0.0,0.0,0.0,0.0,0.0,0.0,0.0,0.0,0.0,0.0,0.0,0.0,0.0,0.0,0.0,0.0,0.0,0.0,0.0,0.0,0.0,0.0,0.0,0.0,0.0,0.0,0.0,-4.3446,-4.328,-4.2581,-4.2998,-4.3074,-4.2612,-4.054,-4.054,-4.21,-4.1897,0.0,0.0,0.0,0.0,0.0,0.0,0.0,0.0,0.0,0.0,0.0,0.0,0.0,0.0,0.0,0.0,0.0,0.0,0.0,-4.6303,-4.6306,-4.6303,-4.6284,-4.6228,-4.6215,-4.6154,-4.6026,-4.6028,-4.5969,-4.5819,-4.58,-4.58,-4.58,-4.58,-4.5642,-4.5304,-4.4787,-4.4465,-4.4402,-4.4946,-4.5164,-4.5146,-4.4352,-4.4005,-4.4005,0.0,0.0,0.0,0.0,0.0,0.0,0.0,0.0,0.0,0.0,0.0,0.0,0.0,0.0,0.0,0.0,0.0,0.0,0.0,0.0,0.0,0.0,0.0,0.0,0.0,0.0,0.0,0.0,0.0,0.0,0.0,0.0,0.0,0.0,0.0,0.0,0.0,0.0,0.0,0.0,0.0,-4.8001,-4.8001,0.0,0.0,0.0,0.0,0.0,0.0,0.0,0.0,0.0,0.0,0.0,0.0,0.0,-4.3329,-4.3329,-4.3671,-4.3872,-4.3887,-4.3542,-4.3965,-4.5053,-4.3273,-4.3652,-4.5512,-4.3231,0.0,-4.278,-4.3598,0.0,0.0,0.0,0.0,0.0,0.0,0.0,0.0,0.0,0.0,0.0,0.0,0.0,0.0,0.0,0.0,0.0,0.0,0.0,0.0,0.0,-4.6295,-4.6285,-4.6268,-4.6218,-4.6141,-4.6002,-4.6007,-4.5949,-4.58,-4.58,-4.58,-4.58,-4.5658,-4.5342,-4.4858,-4.4411,-4.4181,-4.4181,-4.4439,-4.4562,-4.4562,-4.3994,-4.4378,-4.5398,-4.5216,0.0,0.0,0.0,0.0,0.0,0.0,0.0,0.0,0.0,0.0,0.0,0.0,0.0,0.0,0.0,0.0,0.0,0.0,0.0,0.0,0.0,0.0,0.0,0.0,0.0,0.0,0.0,0.0,0.0,0.0,0.0,0.0,0.0,0.0,0.0,0.0,0.0,0.0,0.0,-4.7539,-4.8001,-4.8001,-4.8001,-4.7685,0.0,0.0,0.0,0.0,0.0,0.0,0.0,0.0,0.0,-4.3329,-4.3688,-4.3883,-4.3883,-4.446,-4.4706,-4.4721,-4.477,-4.5154,-4.5809,-4.5049,-4.5367,-4.6403,-4.5173,-4.4684,-4.4684,-4.4406,-4.4031,-4.3829,0.0,0.0,0.0,0.0,-4.6693,-4.7332,0.0,0.0,0.0,0.0,0.0,0.0,0.0,0.0,0.0,0.0,0.0,0.0,-4.6293,-4.6306,-4.6288,-4.6241,-4.6206,-4.6119,-4.5984,-4.5976,-4.5924,-4.58,-4.58,-4.58,-4.58,-4.5451,-4.5039,-4.4546,-4.4162,-4.4005,-4.4005,-4.4228,-4.4289,-4.4207,-4.4214,-4.4912,-4.6027,-4.5714,-4.5681,-4.5792,0.0,0.0,0.0,0.0,0.0,0.0,0.0,0.0,0.0,0.0,0.0,0.0,0.0,0.0,0.0,0.0,0.0,0.0,0.0,0.0,0.0,0.0,0.0,0.0,0.0,0.0,0.0,0.0,0.0,0.0,0.0,0.0,0.0,0.0,0.0,0.0,0.0,-4.7539,-4.8001,-4.8001,-4.8001,-4.7636,0.0,0.0,0.0,0.0,0.0,0.0,-4.3584,-4.3584,-4.3658,-4.3838,-4.4317,-4.4571,-4.4571,-4.5229,-4.5559,-4.5559,-4.6092,-4.6334,-4.6349,-4.6549,-4.6683,-4.6683,-4.6299,-4.621,-4.6121,-4.5081,-4.4712,-4.4805,-4.5595,-4.588,-4.588,-4.588,-4.6287,-4.6925,0.0,0.0,0.0,0.0,0.0,0.0,0.0,0.0,0.0,0.0,0.0,-4.6293,-4.6308,-4.6308,-4.6248,-4.6128,-4.6114,-4.6057,-4.5902,-4.5917,-4.588,-4.5814,-4.58,-4.58,-4.58,-4.5227,-4.4839,-4.4676,-4.424,-4.4005,-4.4023,-4.4841,-4.5045,-4.4791,-4.5547,-4.5493,-4.4869,-4.4529,-4.4837,-4.551,-4.5455,0.0,0.0,0.0,0.0,0.0,0.0,0.0,0.0,0.0,0.0,0.0,0.0,0.0,0.0,0.0,0.0,0.0,0.0,0.0,0.0,0.0,0.0,0.0,0.0,0.0,0.0,0.0,0.0,0.0,0.0,0.0,0.0,0.0,0.0,0.0,0.0,0.0,0.0,-4.8001,-4.8001,0.0,0.0,0.0,0.0,-4.3472,-4.3329,-4.3599,-4.4227,-4.4272,-4.4541,-4.517,-4.5229,-4.5244,-4.5244,-4.5918,-4.6277,-4.6277,-4.695,-4.7249,-4.7264,-4.7004,-4.6916,-4.6829,-4.6388,-4.621,-4.621,-4.5956,-4.579,-4.579,-4.588,-4.588,-4.588,-4.588,-4.6287,-4.6925,0.0,0.0,0.0,0.0,0.0,-4.63,-4.63,-4.63,-4.63,-4.63,-4.6295,-4.6303,-4.6307,-4.6264,-4.6228,-4.6175,-4.6156,-4.6142,-4.6037,-4.5997,-4.5922,-4.588,-4.5808,-4.5673,-4.5418,-4.508,-4.4751,-4.443,-4.4296,-4.4147,-4.4005,-4.4142,-4.414,-4.4021,-4.3926,-4.4014,-4.4249,-4.4642,-4.5273,-4.5961,-4.5209,-4.515,0.0,0.0,0.0,0.0,0.0,0.0,0.0,0.0,0.0,0.0,0.0,0.0,0.0,0.0,0.0,0.0,0.0,0.0,0.0,0.0,0.0,0.0,0.0,0.0,0.0,0.0,0.0,0.0,0.0,0.0,0.0,0.0,0.0,0.0,0.0,0.0,0.0,-4.7968,-4.8001,0.0,-4.5841,-4.6108,-4.569,-4.4038,-4.4347,-4.4691,-4.493,-4.4945,-4.505,-4.5289,-4.5723,-4.5963,-4.5963,-4.6621,-4.695,-4.6965,-4.7189,-4.7309,-4.7309,-4.7207,-4.7121,-4.7121,-4.6844,-4.6653,-4.6653,-4.6225,-4.6046,-4.588,-4.588,-4.588,-4.588,-4.588,-4.6026,-4.6316,0.0,0.0,0.0,-4.6273,-4.63,-4.63,-4.63,-4.63,-4.6303,-4.6293,-4.6303,-4.6289,-4.6268,-4.6231,-4.6201,-4.6206,-4.6196,-4.6162,-4.6102,-4.6066,-4.5997,-4.5898,-4.5794,-4.556,-4.5199,-4.5007,-4.4739,-4.4373,-4.4314,-4.4207,-4.4005,-4.3828,-4.3631,-4.3461,-4.305,-4.3057,-4.34,-4.3944,-4.4772,-4.5666,-4.4907,-4.5176,-4.5845,0.0,0.0,0.0,0.0,0.0,0.0,0.0,0.0,0.0,0.0,0.0,0.0,0.0,0.0,0.0,0.0,0.0,0.0,0.0,0.0,0.0,0.0,0.0,0.0,0.0,0.0,0.0,0.0,0.0,0.0,0.0,0.0,0.0,0.0,-4.6436,-4.7144,-4.7934,-4.8216,-4.7792,-4.6176,-4.6665,-4.6391,-4.4713,-4.505,-4.5394,-4.5633,-4.5648,-4.5738,-4.5963,-4.6411,-4.6651,-4.6651,-4.7085,-4.7309,-4.7309,-4.7309,-4.7309,-4.7309,-4.7309,-4.7309,-4.7309,-4.7019,-4.6916,-4.6829,-4.6388,-4.6135,-4.5956,-4.597,-4.588,-4.588,-4.588,-4.588,-4.5982,0.0,-4.606,-4.6144,-4.6273,-4.63,-4.63,-4.63,-4.63,-4.6309,-4.6306,-4.6307,-4.6269,-4.6214,-4.6206,-4.6211,-4.6203,-4.6196,-4.6162,-4.6102,-4.6074,-4.5988,-4.5847,-4.5688,-4.5456,-4.5213,-4.5004,-4.4764,-4.4515,-4.4373,-4.4207,-4.4005,-4.4005,-4.3697,-4.3196,-4.3196,-4.2862,-4.2328,-4.2328,-4.3203,-4.4553,-4.4571,-4.5251,-4.623,0.0,0.0,0.0,0.0,0.0,0.0,0.0,0.0,0.0,0.0,0.0,0.0,0.0,0.0,0.0,0.0,0.0,0.0,0.0,0.0,0.0,0.0,0.0,0.0,0.0,0.0,0.0,0.0,0.0,0.0,0.0,0.0,0.0,-4.5587,-4.6424,-4.7144,-4.7919,-4.8661,-4.8491,-4.6901,-4.7381,-4.7076,-4.5485,-4.5349,-4.5648,-4.6322,-4.6352,-4.6651,-4.7279,-4.7309,-4.7309,-4.7309,-4.7309,-4.7309,-4.7309,-4.7309,-4.7309,-4.7309,-4.7309,-4.7309,-4.7309,-4.7019,-4.6916,-4.6844,-4.6388,-4.621,-4.621,-4.597,-4.588,-4.588,-4.588,-4.588,-4.5967,-4.5968,-4.6125,-4.6269,-4.63,-4.63,-4.63,-4.63,-4.63,-4.6309,-4.6306,-4.6269,-4.6221,-4.6191,-4.6201,-4.6196,-4.6196,-4.6196,-4.6196,-4.6162,-4.5527,-4.5055,-4.4833,-4.5216,-4.5381,-4.5192,-4.4995,-4.4821,-4.4659,-4.4496,-4.443,-4.4354,-4.3999,-4.3758,-4.3627,-4.3424,-4.3196,-4.2938,-4.2938,-4.3192,-4.3588,-4.3971,-4.4574,-4.5348,0.0,0.0,0.0,0.0,0.0,0.0,0.0,0.0,0.0,0.0,0.0,0.0,0.0,0.0,0.0,0.0,0.0,0.0,0.0,0.0,0.0,0.0,0.0,0.0,0.0,0.0,0.0,0.0,0.0,0.0,0.0,-4.4072,-4.4705,-4.568,-4.5962,-4.6783,-4.8577,-4.8975,-4.8891,-4.8419,-4.8425,-4.8013,-4.7038,-4.6795,-4.683,-4.7025,-4.704,-4.7115,-4.7294,-4.7309,-4.7309,-4.7309,-4.7309,-4.7309,-4.7309,-4.7309,-4.7309,-4.7309,-4.7309,-4.7309,-4.7309,-4.7207,-4.7207,-4.7121,-4.6844,-4.6668,-4.6417,-4.606,-4.588,-4.588,-4.588,-4.597,-4.6223,-4.6072,-4.6192,-4.63,-4.63,-4.63,-4.63,-4.63,-4.63,-4.6293,-4.6269,-4.6228,-4.6195,-4.6206,-4.6196,-4.6196,-4.6196,-4.6196,-4.604,-4.567,-4.509,-4.4788,-4.4855,-4.5206,-4.5301,-4.508,-4.4943,-4.4821,-4.4712,-4.4632,-4.457,-4.4487,-4.417,-4.3936,-4.3772,-4.3594,-4.3373,-4.3214,-4.3214,-4.3214,-4.3233,-4.3578,-4.4157,-4.4862,-4.5316,-4.613,-4.7016,-4.7299,-4.7801,-4.8306,-4.8306,0.0,0.0,0.0,0.0,0.0,0.0,0.0,0.0,0.0,0.0,0.0,0.0,0.0,0.0,0.0,0.0,0.0,0.0,0.0,0.0,0.0,0.0,0.0,0.0,-4.4352,-4.495,-4.5733,-4.6307,-4.7323,-4.8907,-4.9634,-4.9866,-4.9482,-4.9609,-4.922,-4.8136,-4.7874,-4.7709,-4.7309,-4.7309,-4.7309,-4.7309,-4.7309,-4.7309,-4.7309,-4.7309,-4.7309,-4.7309,-4.7309,-4.7309,-4.7309,-4.7309,-4.7309,-4.7309,-4.7309,-4.7309,-4.7309,-4.6931,-4.6683,-4.6594,0.0,0.0,0.0,0.0,-4.597,-4.6104,-4.6201,-4.6269,-4.63,-4.63,-4.63,-4.63,-4.63,-4.63,-4.6278,-4.6207,-4.6204,-4.6209,-4.6209,-4.6196,-4.6196,-4.6196,-4.6196,-4.5825,-4.4949,-4.486,-4.4989,-4.5334,-4.538,-4.5241,-4.4895,-4.4895,-4.4846,-4.4719,-4.4712,-4.4659,-4.4524,-4.4401,-4.4158,-4.3886,-4.3744,-4.3529,-4.3304,-4.3304,-4.3304,-4.3304,-4.3497,-4.3954,-4.4544,-4.4546,-4.5553,-4.7021,-4.7095,-4.7572,-4.8196,-4.8269,0.0,0.0,0.0,0.0,0.0,0.0,0.0,0.0,0.0,0.0,0.0,0.0,0.0,0.0,0.0,0.0,0.0,0.0,0.0,0.0,0.0,0.0,0.0,0.0,-4.4787,-4.5148,-4.5793,-4.7292,-4.8472,-4.9141,-5.0426,-5.107,-5.0327,-5.0746,-5.0477,-4.8953,-4.8723,-4.8256,-4.7467,-4.7381,0.0,0.0,0.0,-4.7309,-4.7309,-4.7309,-4.7309,-4.7309,-4.7309,-4.7309,-4.7309,-4.7309,-4.7309,-4.7309,-4.7309,-4.7309,-4.7207,-4.6771,-4.6594,-4.6506,-4.6314,-4.6046,-4.588,-4.588,-4.588,-4.588,-4.6249,-4.6296,-4.63,-4.63,-4.63,-4.63,-4.63,-4.63,-4.6278,-4.6207,-4.6204,-4.6209,-4.6209,-4.6196,-4.6196,-4.6196,-4.6196,-4.5811,-4.4884,-4.5356,-4.5305,-4.4489,-4.5073,-4.5241,-4.4895,-4.4895,-4.487,-4.4846,-4.4745,-4.4745,-4.484,-4.4578,-4.4411,-4.4383,-4.4237,-4.4036,-4.3846,-4.3846,-4.3846,-4.3828,-4.3832,-4.3708,-4.3649,-4.445,-4.4945,-4.5387,-4.6654,-4.7223,-4.7443,-4.8086,-4.819,-4.8032,-4.7992,-4.7888,0.0,0.0,0.0,0.0,0.0,0.0,0.0,0.0,0.0,0.0,0.0,0.0,0.0,0.0,0.0,0.0,0.0,0.0,0.0,-4.544,-4.5929,-4.6407,-4.6649,-4.8463,-4.9802,-4.9937,-5.0731,-5.1475,-5.1878,-5.1426,-5.0951,-5.0631,-4.9358,-4.8573,-4.8339,-4.7694,-4.7309,-4.7309,-4.7309,-4.7309,-4.7309,-4.7309,-4.7309,-4.7309,-4.7309,0.0,-4.7309,-4.7309,-4.7309,-4.7309,-4.7309,-4.7207,-4.6931,-4.6844,-4.6668,-4.6225,-4.606,-4.597,-4.588,-4.588,-4.588,-4.588,-4.63,-4.63,-4.63,-4.63,-4.63,-4.63,-4.63,-4.63,-4.6278,-4.6207,-4.6204,-4.6209,-4.6209,-4.6196,-4.6196,-4.6196,-4.5772,-4.5468,-4.5405,-4.5332,-4.5148,-4.4822,-4.5189,-4.5241,-4.4895,-4.4895,-4.4895,-4.4895,-4.4821,-4.4821,-4.4895,-4.4632,-4.4515,-4.4487,-4.4266,-4.4097,-4.4005,-4.4005,-4.3974,-4.3942,-4.3883,-4.3701,-4.3497,-4.4023,-4.4412,-4.4819,-4.5626,-4.6434,-4.7186,-4.7572,-4.7899,-4.8172,-4.8326,-4.8249,-4.8172,0.0,0.0,0.0,0.0,0.0,0.0,0.0,0.0,0.0,0.0,0.0,0.0,0.0,0.0,-4.7008,-4.6649,0.0,-4.6685,-4.6464,-4.7176,-4.7784,-4.7914,-4.9507,-5.056,-5.0204,-5.1164,-5.1976,-5.234,-5.1997,-5.1582,-5.1118,-4.9915,-4.9035,-4.8641,-4.7779,-4.7309,-4.7309,-4.7309,-4.7309,-4.7309,-4.7309,-4.7309,-4.7309,-4.7309,-4.7207,-4.7121,-4.7121,-4.7019,-4.6946,-4.6946,-4.6858,-4.6756,-4.658,-4.6314,-4.6046,-4.597,-4.588,-4.588,-4.588,-4.588,-4.588,-4.63,-4.63,-4.63,-4.63,-4.63,-4.63,-4.63,-4.63,-4.6276,-4.6229,-4.6205,-4.6192,-4.6203,-4.6203,-4.6196,-4.6196,-4.5468,-4.5308,-4.5968,-4.5328,-4.5061,-4.5419,-4.5457,-4.5282,-4.4967,-4.4943,-4.4943,-4.4895,-4.4895,-4.487,-4.4865,-4.4605,-4.4487,-4.4458,-4.4128,-4.4005,-4.4005,-4.4005,-4.3942,-4.3897,-4.3837,-4.3719,-4.3615,-4.3649,-4.4005,-4.4488,-4.4706,-4.5734,-4.7003,-4.7224,-4.7795,-4.8495,-4.8694,-4.873,-4.8694,-4.8847,-4.8847,0.0,0.0,0.0,0.0,0.0,0.0,0.0,0.0,-4.7285,-4.724,-4.7015,-4.6998,-4.7051,-4.7194,-4.7391,-4.7557,-4.7701,-4.8533,-4.916,-4.9124,-5.0405,-5.1125,-5.0471,-5.1578,-5.2373,-5.2373,-5.2373,-5.2142,-5.1434,-5.0538,-4.9662,-4.8887,-4.8019,-4.7467,-4.7309,-4.7309,-4.7309,-4.7309,-4.7207,-4.7207,-4.7309,-4.7222,-4.7033,-4.6916,-4.6829,-4.6756,-4.6594,-4.6506,-4.6506,-4.6506,-4.6225,-4.606,-4.588,-4.588,-4.588,-4.588,-4.588,-4.588,-4.588,-4.63,-4.63,-4.63,-4.63,-4.63,-4.63,-4.63,-4.63,-4.629,-4.6287,-4.6248,-4.6198,-4.6206,-4.6209,-4.6196,-4.6196,-4.6007,-4.591,-4.5977,-4.5796,-4.566,-4.558,-4.558,-4.5438,-4.517,-4.517,-4.508,-4.4895,-4.4895,-4.4821,-4.4738,-4.4551,-4.443,-4.4314,-4.4116,-4.4005,-4.4005,-4.4005,-4.3942,-4.3897,-4.3837,-4.3719,-4.3615,-4.3878,-4.3837,-4.3752,-4.479,-4.5704,-4.6624,-4.766,-4.8477,-4.9085,-4.9052,-4.8967,-4.8881,-4.8832,-4.8816,-4.8816,-4.8816,-4.8565,-4.8309,-4.8254,-4.7977,-4.7608,0.0,-4.7303,-4.724,-4.7015,-4.6998,-4.7229,-4.7914,-4.8063,-4.8382,-4.9205,-5.0047,-5.0411,-4.9966,-5.1183,-5.1883,-5.1287,-5.1877,-5.2373,-5.2373,-5.2373,-5.2373,-5.2302,-5.1434,-5.0554,-4.9726,-4.8887,-4.8088,-4.7309,-4.7309,-4.7309,-4.7309,-4.7019,-4.7019,-4.7309,-4.6858,-4.6771,-4.6916,-4.6683,-4.6594,-4.6594,-4.6314,-4.621,-4.6225,-4.6046,-4.588,-4.588,-4.588,-4.588,-4.588,-4.588,-4.588,-4.588,-4.63,-4.63,-4.63,-4.63,-4.63,-4.63,-4.63,-4.63,-4.6309,-4.6306,-4.6249,-4.6198,-4.6191,-4.6209,-4.6196,-4.6196,-4.6084,-4.5997,-4.5997,-4.5861,-4.5737,-4.5613,-4.5596,-4.551,-4.5301,-4.532,-4.526,-4.5135,-4.5135,-4.5109,-4.5057,-4.4857,-4.4764,-4.4688,-4.4538,-4.4457,-4.4457,-4.4457,-4.4402,-4.4308,-4.4279,-4.4192,-4.4084,-4.4192,-4.4162,-4.4079,-4.4565,-4.5249,0.0,-4.7065,-4.792,-4.8689,-4.9292,-4.9412,-4.9352,-4.9521,-4.951,-4.9408,-4.9211,-4.9057,-4.8866,-4.8643,-4.8327,-4.7983,-4.7715,-4.7483,-4.724,-4.7015,-4.6998,-4.7247,-4.805,-4.855,-4.9096,-4.9983,-5.1173,-5.1843,-5.1209,-5.213,-5.2615,-5.1984,-5.2191,-5.2373,-5.2373,-5.2373,-5.2373,-5.2373,-5.1582,-5.0707,-4.9805,-4.9035,-4.8172,-4.7309,-4.7121,-4.7106,-4.7106,-4.6844,-4.6771,-4.6858,-4.6683,-4.658,-4.6476,-4.6403,-4.6314,-4.615,-4.6046,-4.606,-4.6046,-4.597,-4.588,-4.588,-4.588,-4.588,-4.588,-4.588,-4.588,-4.588,-4.63,-4.63,-4.63,-4.63,-4.63,-4.63,-4.63,-4.63,-4.6306,-4.6301,-4.6269,-4.6221,-4.6191,-4.617,-4.6146,-4.6162,-4.6056,-4.5975,-4.5975,-4.5848,-4.5771,-4.5661,-4.5661,-4.5596,-4.5456,-4.5475,-4.54,-4.5302,-4.5302,-4.5262,-4.5216,-4.5071,-4.4985,-4.4938,-4.4825,-4.48,-4.48,-4.48,-4.4726,-4.4617,-4.4617,-4.4538,-4.443,-4.4465,-4.4519,-4.4519,-4.4519,-4.5038,-4.5848,-4.6561,-4.7334,-4.8192,-4.9261,-4.95,-4.9503,-4.9955,-5.0005,-4.9843,-4.9593,-4.9466,-4.9334,-4.9027,-4.8692,-4.8398,-4.8134,-4.7784,-4.7427,-4.7232,-4.7098,-4.7301,-4.83,-4.8942,-4.9656,-5.0673,-5.2172,-5.2909,-5.2088,-5.2881,-5.328,-5.2503,-5.2373,-5.2373,-5.2373,-5.2373,-5.2373,-5.2373,-5.1835,-5.1102,-5.0213,-4.9358,-4.8475,-4.7609,-4.7091,-4.6844,-4.6844,-4.658,-4.6506,-4.6594,-4.6506,-4.6314,-4.621,-4.6135,-4.606,-4.588,-4.588,-4.588,-4.588,-4.588,-4.588,-4.588,-4.588,-4.588,-4.588,-4.588,-4.588,-4.588,-4.63,-4.63,-4.63,-4.63,-4.63,-4.63,-4.63,-4.63,-4.63,-4.63,-4.63,-4.6269,-4.6214,-4.6088,-4.6027,-4.6093,-4.5986,-4.5898,-4.5898,-4.5841,-4.58,-4.578,-4.578,-4.5723,-4.5596,-4.5596,-4.551,-4.5302,-4.5302,-4.5201,-4.5007,-4.5007,-4.4938,-4.4819,-4.48,-4.48,-4.48,-4.48,-4.4726,-4.4617,-4.4617,-4.4538,-4.4411,-4.4676,-4.4776,-4.4776,-4.4776,-4.535,-4.6139,-4.6431,-4.7089,-4.7945,-4.8777,-4.8971,-4.9055,-4.9803,-4.9933,-4.9898,-4.9898,-4.9644,-4.9397,-4.937,-4.9078,-4.8768,-4.8623,-4.8237,-4.7828,-4.7702,-4.7309,-4.7461,-4.8996,-4.9299,-4.9834,-5.1405,-5.2975,-5.3529,-5.2158,-5.3346,-5.3861,-5.257,-5.2373,-5.2373,-5.2373,-5.2373,-5.2373,-5.2373,-5.2373,-5.198,-5.1118,-5.0057,-4.9069,-4.8179,-4.7163,-4.6594,-4.6594,-4.6314,-4.6314,-4.6594,-4.615,-4.6046,-4.621,-4.597,-4.588,-4.588,-4.588,-4.588,-4.588,-4.588,-4.588,-4.588,-4.588,-4.588,-4.588,-4.588,-4.588,-4.588,-4.63,-4.63,-4.63,-4.63,-4.63,-4.63,-4.63,-4.63,-4.63,-4.63,-4.6309,0.0,0.0,0.0,0.0,0.0,-4.598,-4.5905,-4.5905,-4.5841,-4.58,-4.58,-4.58,-4.5786,-4.5723,-4.5727,-4.5684,-4.5582,-4.5566,-4.5513,-4.54,-4.54,-4.5362,-4.5322,-4.5322,-4.5322,-4.5322,-4.5322,-4.5243,-4.5118,-4.5118,-4.5071,-4.5019,-4.5087,-4.5132,-4.5132,0.0,-4.5322,-4.5668,-4.6287,-4.6691,-4.7207,-4.8617,-4.9005,-4.9061,-4.9885,-5.0114,-5.0101,-5.0104,-4.9917,-4.9728,-4.9728,-4.9448,-4.9138,-4.9033,-4.867,-4.8292,-4.8101,-4.7922,-4.8042,-4.8749,-4.9315,-4.9923,-5.0776,-5.2654,-5.3546,-5.2158,-5.3363,-5.3895,-5.257,-5.2373,-5.2373,-5.2373,-5.2373,-5.2373,-5.2373,-5.2247,-5.1598,-5.0135,-4.9583,-4.8625,-4.7148,-4.6653,-4.6314,-4.6314,-4.6135,-4.606,-4.615,-4.597,-4.597,-4.597,-4.597,-4.588,-4.588,-4.588,-4.588,-4.588,-4.588,-4.588,-4.588,-4.588,-4.588,-4.588,-4.588,-4.588,-4.588,0.0,-4.6309,-4.6309,-4.6309,-4.6309,0.0,0.0,0.0,0.0,0.0,0.0,0.0,0.0,0.0,0.0,0.0,0.0,-4.5938,-4.5938,-4.5847,-4.58,-4.58,-4.58,-4.58,-4.58,-4.581,-4.5765,-4.57,-4.5706,-4.5676,-4.5586,-4.5586,-4.5586,-4.5586,-4.5586,-4.5586,-4.5586,-4.5586,-4.5359,-4.4998,-4.5285,-4.5169,-4.4876,-4.5182,-4.5297,0.0,-4.5297,-4.5339,-4.5437,-4.591,-4.6271,-4.6748,-4.8226,-4.9064,-4.9572,-5.0111,-5.0264,-5.0259,-5.0253,-5.0171,-5.007,-5.0012,-4.9852,-4.9646,-4.948,-4.9113,-4.876,-4.8584,-4.8366,-4.8336,-4.8702,-4.9342,-4.9955,-5.0419,-5.2493,-5.3546,-5.2158,-5.3363,-5.3895,-5.257,-5.2373,-5.2373,-5.2318,-5.2318,-5.2318,-5.2318,-5.2102,-5.1359,-4.9884,-4.9343,-4.8377,-4.6989,-4.6388,-4.6135,-4.6135,-4.597,-4.588,-4.588,-4.588,-4.588,-4.588,-4.588,-4.588,-4.588,-4.588,-4.588,-4.588,-4.588,-4.588,-4.588,-4.588,-4.588,-4.588,-4.588,-4.588,-4.588,0.0,0.0,-4.6301,0.0,0.0,0.0,0.0,0.0,0.0,0.0,0.0,0.0,0.0,0.0,0.0,0.0,0.0,0.0,-4.6007,-4.5877,-4.5819,-4.5819,-4.5814,-4.5814,-4.5814,-4.5805,-4.5781,-4.5731,-4.5703,-4.569,-4.562,-4.5603,-4.5603,-4.562,-4.5603,-4.5603,-4.562,-4.5603,-4.5089,-4.4345,-4.5093,-4.4863,-4.4169,-4.4991,-4.5297,-4.5297,-4.5317,-4.5419,-4.5531,-4.5417,-4.5948,-4.6789,-4.7737,-4.9179,-5.0486,-5.0404,-5.0404,-5.0404,-5.0404,-5.0404,-5.0361,-5.024,-5.0212,-5.0139,-4.9959,-4.9569,-4.9246,-4.9214,-4.8709,-4.8378,-4.8785,-4.9401,-4.9955,-5.0414,-5.2422,-5.3493,-5.2158,-5.3329,-5.3844,-5.257,-5.239,-5.2318,-5.2102,-5.2102,-5.2102,-5.2102,-5.1868,-5.1359,-5.0413,-4.9376,-4.8331,-4.7448,-4.6462,-4.588,-4.588,-4.588,-4.588,-4.588,-4.588,-4.588,-4.588,-4.588,-4.588,-4.588,-4.588,-4.588,-4.588,-4.588,-4.588,-4.588,-4.588,-4.588,-4.588,-4.588,-4.588,-4.588,0.0,0.0,0.0,0.0,0.0,0.0,0.0,0.0,0.0,0.0,0.0,0.0,0.0,0.0,0.0,0.0,0.0,0.0,-4.6079,-4.6046,-4.6027,-4.6027,-4.6021,-4.6011,-4.6011,-4.5975,-4.5936,-4.5925,-4.5871,-4.584,-4.5828,-4.5761,-4.5794,-4.5828,-4.578,-4.578,-4.5829,-4.5718,-4.5514,-4.524,-4.5362,-4.5225,-4.4991,-4.522,-4.5297,-4.5298,-4.54,-4.586,-4.6398,-4.6416,-4.7338,-4.8524,-4.859,-4.9415,-5.0329,-5.0264,-5.0313,-5.0404,-5.0404,-5.0404,-5.0383,-5.0358,-5.0287,-5.0188,-5.0139,-4.9914,-4.9693,-4.9596,-4.9315,-4.9027,-4.879,-4.9541,-5.0115,-5.0018,-5.1799,-5.2891,-5.2088,-5.2863,-5.3263,-5.2503,-5.2247,-5.2175,-5.2102,-5.1811,-5.1647,-5.1647,-5.1573,-5.0892,-4.9296,-4.8825,-4.7843,-4.6388,-4.6046,-4.588,-4.588,-4.588,-4.588,-4.588,-4.588,-4.588,-4.588,-4.588,-4.588,-4.588,-4.588,-4.588,-4.588,-4.588,-4.588,-4.588,-4.588,-4.588,-4.588,-4.588,-4.588,-4.588,0.0,0.0,0.0,0.0,0.0,0.0,0.0,0.0,0.0,0.0,0.0,0.0,0.0,0.0,0.0,0.0,0.0,0.0,0.0,-4.6115,-4.6102,-4.6096,-4.6104,-4.6095,-4.6095,-4.6037,-4.5998,-4.5998,-4.5939,-4.5899,-4.5899,-4.5852,-4.5863,-4.5899,-4.5852,-4.5859,-4.5894,-4.5822,-4.5548,0.0,0.0,-4.5545,-4.5568,-4.5914,-4.6279,-4.6624,-4.6709,-4.7251,-4.793,-4.7874,-4.8414,-4.9152,-4.9387,-4.9873,-5.0333,-5.031,-5.0402,-5.0527,-5.0527,-5.0567,-5.0587,-5.0446,-5.0339,-5.0264,-5.0114,-4.9986,-4.9871,-4.9721,-4.9555,-4.927,-4.8783,-4.9572,-5.0192,-4.9866,-5.1544,-5.2679,-5.2054,-5.263,-5.2895,-5.2345,-5.2086,-5.1941,-5.1884,-5.1647,-5.1424,-5.135,-5.135,-5.0586,-4.8743,-4.8579,-4.7689,-4.597,-4.588,-4.588,-4.588,-4.588,-4.588,-4.588,-4.588,-4.588,-4.588,-4.588,-4.588,-4.588,-4.588,-4.588,-4.588,-4.588,-4.588,-4.588,-4.588,-4.588,-4.588,-4.588,-4.588,-4.588,0.0,0.0,0.0,0.0,0.0,0.0,0.0,0.0,0.0,0.0,-4.6308,-4.6308,-4.6308,-4.6308,0.0,0.0,0.0,0.0,0.0,0.0,-4.6469,-4.6477,-4.636,-4.6294,-4.6294,-4.6122,-4.6035,-4.6035,-4.5978,-4.594,-4.594,-4.593,-4.593,-4.594,-4.593,-4.5929,-4.5958,-4.6044,-4.5631,-4.5008,-4.5809,-4.6131,-4.6201,0.0,-4.7632,-4.8324,-4.844,-4.8914,-4.9489,-4.9375,-4.9273,-4.9289,-5.0007,-5.0287,-5.0339,-5.0339,-5.0466,-5.0645,-5.0645,-5.0718,-5.0752,-5.0467,-5.0383,-5.0313,-5.0012,-4.9925,-4.9843,-4.9721,-4.9525,-4.9239,-4.8765,-4.9572,-5.0192,-4.9866,-5.1405,-5.2502,-5.2037,-5.2341,-5.2499,-5.2115,-5.1868,-5.1721,-5.1499,-5.1499,-5.135,-5.1016,-5.1016,-5.026,-4.8594,-4.8414,-4.7603,-4.597,-4.588,-4.588,-4.588,-4.588,-4.588,-4.588,-4.588,-4.588,-4.588,-4.588,-4.588,-4.588,-4.588,-4.588,-4.588,-4.588,-4.588,-4.588,-4.588,-4.588,-4.588,-4.588,-4.588,-4.588,0.0,0.0,0.0,0.0,0.0,0.0,0.0,0.0,0.0,0.0,-4.6307,-4.6307,0.0,0.0,0.0,0.0,0.0,0.0,0.0,0.0,0.0,-4.8411,-4.7728,-4.7338,-4.7338,-4.6611,-4.624,-4.624,-4.624,-4.624,-4.6236,-4.6131,-4.6112,-4.6236,-4.6105,-4.6098,-4.6196,-4.6792,-4.6941,-4.681,-4.7552,-4.7879,-4.7879,-4.8034,0.0,0.0,-4.9122,-4.9451,-4.9649,-5.0048,-5.0153,-5.0061,-5.0006,-4.9986,-4.9986,-4.9986,-5.012,-5.0283,-5.0283,-5.038,-5.0467,-5.0425,-5.0313,-5.0236,-5.0163,-4.9933,-4.9721,-4.9692,-4.9434,-4.9127,-4.8783,-4.9572,-5.0192,-4.9866,-5.056,-5.1377,-5.1908,-5.1537,-5.138,-5.201,-5.1811,-5.1499,-5.1499,-5.135,-5.094,-5.0198,-5.012,-4.9614,-4.8594,-4.7858,-4.6959,-4.597,-4.588,-4.588,-4.588,-4.588,-4.588,-4.588,-4.588,-4.588,-4.588,-4.588,-4.588,-4.588,-4.588,-4.588,-4.588,-4.588,-4.588,-4.588,-4.588,-4.588,-4.588,-4.588,-4.588,-4.588,0.0,0.0,0.0,0.0,0.0,0.0,0.0,-4.6306,-4.6293,-4.6293,-4.6297,-4.63,-4.6295,-4.6306,-4.6303,0.0,0.0,0.0,0.0,0.0,0.0,-4.8857,-4.8447,-4.8213,-4.8213,-4.7803,-4.7608,-4.7608,0.0,-4.7608,-4.7608,-4.7548,-4.7543,-4.7596,-4.7532,-4.7521,-4.7579,-4.7937,-4.8054,-4.8059,-4.8428,-4.8816,-4.9185,0.0,0.0,0.0,-5.0235,-5.0322,-5.0275,-5.0471,-5.0423,-5.0197,-4.9986,-4.9898,-4.9898,-4.9898,-5.0038,-5.0188,-5.0188,-5.0291,-5.0383,-5.0313,-5.0174,-5.0044,-4.9959,-4.9712,-4.9525,-4.9434,-4.916,-4.8872,-4.8586,-4.9373,-4.9955,-4.9639,-5.0199,-5.0906,-5.1525,-5.0953,-5.0807,-5.1687,-5.1499,-5.135,-5.135,-5.0848,-5.037,-4.9947,-4.9035,-4.8278,-4.7858,-4.7046,-4.6299,-4.588,-4.588,-4.588,-4.588,-4.588,-4.588,-4.588,-4.588,-4.588,-4.588,-4.588,-4.588,-4.588,-4.588,-4.588,-4.588,-4.588,-4.588,-4.588,-4.588,-4.588,-4.588,-4.588,-4.588,-4.588,0.0,0.0,0.0,0.0,0.0,0.0,-4.6303,-4.63,-4.63,-4.63,-4.6456,-4.6577,-4.6541,-4.6381,-4.6378,0.0,0.0,0.0,0.0,0.0,0.0,0.0,0.0,0.0,-4.9087,0.0,0.0,-4.8794,-4.8798,0.0,0.0,0.0,0.0,0.0,-4.8796,-4.88,-4.8815,-4.901,-4.9074,0.0,0.0,-4.9703,-5.0287,0.0,0.0,0.0,0.0,-5.0984,-5.0819,-5.0682,-5.0464,-5.0193,-4.9959,-4.9898,-4.9898,-4.9898,-5.0012,-5.0139,-5.0139,-5.0197,-5.0249,-5.0139,-4.9974,-4.9814,-4.9673,-4.9495,-4.9321,-4.9127,-4.8967,-4.8827,-4.8526,-4.9356,-4.9937,-4.9429,-4.9908,-5.0512,-5.1024,-5.0493,-5.0323,-5.1139,-5.1016,-5.0848,-5.0679,-5.0026,-4.9534,-4.9374,-4.7873,-4.6944,-4.6944,-4.6299,-4.588,-4.588,-4.588,-4.588,-4.588,-4.588,-4.588,-4.588,-4.588,-4.588,-4.588,-4.588,-4.588,-4.588,-4.588,-4.588,-4.588,-4.588,-4.588,-4.588,-4.588,-4.588,-4.588,-4.588,-4.588,-4.588,0.0,0.0,0.0,0.0,0.0,0.0,-4.63,-4.63,-4.63,-4.63,-4.6983,-4.7435,-4.7301,-4.6704,-4.6612,0.0,0.0,0.0,0.0,0.0,0.0,0.0,0.0,0.0,0.0,0.0,0.0,-4.8801,-4.8794,0.0,0.0,0.0,0.0,0.0,0.0,-4.8788,-4.8854,-4.9634,0.0,0.0,0.0,0.0,0.0,0.0,0.0,0.0,0.0,-5.1056,-5.0928,-5.0548,-5.0404,-5.0317,-4.9993,-4.9898,-4.9898,-4.9898,-4.9906,-4.9925,-4.9925,-4.9933,-4.9906,-4.9759,-4.975,-4.9673,-4.9476,-4.934,-4.9146,-4.8818,-4.9159,-4.9331,-4.8792,-4.992,-5.054,-4.9468,-4.9535,-4.9863,-5.049,-4.9882,-4.9604,-5.0131,-5.0088,-4.9694,-4.8841,-4.8677,-4.8263,-4.7533,-4.655,-4.6046,-4.6046,-4.597,-4.588,-4.588,-4.588,-4.588,-4.588,-4.588,-4.588,-4.588,-4.588,-4.588,-4.588,-4.588,-4.588,-4.588,-4.588,-4.588,-4.588,-4.588,-4.588,-4.588,-4.588,-4.588,-4.588,-4.588,-4.588,-4.588,0.0,0.0,0.0,0.0,0.0,0.0,-4.6877,-4.6897,-4.7042,-4.7559,-4.7929,-4.8115,-4.8069,-4.7795,-4.7754,-4.8104,-4.8957,0.0,0.0,0.0,0.0,0.0,0.0,0.0,0.0,0.0,-5.0092,-5.0121,-5.0082,0.0,0.0,0.0,0.0,0.0,0.0,-5.0297,-5.0334,-5.0685,0.0,0.0,0.0,0.0,0.0,0.0,0.0,0.0,0.0,0.0,-5.0789,-5.0488,-5.0358,-5.0264,-5.0114,-4.9986,-4.9898,-4.9898,-4.9898,-4.9879,-4.9803,-4.9784,-4.9757,-4.956,-4.945,-4.9496,-4.9907,-4.9892,-4.9836,-4.9935,-5.0016,-4.9888,-4.9235,-4.9559,-4.9714,-4.8924,-4.872,-4.8996,-4.9924,-4.948,-4.9312,-4.993,-4.9947,-4.9534,-4.8594,-4.8012,-4.7362,-4.6462,-4.6135,-4.588,-4.588,-4.588,-4.588,-4.588,-4.588,-4.588,-4.588,-4.588,-4.588,-4.588,-4.588,-4.588,-4.588,-4.588,-4.588,-4.588,-4.588,-4.588,-4.588,-4.588,-4.588,-4.588,-4.588,-4.588,-4.588,-4.588,-4.588,-4.588,0.0,0.0,0.0,0.0,0.0,-4.6722,-4.759,-4.764,-4.78,-4.8421,-4.8713,-4.8875,-4.8839,-4.9077,-4.922,-4.9127,-4.9562,0.0,0.0,0.0,0.0,0.0,0.0,0.0,0.0,0.0,-5.0887,-5.0953,-5.092,-5.094,0.0,0.0,-5.1063,-5.1152,0.0,0.0,0.0,0.0,0.0,0.0,0.0,0.0,0.0,0.0,0.0,0.0,0.0,0.0,0.0,0.0,0.0,-5.0188,-5.0089,-4.994,-4.9841,-4.9824,-4.9833,-4.9822,-4.9645,-4.9608,-4.9598,-4.9695,-4.9634,-4.9735,-5.0371,-5.0452,-5.0398,-5.0483,-5.0484,-5.0227,-4.9519,-4.9433,-4.9253,-4.854,-4.8404,-4.8614,-4.9143,-4.9014,-4.8998,-4.9057,-4.9116,-4.8774,-4.7858,-4.7204,-4.655,-4.597,-4.588,-4.588,-4.588,-4.588,-4.588,-4.588,-4.588,-4.588,-4.588,-4.588,-4.588,-4.588,-4.588,-4.588,-4.588,-4.588,-4.588,-4.588,-4.588,-4.588,-4.588,-4.588,-4.588,-4.588,-4.588,-4.588,-4.588,-4.588,-4.588,-4.588,0.0,0.0,0.0,0.0,0.0,-4.7481,-4.8363,-4.848,-4.848,-4.8499,-4.9248,-4.9744,-4.9591,-5.0428,-5.0855,-5.0605,-5.0039,0.0,0.0,0.0,0.0,0.0,0.0,0.0,-5.0792,-5.0792,-5.0792,-5.0792,-5.0874,-5.0874,-5.0792,-5.0792,-5.0797,-5.0805,0.0,0.0,0.0,0.0,0.0,0.0,0.0,0.0,0.0,0.0,0.0,0.0,0.0,0.0,0.0,0.0,0.0,0.0,0.0,-4.9712,-4.97,-4.9712,-4.9712,-4.9654,-4.9456,-4.9396,-4.9557,-5.0202,-5.0407,-5.0443,-5.0708,-5.0775,-5.0615,-4.9955,-5.0221,-5.0356,-4.9451,-4.9716,-4.9664,-4.8349,-4.8727,-4.8839,-4.7882,-4.8367,-4.8417,-4.7372,-4.7189,-4.6872,-4.6046,-4.588,-4.588,-4.588,-4.588,-4.588,-4.588,-4.588,-4.588,-4.588,-4.588,-4.588,-4.588,-4.588,-4.588,-4.588,-4.588,-4.588,-4.588,-4.588,-4.588,-4.588,-4.588,-4.588,-4.588,-4.588,-4.588,-4.588,-4.588,-4.588,-4.588,-4.588,-4.588,-4.588,0.0,0.0,0.0,0.0,0.0,0.0,-4.9127,-4.9173,-4.9324,-4.9869,-5.0177,-5.0315,-5.0221,-5.049,-5.0625,-5.0542,-5.0449,0.0,0.0,0.0,0.0,0.0,0.0,0.0,-5.0528,-5.0469,-5.0469,-5.0528,-5.0508,-5.0548,-5.0661,-5.0661,-5.0711,-5.079,-5.079,-5.079,0.0,0.0,0.0,0.0,0.0,0.0,-5.0509,0.0,0.0,0.0,0.0,0.0,0.0,0.0,0.0,0.0,0.0,0.0,0.0,-4.9943,-5.0056,-5.0263,-5.0128,-5.0478,-5.089,-5.0712,-5.0671,-5.0796,-5.1169,-5.1128,-5.1056,-5.1113,-5.0877,-5.04,-4.9612,-4.9044,-4.8555,-4.7918,-4.7635,-4.7549,-4.7672,-4.7825,-4.7691,-4.7287,-4.6711,-4.621,-4.597,-4.588,-4.588,-4.588,-4.588,-4.588,-4.588,-4.588,-4.588,-4.588,-4.588,-4.588,-4.588,-4.588,-4.588,-4.588,-4.588,-4.588,-4.588,-4.588,-4.588,-4.588,-4.588,-4.588,-4.588,-4.588,-4.588,-4.588,-4.588,-4.588,-4.588,-4.588,-4.588,-4.588,0.0,0.0,0.0,0.0,0.0,0.0,-4.9812,-4.9875,-4.9988,-5.0506,-5.0542,-5.0562,-5.05,-5.0478,-5.0457,-5.0457,-5.0526,0.0,0.0,0.0,0.0,0.0,0.0,0.0,-5.0348,-5.0325,-5.0325,-5.0348,-5.0325,-5.0352,-5.0485,-5.0485,-5.0528,-5.0605,-5.0605,-5.0605,0.0,0.0,0.0,0.0,0.0,0.0,-5.0249,0.0,0.0,0.0,0.0,0.0,0.0,0.0,0.0,0.0,0.0,0.0,0.0,0.0,-5.0466,-5.086,-5.0454,-5.0731,-5.1081,-5.1073,-5.1,-5.1049,-5.1511,-5.1427,-5.1203,-5.1154,-5.068,-4.9981,-4.9197,-4.843,-4.7787,-4.7424,-4.7205,-4.7069,-4.7105,-4.7221,-4.725,-4.674,-4.621,-4.588,-4.588,-4.588,-4.588,-4.588,-4.588,-4.588,-4.588,-4.588,-4.588,-4.588,-4.588,-4.588,-4.588,-4.588,-4.588,-4.588,-4.588,-4.588,-4.588,-4.588,-4.588,-4.588,-4.588,-4.588,0.0,-4.588,-4.588,-4.588,-4.588,-4.588,-4.588,-4.588,-4.588,-4.588,0.0,0.0,0.0,0.0,0.0,0.0,0.0,-5.05,-5.05,-5.05,-5.05,-5.05,-5.05,-5.0435,-5.039,-5.039,-5.0325,0.0,0.0,0.0,0.0,0.0,0.0,-5.0302,-5.0302,-5.0302,-5.0302,-5.0302,-5.0302,-5.0302,-5.0302,-5.0302,-5.0302,-5.0278,-5.0278,-5.0255,0.0,0.0,0.0,0.0,-5.0082,-5.0057,0.0,0.0,0.0,0.0,0.0,0.0,0.0,0.0,0.0,0.0,0.0,0.0,0.0,0.0,0.0,0.0,0.0,-5.0457,-5.0669,-5.1347,-5.1357,-5.1228,-5.1602,-5.1482,0.0,-5.0198,-4.9722,-4.9154,-4.8158,-4.782,-4.7427,-4.6734,-4.7145,-4.7263,-4.6281,-4.67,-4.6784,-4.597,-4.588,-4.588,-4.588,-4.588,-4.588,-4.588,-4.588,-4.588,-4.588,-4.588,-4.588,-4.588,-4.588,-4.588,-4.588,-4.588,-4.588,-4.588,-4.588,-4.588,-4.588,-4.588,-4.588,-4.588,-4.588,-4.588,-4.588,-4.588,-4.588,-4.588,-4.588,-4.588,-4.588,-4.588,-4.588,-4.588,0.0,0.0,0.0,0.0,0.0,0.0,0.0,0.0,0.0,0.0,-5.0435,-5.0393,-5.0348,-5.0325,-5.0302,0.0,0.0,0.0,0.0,0.0,0.0,0.0,-5.0302,-5.0302,-5.0302,-5.0255,-5.0255,-5.0302,-5.0255,-5.0212,-5.0212,-5.0212,-5.0207,-5.0158,-5.0158,-5.0108,0.0,0.0,0.0,0.0,-4.9952,-4.9952,0.0,0.0,0.0,0.0,-4.9898,-5.0061,0.0,0.0,0.0,0.0,0.0,0.0,0.0,0.0,-5.1431,-5.1951,-5.1477,0.0,-5.2126,-5.1814,-5.1664,-5.1433,0.0,-5.022,-4.9861,-4.9308,-4.8652,-4.7901,-4.702,-4.6898,-4.6697,-4.5849,-4.6162,-4.6358,-4.6102,-4.6123,-4.6135,-4.588,-4.588,-4.588,-4.588,-4.588,-4.588,-4.588,-4.588,-4.588,-4.588,-4.588,-4.588,-4.588,-4.588,-4.588,-4.588,-4.588,-4.588,-4.588,-4.588,-4.588,-4.588,-4.588,-4.588,-4.588,-4.588,-4.588,-4.588,-4.588,-4.588,-4.588,-4.588,-4.588,-4.588,-4.588,-4.588,-4.588,0.0,0.0,0.0,0.0,0.0,0.0,0.0,0.0,0.0,0.0,-5.0348,-5.0325,-5.0278,-5.0598,-5.0822,0.0,0.0,0.0,0.0,0.0,0.0,-5.0274,-5.0231,-5.0207,-5.0207,-5.0182,-5.0182,-5.0207,-5.0182,-5.0139,-5.0139,-5.0139,-5.0133,-5.0108,-5.0082,-5.0031,0.0,0.0,0.0,-4.9683,-4.9683,0.0,0.0,0.0,0.0,0.0,-4.9802,-5.0112,0.0,-5.0411,-5.0689,-5.1083,0.0,0.0,0.0,0.0,-5.1441,-5.1687,-5.1139,-5.1612,-5.2143,-5.1398,-5.1105,-5.0769,-4.978,-4.9308,-4.8944,-4.848,-4.8,-4.7435,-4.674,-4.6634,-4.651,-4.5833,-4.589,-4.588,-4.5375,-4.5216,-4.5003,-4.4527,-4.4434,-4.4434,-4.4434,-4.4911,-4.5201,-4.5201,-4.5595,-4.588,-4.588,-4.588,-4.588,-4.588,-4.588,-4.588,-4.588,-4.588,-4.588,-4.588,-4.588,-4.588,-4.588,-4.588,-4.588,-4.588,-4.588,-4.588,-4.588,-4.588,-4.588,-4.588,-4.588,-4.588,-4.588,-4.588,-4.588,-4.588,0.0,0.0,0.0,0.0,0.0,0.0,0.0,0.0,0.0,0.0,0.0,0.0,0.0,0.0,0.0,0.0,0.0,0.0,0.0,0.0,-5.0869,-5.0201,-5.0114,-5.0108,-5.0108,-5.0082,-5.0082,-5.0108,-5.0057,-5.0012,-5.0012,-4.994,-4.9914,-4.9887,-4.9833,-4.9805,-4.9805,-4.975,-4.9577,-4.9283,-4.9283,0.0,0.0,0.0,0.0,0.0,0.0,0.0,0.0,-5.0749,-5.1208,-5.1716,-5.1268,0.0,0.0,0.0,0.0,0.0,-5.0159,-5.0652,-5.1158,-5.046,-5.0067,-4.9681,-4.8883,-4.8463,-4.8211,-4.7836,-4.7668,-4.7387,-4.6787,-4.6633,-4.6438,-4.6022,-4.5966,-4.5683,-4.4706,-4.4406,-4.4031,-4.3177,-4.2889,-4.2792,-4.2792,-4.3545,-4.4031,-4.4031,-4.4911,-4.5489,-4.5685,-4.5685,-4.5685,-4.588,-4.588,-4.588,-4.588,-4.588,-4.588,-4.588,-4.588,-4.588,-4.588,-4.588,-4.588,-4.588,-4.588,-4.588,-4.588,-4.588,-4.588,-4.588,-4.588,-4.588,-4.588,-4.588,-4.588,-4.588,0.0,0.0,0.0,0.0,0.0,0.0,0.0,0.0,0.0,0.0,0.0,0.0,0.0,0.0,0.0,0.0,0.0,0.0,0.0,-5.0639,-5.0164,-5.0031,-5.0082,-5.0108,-5.0108,-5.0057,-5.0057,-5.0108,-4.9778,-4.9588,-4.9588,-4.924,-4.9048,-4.9001,-4.8967,-4.8967,-4.8967,-4.8986,-4.8866,-4.8725,-4.8725,0.0,0.0,0.0,0.0,0.0,0.0,0.0,0.0,-5.1185,-5.1444,-5.1682,-5.1634,0.0,0.0,0.0,0.0,0.0,-4.9471,-4.9571,-4.9595,-4.9231,-4.9127,-4.8883,-4.8065,-4.782,-4.7819,-4.7911,-4.7373,-4.6803,-4.6532,-4.6336,-4.5978,-4.5186,-4.5521,-4.584,-4.5671,-4.4897,-4.4219,-4.4125,-4.3355,-4.2792,-4.2792,-4.2985,-4.3081,-4.3081,-4.3177,-4.3654,-4.4513,-4.4513,-4.4989,-4.588,-4.588,-4.588,-4.588,-4.588,-4.588,-4.588,-4.588,-4.588,-4.588,-4.588,-4.588,-4.588,-4.588,-4.588,-4.588,-4.588,-4.588,-4.588,-4.588,-4.588,-4.588,-4.588,-4.588,-4.588,0.0,0.0,0.0,0.0,0.0,0.0,0.0,0.0,0.0,0.0,0.0,0.0,0.0,0.0,0.0,0.0,0.0,0.0,0.0,-5.0882,-5.0363,-4.9683,-4.9712,-4.9722,-4.9722,-4.948,-4.937,-4.9401,-4.9145,-4.9067,-4.9118,-4.8881,-4.8779,-4.8816,-4.8692,-4.8657,-4.8674,-4.8639,-4.8458,-4.8216,0.0,0.0,0.0,0.0,0.0,0.0,0.0,0.0,0.0,0.0,-5.1304,-5.1047,-5.1031,0.0,0.0,0.0,0.0,0.0,-4.8564,-4.8446,-4.8239,-4.7357,-4.7819,-4.8111,-4.688,-4.6872,-4.7029,-4.6661,-4.6573,-4.65,-4.6361,-4.616,-4.5996,-4.5536,-4.5197,-4.4819,-4.4326,-4.3259,-4.2377,-4.1914,-4.1432,-4.1145,-4.1145,-4.1631,-4.2208,-4.2792,-4.2792,-4.3464,-4.5095,-4.4606,-4.4805,-4.588,-4.588,-4.588,-4.588,-4.588,-4.588,-4.588,-4.588,-4.588,-4.588,-4.588,-4.588,-4.5909,-4.6243,-4.6392,-4.6456,-4.6789,-4.6964,-4.6964,-4.6964,-4.693,-4.6896,-4.6901,-4.6909,-4.6944,0.0,0.0,0.0,0.0,0.0,0.0,0.0,0.0,0.0,0.0,0.0,0.0,0.0,0.0,0.0,0.0,0.0,0.0,0.0,-5.073,-5.0195,-4.9239,-4.9155,-4.9137,-4.922,-4.8919,-4.8728,-4.8728,-4.8512,-4.844,-4.844,-4.8329,-4.8329,-4.844,-4.8272,-4.8272,-4.8291,-4.8234,-4.802,-4.7733,0.0,0.0,0.0,0.0,0.0,0.0,0.0,0.0,0.0,0.0,0.0,0.0,0.0,0.0,0.0,-4.8762,-4.858,-4.8282,-4.767,-4.7354,-4.703,-4.6119,-4.677,-4.7204,-4.5927,-4.6065,-4.6309,-4.5973,-4.6134,-4.631,-4.6322,-4.5999,-4.5654,-4.5584,-4.462,-4.364,-4.2889,-4.1914,-4.0932,-4.0173,-3.989,-3.9697,-3.9697,-4.0364,-4.1332,-4.2306,-4.2208,-4.3081,-4.5398,-4.4513,-4.4513,-4.588,-4.588,-4.588,-4.588,-4.588,-4.588,-4.588,-4.588,-4.588,-4.588,-4.588,-4.5967,-4.6127,-4.6639,-4.6876,-4.7058,-4.761,-4.778,-4.778,-4.7823,-4.7774,-4.7803,-4.7765,-4.7823,-4.783,0.0,0.0,0.0,0.0,0.0,0.0,0.0,0.0,0.0,0.0,0.0,0.0,0.0,0.0,0.0,0.0,0.0,0.0,-5.0219,-4.9405,-4.8887,-4.8655,-4.8365,-4.8346,-4.8655,-4.862,-4.8584,-4.8531,-4.8119,-4.7756,-4.7432,-4.7389,-4.7389,-4.7432,-4.7371,-4.7371,-4.7371,-4.7389,-4.732,-4.7321,-4.7976,0.0,0.0,0.0,0.0,0.0,0.0,0.0,0.0,0.0,0.0,0.0,0.0,0.0,-4.8168,-4.8135,-4.7606,-4.7062,-4.6961,-4.6426,-4.5927,-4.6534,-4.626,-4.5766,-4.5479,-4.5434,-4.5834,-4.7127,-4.6683,-4.6337,-4.701,-4.5692,-4.4442,-4.4406,-4.3559,-4.2889,-4.2792,-4.1914,-4.1119,-4.1132,-4.0262,-3.9697,-3.9697,-3.9788,-4.0275,-4.1219,-4.0465,-4.1246,-4.4219,-4.3464,-4.3857,-4.588,-4.588,-4.588,-4.588,-4.588,-4.588,-4.588,-4.588,-4.588,-4.588,-4.588,-4.6214,-4.6751,-4.6792,-4.7175,-4.7741,-4.7774,-4.7767,-4.7782,-4.7782,-4.784,-4.7829,-4.7814,-4.7794,-4.7817,0.0,0.0,0.0,0.0,0.0,0.0,0.0,0.0,0.0,0.0,0.0,0.0,0.0,0.0,0.0,0.0,0.0,0.0,-4.9157,-4.8806,-4.8458,-4.8196,-4.8059,-4.7879,-4.7715,-4.7779,-4.7779,-4.7756,-4.7609,-4.7432,-4.7267,-4.7267,-4.7249,-4.7302,-4.7143,-4.6944,-4.6707,-4.6989,-4.6932,-4.6737,-4.7368,-4.7973,0.0,0.0,0.0,0.0,0.0,0.0,0.0,0.0,-4.9032,-4.8539,-4.8544,-4.7985,-4.7338,-4.7338,-4.7123,-4.6807,-4.6285,-4.6262,-4.6127,-4.5371,-4.5242,-4.5331,-4.5269,-4.5565,-4.5838,-4.5858,-4.5974,-4.5888,-4.545,-4.4762,-4.4125,-4.345,-4.2488,-4.1815,-4.1815,-4.0945,-4.0262,-4.0262,-3.9878,-3.9697,-3.9697,-3.9697,-4.007,-4.1119,-4.0262,-4.1045,-4.4125,-4.3355,-4.3748,-4.579,-4.588,-4.588,-4.588,-4.588,-4.588,-4.588,-4.588,-4.588,-4.588,-4.588,-4.6218,-4.6851,-4.7216,-4.7798,-4.8381,-4.8836,-4.8957,-4.8957,-4.8948,-4.8986,-4.8966,-4.8966,-4.8995,-4.8957,0.0,0.0,0.0,0.0,0.0,0.0,0.0,0.0,0.0,0.0,0.0,0.0,0.0,0.0,0.0,0.0,0.0,0.0,-4.8155,-4.8119,-4.798,-4.7692,-4.7692,-4.75,-4.7133,-4.7205,-4.7187,-4.7187,-4.7035,-4.7007,-4.7133,-4.6778,-4.6713,-4.6944,-4.6602,-4.642,-4.6368,-4.6667,-4.6807,-4.6783,-4.7438,-4.8116,0.0,0.0,0.0,0.0,0.0,0.0,0.0,0.0,-4.8197,-4.772,-4.772,-4.7322,-4.6876,-4.6876,-4.6738,-4.642,-4.6126,-4.5931,-4.5696,-4.5011,-4.4965,-4.5198,-4.5406,-4.5543,-4.5607,-4.5332,-4.5277,-4.5187,-4.4406,-4.3735,-4.3054,-4.239,-4.1432,-4.0743,-4.0743,-4.0173,-3.9697,-3.9697,-3.9697,-3.9697,-3.9697,-3.9697,-4.007,-4.1119,-4.0262,-4.1045,-4.4125,-4.3355,-4.3748,-4.579,-4.588,-4.588,-4.588,-4.588,-4.588,-4.588,-4.588,-4.588,-4.588,-4.588,-4.6381,-4.7131,-4.7633,-4.8301,-4.9075,-4.9537,-4.9669,-4.9669,-4.9669,-4.9669,-4.9669,-4.9669,-4.9669,-4.9752,0.0,0.0,0.0,0.0,0.0,0.0,0.0,0.0,-5.0301,-5.1092,-5.1206,0.0,0.0,0.0,0.0,0.0,0.0,0.0,-4.7302,-4.732,-4.7294,-4.7196,-4.7196,-4.7133,-4.6998,-4.6998,-4.6998,-4.6998,-4.6429,-4.6477,-4.6934,-4.5835,-4.5631,-4.6186,-4.558,-4.5681,-4.6404,-4.6404,-4.6852,-4.7554,-4.8385,-4.8678,-4.8744,0.0,0.0,0.0,0.0,0.0,0.0,0.0,-4.7059,-4.6876,-4.6876,-4.6876,-4.6876,-4.6876,-4.6301,-4.5871,-4.6508,-4.5448,-4.4504,-4.5804,-4.5461,-4.5068,-4.5735,-4.5372,-4.5082,-4.575,-4.5003,-4.4312,-4.4312,-4.2571,-4.1219,-4.1219,-4.0364,-3.9697,-3.9697,-3.9697,-3.9697,-3.9697,-3.9697,-3.9697,-3.9697,-3.9697,-4.007,-4.1119,-4.0262,-4.1045,-4.4111,-4.3355,-4.3748,-4.579,-4.588,-4.588,-4.588,-4.588,-4.588,-4.588,-4.588,-4.588,-4.588,-4.588,-4.6581,-4.7785,-4.7756,-4.8546,-4.9669,-4.9669,-4.9669,-4.9669,-4.9669,-4.9669,-4.9669,-4.9669,-4.9669,-4.9708,0.0,0.0,0.0,0.0,0.0,0.0,0.0,0.0,-5.041,-5.1725,-5.1385,0.0,0.0,0.0,0.0,0.0,0.0,0.0,-4.7116,-4.707,-4.707,-4.7043,-4.7043,-4.6934,-4.6731,-4.6332,-4.6235,-4.6447,-4.5852,-4.5631,-4.5784,-4.5459,-4.5425,-4.5597,-4.5925,-4.598,-4.592,-4.6824,-4.7152,-4.715,-4.7725,-4.8099,-4.8231,0.0,0.0,0.0,0.0,0.0,0.0,0.0,0.0,0.0,-4.6876,-4.6876,-4.6807,-4.6214,-4.6206,-4.619,-4.5231,-4.5242,-4.5471,-4.5286,-4.5404,-4.5648,-4.5837,-4.5735,-4.5454,-4.4854,-4.4499,-4.3829,-4.2377,-4.1604,-4.0932,-4.0262,-3.989,-3.9697,-3.9697,-3.9697,-3.9697,-3.9697,-3.9697,-3.9697,-3.9697,-3.9697,-3.9788,-4.007,-3.989,-4.0756,-4.3081,-4.2985,-4.3748,-4.579,-4.588,-4.588,-4.588,-4.588,-4.588,-4.588,-4.588,-4.588,-4.588,-4.588,-4.6617,-4.7847,-4.782,-4.8546,-4.9669,-4.9669,-4.9669,-4.9669,-4.9669,-4.9669,-4.9669,-4.9669,-4.9669,-4.9752,0.0,0.0,0.0,0.0,0.0,0.0,0.0,0.0,-5.0601,-5.1137,-5.0749,-5.019,0.0,0.0,0.0,0.0,0.0,0.0,-4.6888,-4.6842,-4.6778,-4.6684,-4.6507,-4.6231,-4.59,-4.5355,-4.5144,-4.5303,-4.5108,-4.5054,-4.5197,-4.4838,-4.4899,-4.5426,-4.5648,-4.5865,-4.6193,-4.6972,-4.7295,-4.7386,-4.7709,-4.8082,-4.8413,0.0,0.0,0.0,0.0,0.0,0.0,0.0,0.0,0.0,-4.6876,-4.6657,-4.6391,-4.6181,-4.5887,-4.5634,-4.5131,-4.5283,-4.5607,-4.539,-4.559,-4.588,-4.588,-4.588,-4.5595,-4.4499,-4.4031,-4.3163,-4.1505,-4.0831,-4.0364,-3.9788,-3.9697,-3.9697,-3.9697,-3.9697,-3.9697,-3.9697,-3.9697,-3.9697,-3.9697,-3.9697,-3.9697,-3.9697,-3.9697,-4.0567,-4.2695,-4.2792,-4.3748,-4.579,-4.588,-4.588,-4.588,-4.588,-4.588,-4.588,-4.588,-4.588,-4.588,-4.588,-4.6456,-4.7403,-4.7955,-4.8698,-4.9669,-4.9669,-4.9669,-4.9669,-4.9669,-4.9669,-4.9669,-4.9669,-4.9781,-4.9863,0.0,0.0,-4.9898,-4.9898,0.0,0.0,0.0,0.0,-5.0837,-4.987,-4.9671,-4.9365,0.0,0.0,0.0,0.0,0.0,0.0,-4.6637,-4.659,-4.6429,-4.6137,-4.5683,-4.5163,-4.4736,-4.4249,-4.3922,-4.3881,-4.4202,-4.4541,-4.4892,-4.4056,-4.4297,-4.5462,-4.5063,-4.5603,-4.6943,-4.7073,-4.7504,-4.8166,-4.815,-4.8546,-4.9027,-4.8101,0.0,0.0,0.0,0.0,0.0,0.0,0.0,0.0,-4.6765,-4.6237,-4.5739,-4.6335,-4.5401,-4.4534,-4.5704,-4.5505,-4.5126,-4.5735,-4.588,-4.588,-4.588,-4.579,-4.5489,-4.4406,-4.3355,-4.2293,-4.1219,-4.0364,-3.9697,-3.9697,-3.9697,-3.9697,-3.9697,-3.9697,-3.9697,-3.9697,-3.9697,-3.9697,-3.9697,-3.9697,-3.9697,-3.9697,-3.9697,-4.0567,-4.2598,-4.2792,-4.3748,-4.5685,-4.588,-4.588,-4.588,-4.588,-4.588,-4.588,-4.588,-4.588,-4.588,-4.588,-4.625,-4.6854,-4.8143,-4.9029,-4.9625,-4.9654,-4.9669,-4.9669,-4.9669,-4.9669,-4.9781,-4.9781,-4.9878,-5.0168,0.0,0.0,-4.9898,-4.9898,0.0,0.0,0.0,0.0,0.0,-5.0295,0.0,0.0,0.0,0.0,0.0,0.0,0.0,0.0,-4.659,-4.6381,-4.6119,-4.5683,-4.502,-4.4473,-4.4192,-4.3823,-4.3519,-4.3113,-4.3279,-4.3459,-4.3562,-4.3871,-4.4233,-4.4554,-4.5598,-4.652,-4.7324,-4.81,-4.8727,-4.929,-4.9626,-4.964,-4.9426,-4.8633,-4.836,0.0,0.0,0.0,0.0,0.0,0.0,0.0,-4.5953,-4.5385,-4.4739,-4.4713,-4.486,-4.5034,-4.5082,-4.5434,-4.5706,-4.5851,-4.588,-4.588,-4.588,-4.5293,-4.4312,-4.3355,-4.2293,-4.1219,-4.0173,-3.989,-3.9697,-3.9697,-3.9697,-3.9697,-3.9697,-3.9697,-3.9697,-3.9697,-3.9697,-3.9697,-3.9697,-3.9697,-3.9697,-3.9697,-3.9697,-4.0275,-4.1518,-4.2293,-4.3368,-4.4606,-4.5489,-4.588,-4.588,-4.588,-4.588,-4.588,-4.588,-4.588,-4.588,-4.588,-4.625,-4.6854,-4.8143,-4.8787,-4.8971,-4.9455,-4.9669,-4.9669,-4.9669,-4.9863,-5.0042,-4.9975,-5.0183,-5.0486,0.0,0.0,0.0,0.0,0.0,0.0,0.0,0.0,0.0,0.0,0.0,0.0,0.0,0.0,0.0,0.0,-4.6363,-4.6003,-4.5903,-4.5528,-4.5074,-4.4456,-4.4095,-4.3689,-4.3366,-4.3202,-4.299,-4.2775,-4.3504,-4.3793,-4.3546,-4.4671,-4.5422,-4.5799,-4.6913,-4.783,-4.8466,-4.8981,-4.9349,-4.9601,-4.9389,-4.9144,-4.8895,-4.7668,-4.7148,-4.6909,-4.6035,0.0,0.0,0.0,0.0,0.0,0.0,0.0,-4.4482,-4.4982,-4.5104,-4.5108,-4.5361,-4.5619,-4.588,-4.588,-4.588,-4.588,-4.588,-4.4712,-4.345,-4.2889,-4.1914,-4.0932,-3.989,-3.9697,-3.9697,-3.9697,-3.9697,-3.9697,-3.9697,-3.9697,-3.9697,-3.9697,-3.9697,-3.9697,-3.9697,-3.9697,-3.9697,-3.9697,-3.9697,-4.0173,-4.1119,-4.2208,-4.3259,-4.4312,-4.5384,-4.588,-4.588,-4.588,-4.588,-4.588,-4.588,-4.588,-4.588,-4.588,-4.625,-4.681,-4.7483,-4.8129,-4.8758,-4.9043,-4.9412,-4.9669,-4.9863,-4.996,-5.0168,-5.0279,-5.0471,-5.0647,0.0,0.0,0.0,0.0,0.0,0.0,0.0,0.0,0.0,0.0,0.0,0.0,0.0,0.0,0.0,0.0,0.0,0.0,-4.5001,-4.449,-4.3922,-4.3306,-4.3246,-4.3035,-4.2634,-4.2747,-4.2877,-4.3006,-4.43,-4.4768,-4.448,-4.5929,-4.6927,-4.7547,-4.8266,-4.9001,-4.9687,-4.9583,-4.9556,-4.9588,-4.8757,-4.8362,-4.8118,-4.6516,-4.5849,-4.5643,-4.4788,-4.4528,-4.4543,-4.4606,0.0,0.0,0.0,0.0,-4.4399,-4.5543,-4.5461,-4.5039,-4.5706,-4.588,-4.588,-4.588,-4.588,-4.588,-4.588,-4.434,-4.2792,-4.2792,-4.1815,-4.0642,-3.989,-3.9697,-3.9697,-3.9697,-3.9697,-3.9697,-3.9697,-3.9697,-3.9697,-3.9697,-3.9697,-3.9697,-3.9697,-3.9697,-3.9697,-3.9697,-3.9697,-4.0083,-4.0932,-4.211,-4.3191,-4.4007,-4.523,-4.588,-4.588,-4.588,-4.588,-4.588,-4.588,-4.588,-4.588,-4.5898,-4.6237,-4.6663,-4.6722,-4.7454,-4.8557,-4.8711,-4.918,-4.9781,-5.0057,-5.0154,-5.0279,-5.0486,-5.0662,-5.0902,0.0,0.0,0.0,0.0,0.0,0.0,0.0,0.0,0.0,0.0,-4.777,-4.7475,0.0,0.0,-4.6411,-4.5716,-4.5355,-4.4984,-4.4546,0.0,0.0,-4.3306,-4.2912,-4.268,-4.2634,-4.3249,-4.3881,-4.4512,-4.517,-4.5769,-4.638,-4.7323,-4.7837,-4.7967,-4.8648,-4.9361,-4.9969,-4.9443,-4.9432,-4.9796,-4.9199,-4.8451,-4.7632,-4.6947,-4.624,-4.5546,-4.477,-4.4524,-4.4569,-4.5127,-4.48,0.0,0.0,0.0,-4.4153,-4.4865,-4.5011,-4.5039,-4.5706,-4.588,-4.588,-4.588,-4.588,-4.588,-4.588,-4.434,-4.2792,-4.2792,-4.1232,-3.989,-3.9697,-3.9697,-3.9697,-3.9697,-3.9697,-3.9697,-3.9697,-3.9697,-3.9697,-3.9697,-3.9697,-3.9697,-3.9697,-3.9697,-3.9697,-3.9697,-3.9697,-3.9788,-3.989,-4.173,-4.2817,-4.3017,-4.4882,-4.588,-4.588,-4.588,-4.588,-4.588,-4.588,-4.588,-4.588,-4.605,-4.6094,-4.6058,-4.6529,-4.727,-4.7946,-4.8763,-4.9399,-5.0086,-5.0294,-5.0567,-5.0713,-5.0728,-5.0917,-5.112,0.0,0.0,0.0,0.0,0.0,0.0,0.0,0.0,0.0,0.0,0.0,-4.6944,0.0,-4.62,-4.5631,-4.5303,-4.4529,-4.3864,-4.341,-4.308,-4.2912,-4.2912,-4.2333,-4.2124,-4.2523,-4.2426,-4.2915,-4.3985,-4.4986,-4.5863,-4.6578,-4.773,-4.8042,-4.7727,-4.845,-4.8922,-4.9206,-4.8873,-4.8905,-4.9,-4.8106,-4.7243,-4.6383,-4.5654,-4.4914,-4.4332,-4.422,-4.4205,-4.422,-4.4549,-4.4387,-4.4211,-4.4821,0.0,0.0,0.0,-4.543,-4.5503,-4.5808,-4.588,-4.588,-4.588,-4.588,-4.588,-4.588,-4.4712,-4.364,-4.364,-4.2012,-4.0364,-3.9788,-3.9697,-3.9697,-3.9697,-3.9697,-3.9697,-3.9697,-3.9697,-3.9697,-3.9697,-3.9697,-3.9697,-3.9697,-3.9697,-3.9697,-3.9697,-3.9697,-3.9697,-3.9697,-4.1054,-4.2164,-4.2789,-4.4228,-4.5277,-4.588,-4.588,-4.5924,-4.6072,-4.625,-4.6312,-4.6285,-4.6356,-4.6327,-4.6079,-4.6506,-4.7078,-4.7697,-4.8458,-4.9169,-4.986,-5.0419,-5.0728,-5.0807,-5.1011,-5.112,-5.1214,0.0,0.0,0.0,0.0,0.0,0.0,0.0,0.0,0.0,0.0,0.0,0.0,0.0,0.0,0.0,0.0,-4.3881,-4.308,-4.2634,-4.2429,-4.2285,-4.2285,-4.1765,-4.1695,-4.2213,-4.2014,-4.256,-4.3837,-4.4847,-4.5776,-4.6646,-4.7471,-4.76,-4.716,-4.8122,-4.8538,-4.8456,-4.8254,-4.8137,-4.8013,-4.6698,-4.5806,-4.5172,-4.457,-4.3863,-4.3394,-4.3855,-4.4027,-4.4013,-4.4185,-4.4269,-4.431,-4.4924,-4.5115,0.0,0.0,0.0,-4.588,-4.588,-4.588,-4.588,-4.588,-4.588,-4.588,-4.588,-4.5095,-4.4312,-4.4312,-4.2861,-4.1332,-4.0262,-3.989,-3.9697,-3.9697,-3.9697,-3.9697,-3.9697,-3.9697,-3.9697,-3.9697,-3.9697,-3.9697,-3.9697,-3.9697,-3.9697,-3.9697,-3.9981,-4.0134,-4.0055,-4.1319,-4.2396,-4.3118,-4.4219,-4.5219,-4.6014,-4.6058,-4.6133,-4.6268,-4.646,-4.658,-4.6632,-4.6661,-4.653,-4.6354,-4.6519,-4.6963,-4.7597,-4.8337,-4.9001,-4.9651,-5.057,-5.0902,-5.0917,-5.112,-5.1214,-5.1214,0.0,0.0,0.0,0.0,0.0,0.0,0.0,0.0,0.0,0.0,0.0,0.0,-4.6235,-4.5528,-4.4838,-4.4145,-4.3604,-4.308,-4.2634,-4.1948,-4.1525,-4.1525,-4.1479,0.0,-4.1478,-4.2709,-4.3927,-4.5279,-4.5233,-4.5927,-4.7186,-4.6432,-4.6031,-4.6077,-4.7729,-4.8491,-4.8426,-4.7593,-4.7288,-4.7134,-4.556,-4.4701,-4.4358,-4.4291,-4.3861,-4.3367,-4.4067,-4.4124,-4.4095,-4.4665,-4.4809,-4.4924,-4.5645,-4.5851,-4.5851,0.0,0.0,0.0,-4.588,-4.588,-4.588,-4.588,-4.588,-4.588,-4.588,-4.5095,-4.4312,-4.4312,-4.345,-4.2404,-4.1319,-4.0364,-3.9697,-3.9697,-3.9697,-3.9697,-3.9697,-3.9697,-3.9697,-3.9697,-3.9697,-3.9697,-3.9697,-3.9697,-3.9697,-3.9697,-4.0554,-4.1126,-4.1093,-4.3074,-4.4166,-4.418,-4.5468,-4.6101,-4.622,-4.6456,-4.6549,-4.6575,-4.659,-4.6575,-4.6647,-4.6837,-4.6882,-4.6882,-4.6681,-4.6963,-4.7597,-4.8519,-4.9263,-4.9961,-5.0881,-5.1214,-5.1214,-5.1214,-5.1214,-5.1214,0.0,0.0,0.0,0.0,0.0,0.0,0.0,0.0,0.0,0.0,0.0,0.0,0.0,-4.493,-4.4186,-4.3604,-4.3141,-4.2601,-4.1933,-4.1656,-4.1449,-4.1426,-4.0985,-4.1096,-4.1867,-4.1888,-4.2752,-4.4501,-4.4417,-4.5125,-4.6388,-4.606,-4.588,-4.597,-4.6578,-4.6852,-4.6766,-4.6505,-4.6399,-4.6296,-4.5579,-4.5272,-4.5146,-4.5326,-4.5124,-4.4835,-4.537,-4.5425,-4.5263,-4.5468,-4.5512,-4.5616,-4.5837,-4.588,-4.588,-4.588,-4.588,-4.588,-4.588,-4.588,-4.588,-4.588,-4.588,-4.588,-4.588,-4.5595,-4.5293,-4.5293,-4.4513,-4.364,-4.3245,-4.1802,-4.0453,-3.9788,-3.9697,-3.9697,-3.9697,-3.9697,-3.9697,-3.9697,-3.9697,-3.9697,-3.9697,-3.9697,-3.9981,-4.0655,-4.1032,-4.1516,-4.2364,-4.3145,-4.3857,-4.4667,-4.5166,-4.5738,-4.6491,-4.6697,-4.6755,-4.6751,-4.6942,-4.7073,-4.7073,-4.7118,-4.7133,-4.7133,-4.7061,-4.7138,-4.7435,-4.8179,-4.8925,-4.9597,-5.0254,-5.0855,-5.1214,-5.1214,-5.1214,-5.1214,0.0,0.0,0.0,0.0,0.0,-4.7931,-4.7409,-4.7116,-4.6998,-4.6998,0.0,0.0,0.0,0.0,-4.3562,-4.308,-4.2522,-4.2013,-4.1525,-4.1263,-4.1055,-4.1035,-4.0756,-4.0971,-4.1829,-4.1536,-4.2281,-4.3993,-4.3993,-4.4632,-4.588,-4.588,-4.588,-4.588,-4.588,-4.588,-4.588,-4.6016,-4.6046,-4.6014,-4.5689,-4.561,-4.5609,-4.58,-4.5768,-4.5623,-4.6168,-4.6164,-4.6029,-4.6029,-4.5924,-4.588,-4.588,-4.588,-4.588,-4.588,-4.588,-4.588,-4.588,-4.588,-4.588,-4.588,-4.588,-4.588,-4.588,-4.588,-4.588,-4.588,-4.5465,-4.5024,-4.4729,-4.3712,-4.2452,-4.101,-4.0185,-3.9788,-4.0173,-3.9878,-3.9697,-3.9697,-3.9981,-4.0236,-4.0196,-4.0568,-4.0987,-4.169,-4.204,-4.261,-4.3587,-4.3918,-4.455,-4.5651,-4.5623,-4.605,-4.6867,-4.6942,-4.7058,-4.7073,-4.7249,-4.7309,-4.7309,-4.7309,-4.7309,-4.7309,-4.7309,-4.7309,-4.7354,-4.8012,-4.8686,-4.9329,-4.9972,-5.0646,-5.1214,-5.1214,-5.1214,-5.1214,0.0,0.0,-4.9173,-4.8347,-4.7515,-4.6998,-4.6998,-4.6998,-4.6998,-4.6998,0.0,0.0,0.0,0.0,0.0,-4.2618,-4.1933,-4.1459,-4.1491,-4.0741,-4.0293,-4.0323,-4.0803,-4.1105,-4.1134,-4.1787,-4.2731,-4.3993,-4.4008,-4.4661,-4.588,-4.588,-4.588,-4.588,-4.588,-4.588,-4.5866,-4.6078,-4.6166,-4.6206,-4.5808,-4.5594,-4.5651,-4.5666,-4.568,-4.5725,-4.634,-4.6447,-4.622,-4.6235,-4.6072,-4.5895,-4.588,-4.588,-4.588,-4.588,-4.588,-4.588,0.0,0.0,0.0,-4.588,-4.588,-4.588,-4.5909,-4.5924,-4.5924,-4.5938,-4.6432,-4.6561,-4.5595,-4.5856,-4.5455,-4.3313,-4.1198,-4.0223,-4.1159,-4.0389,-3.9813,-3.9788,-4.0642,-4.1214,-4.1299,-4.2206,-4.282,-4.29,-4.3791,-4.4443,-4.4765,-4.5704,-4.6461,-4.6912,-4.6897,-4.7073,-4.7309,-4.7309,-4.7309,-4.7309,-4.7309,-4.7309,-4.7309,-4.7309,-4.7309,-4.7309,-4.7309,-4.7309,-4.7354,-4.7997,-4.8656,-4.9329,-4.9957,-5.0616,-5.1214,-5.1214,-5.1214,-5.1214,0.0,-4.9472,-4.8472,-4.8258,-4.7515,-4.6998,-4.6998,-4.6684,-4.6429,0.0,0.0,0.0,-4.4473,-4.3469,-4.2539,-4.1868,-4.1591,-4.1263,-4.0659,-4.0452,-4.0471,-4.0827,-4.1062,-4.1323,-4.1802,-4.2426,-4.3152,-4.3993,-4.4429,-4.5068,-4.588,-4.588,-4.588,-4.588,-4.588,-4.588,-4.5866,-4.6078,-4.6108,-4.6005,-4.6226,-4.6344,-4.6354,-4.6462,-4.6564,-4.652,-4.6783,-4.6694,-4.6505,-4.6533,-4.6293,-4.6087,-4.5909,-4.588,-4.588,-4.588,-4.588,-4.588,-4.588,0.0,0.0,0.0,0.0,0.0,-4.6461,-4.6563,-4.6693,-4.7158,-4.739,-4.7413,-4.7117,-4.6647,-4.6234,-4.64,-4.4661,-4.3218,-4.299,-4.2738,-4.2392,-4.1967,-4.2208,-4.2355,-4.2332,-4.265,-4.3152,-4.4133,-4.4429,-4.5074,-4.6275,-4.6739,-4.7063,-4.7163,-4.7148,-4.7264,-4.7309,-4.7309,-4.7309,-4.7309,-4.7309,-4.7309,-4.7309,-4.7309,-4.7309,-4.7309,-4.7309,-4.7309,-4.7309,-4.7504,-4.8252,-4.9284,-4.9464,-5.0227,-5.1214,-5.1214,-5.1214,-5.1214,-4.9603,-4.88,-4.8068,-4.7747,-4.7301,-4.6998,-4.6998,-4.6542,-4.6186,0.0,0.0,0.0,-4.3469,-4.2912,-4.2285,-4.1591,-4.1245,-4.0862,-4.0366,-4.0232,-4.047,-4.1047,-4.1366,-4.17,-4.2092,-4.2687,-4.3326,-4.3993,-4.4342,-4.4835,-4.5459,-4.5213,-4.5227,-4.5474,-4.5573,-4.5822,-4.6043,-4.6342,-4.6388,-4.6197,-4.655,-4.6726,-4.6712,-4.686,-4.6919,-4.6875,-4.6914,-4.6852,-4.6751,-4.6668,-4.6416,-4.6058,-4.5909,-4.588,-4.588,-4.588,-4.588,-4.588,-4.588,-4.588,-4.5953,-4.6214,0.0,0.0,-4.7085,-4.723,-4.7332,-4.7709,-4.7985,-4.8174,-4.8174,-4.787,-4.7835,-4.847,-4.7543,-4.6321,-4.4954,-4.4119,-4.3552,-4.3199,-4.3286,-4.341,-4.3446,-4.3918,-4.4573,-4.5242,-4.5392,-4.5852,-4.6845,-4.7123,-4.7309,-4.7309,-4.7309,-4.7309,-4.7309,-4.7309,-4.7309,-4.7309,-4.7309,-4.7309,-4.7309,-4.7309,-4.7309,-4.7309,-4.7309,-4.7309,-4.7324,-4.7593,-4.8327,-4.9299,-4.9568,-5.0301,-5.1214,-5.1214,-5.1214,-5.1214,0.0,-4.8104,-4.7818,-4.7105,-4.6934,-4.6888,-4.6888,-4.6381,-4.602,0.0,-4.4766,-4.3588,-4.268,-4.2492,-4.2142,-4.1444,-4.0768,-4.034,-4.0248,-4.0231,-4.051,-4.1178,-4.1773,-4.2121,-4.2194,-4.2789,-4.3427,-4.4095,-4.4095,-4.4356,-4.4879,-4.4269,-4.4313,-4.4908,-4.5179,-4.5631,-4.6206,-4.6695,-4.6785,-4.6653,-4.687,-4.6918,-4.6933,-4.6901,-4.6912,-4.6927,-4.6927,-4.6927,-4.6912,-4.6736,-4.6344,-4.6014,-4.5909,-4.5895,-4.588,-4.588,-4.588,-4.5895,-4.5967,-4.5996,-4.6142,-4.678,-4.694,0.0,-4.7738,-4.7883,-4.7912,-4.7985,-4.8435,-4.8827,-4.8827,-4.9291,-4.9669,-4.9669,-4.9669,-4.8942,-4.6809,-4.5136,-4.4149,-4.4081,-4.4248,-4.4475,-4.4496,-4.5573,-4.622,-4.6281,-4.6502,-4.6786,-4.6942,-4.7148,-4.7309,-4.7309,-4.7309,-4.7309,-4.7309,-4.7309,-4.7309,-4.7309,-4.7309,-4.7309,-4.7309,-4.7309,-4.7309,-4.7309,-4.7309,-4.7309,-4.7369,-4.8087,-4.8745,-4.9329,-4.9972,-5.0646,-5.1214,-5.1214,-5.1214,-5.1214,-4.8211,-4.7658,-4.7176,-4.7015,-4.6637,-4.635,-4.635,-4.5494,-4.4818,-4.4818,-4.3898,-4.3096,-4.2634,-4.2077,-4.1459,-4.069,-4.0446,-4.0263,-4.0169,-4.0604,-4.1192,-4.1874,-4.2034,-4.2324,-4.2803,-4.3456,-4.4095,-4.4705,-4.4705,-4.4763,-4.4879,-4.4269,-4.4313,-4.4908,-4.5179,-4.5619,-4.6182,-4.6491,-4.6753,-4.6855,-4.6912,-4.687,-4.6872,-4.6942,-4.7058,-4.7264,-4.7264,-4.7264,-4.7178,-4.6903,-4.6682,-4.6456,-4.6235,-4.6043,-4.588,-4.588,-4.588,-4.5996,-4.6505,-4.6635,-4.6795,-4.7433,-4.7593,0.0,-4.8391,-4.8537,-4.8696,-4.9204,-4.9407,-4.948,-4.948,-4.9596,-4.9669,-4.9669,-4.9669,-4.931,-4.8336,-4.7482,-4.6827,-4.6224,-4.5858,-4.5605,-4.5854,-4.6084,-4.6327,-4.6725,-4.7033,-4.7165,-4.7264,-4.7294,-4.7309,-4.7309,-4.7309,-4.7309,-4.7309,-4.7309,-4.7309,-4.7309,-4.7309,-4.7309,-4.7309,-4.7309,-4.7309,-4.7309,-4.7309,-4.7309,-4.7399,-4.8581,-4.9149,-4.9329,-4.9972,-5.0646,-5.1214,-5.1214,-5.1214,-5.1214,-4.7586,-4.7265,-4.6998,-4.6998,-4.6542,-4.6186,-4.6186,-4.5232,-4.4502,-4.4502,-4.368,-4.299,-4.2775,-4.2013,-4.1319,-4.0909,-4.0565,-4.0395,-4.0604,-4.0902,-4.1526,-4.2498,-4.2542,-4.2847,-4.3471,-4.411,-4.4443,-4.4443,-4.4443,-4.4356,-4.4108,-4.3481,-4.3624,-4.4337,-4.4909,-4.5522,-4.6138,-4.6723,-4.7043,-4.7103,-4.6927,-4.6942,-4.7103,-4.7103,-4.7148,-4.7309,-4.7309,-4.7249,-4.7103,-4.6989,-4.6712,-4.6416,-4.6208,-4.6089,-4.588,-4.6046,-4.6189,-4.6432,-4.6843,-4.7163,-4.7462,-4.8101,-4.8246,0.0,0.0,-4.9204,-4.9291,-4.9805,-4.9878,-4.9975,-5.0086,-5.0086,-5.0086,-5.0086,-5.0086,-4.9969,-4.9647,-4.8581,-4.7738,-4.7435,-4.6635,-4.6116,-4.6427,-4.652,-4.6726,-4.7103,-4.7264,-4.7309,-4.7309,-4.7309,-4.7309,-4.7309,-4.7309,-4.7309,-4.7309,-4.7309,-4.7309,-4.7309,-4.7309,-4.7309,-4.7309,-4.7309,-4.7309,-4.7309,-4.7309,-4.7489,-4.7878,-4.885,-4.9464,-4.9823,-5.0466,-5.093,-5.1214,-5.1214,-5.1214,-5.1214,-4.702,-4.6931,-4.6824,-4.6666,-4.6217,-4.587,-4.587,-4.4964,-4.4333,-4.4276,-4.3638,-4.3052,-4.2743,-4.1868,-4.1278,-4.102,-4.0514,-4.0524,-4.1098,-4.1323,-4.1976,-4.3137,-4.3181,-4.3485,-4.4153,-4.4632,-4.4647,-4.4153,-4.4138,-4.3816,-4.3244,-4.2685,-4.2908,-4.3749,-4.4593,-4.5345,-4.6094,-4.6944,-4.7309,-4.7294,-4.7073,-4.7103,-4.7309,-4.7309,-4.7309,-4.7309,-4.7309,-4.7133,-4.6942,-4.6942,-4.6681,-4.6329,-4.6314,-4.621,-4.6075,-4.6371,-4.669,-4.7066,-4.7512,-4.7858,-4.8304,-4.885,-4.901,-4.9141,0.0,0.0,0.0,-5.0086,-5.0183,-5.0198,-5.0501,-5.0501,-5.0456,-5.0324,-5.0442,-5.0471,-5.0338,-4.8909,-4.8014,-4.8108,-4.7061,-4.6383,-4.6592,-4.6858,-4.7088,-4.7294,-4.7309,-4.7309,-4.7309,-4.7309,-4.7309,-4.7309,-4.7309,-4.7309,-4.7309,-4.7309,-4.7309,-4.7309,-4.7309,-4.7309,-4.7309,-4.7309,-4.7309,-4.7309,-4.7309,-4.7683,-4.8341,-4.9,-4.9658,-5.0301,-5.096,-5.1214,-5.1214,-5.1214,-5.1214,-5.1214,-4.7128,-4.6724,-4.6119,-4.558,-4.5072,-4.4708,-4.4708,-4.4121,-4.3671,-4.3552,-4.3432,-4.2974,-4.1997,-4.1245,-4.0447,-3.9625,-3.9917,-4.0386,-4.1047,-4.215,-4.3108,-4.3848,-4.3877,-4.4153,-4.4763,-4.485,-4.485,-4.4792,-4.4399,-4.3887,-4.3328,-4.2834,-4.3057,-4.3735,-4.4629,-4.535,-4.6094,-4.6944,-4.7309,-4.7309,-4.7294,-4.7294,-4.7309,-4.7309,-4.7309,-4.7309,-4.7309,-4.7294,-4.7279,-4.7279,-4.7091,-4.6814,-4.6829,-4.6668,-4.6624,-4.7272,-4.7494,-4.7727,-4.8953,-4.9228,-4.9434,-4.9808,-5.008,-5.0206,-5.0072,0.0,-5.0405,-5.0501,0.0,-5.0501,-5.0501,0.0,0.0,-4.9705,-5.0081,-5.0302,-4.9734,-4.8953,-4.8435,-4.8486,-4.7318,-4.6652,-4.6827,-4.7133,-4.7294,-4.7309,-4.7309,-4.7309,-4.7309,-4.7309,-4.7309,-4.7309,-4.7309,-4.7309,-4.7309,-4.7309,-4.7309,-4.7309,-4.7309,-4.7309,-4.7309,-4.7309,-4.7309,-4.7309,-4.7309,-4.7683,-4.8341,-4.9,-4.9658,-5.0301,-5.096,-5.1214,-5.1214,-5.1214,-5.1214,-5.1214,-4.6795,-4.6204,-4.558,-4.5355,-4.4855,-4.4502,-4.4502,-4.4006,-4.3568,-4.3492,-4.3449,-4.3052,-4.219,-4.174,-4.1086,-4.0106,-4.0521,-4.1106,-4.1628,-4.2498,-4.3442,-4.4458,-4.4501,-4.4806,-4.5459,-4.5082,-4.4792,-4.4516,-4.3974,-4.35,-4.3086,-4.2968,-4.3078,-4.3471,-4.4229,-4.4965,-4.5676,-4.6397,-4.6927,-4.7309,-4.7309,-4.7309,-4.7309,-4.7309,-4.7309,-4.7309,-4.7309,-4.7309,-4.7309,-4.7309,-4.7121,-4.6916,-4.6916,-4.6756,-4.6712,-4.754,-4.7908,-4.8319,-4.9434,-4.9873,-5.0147,-5.0331,-5.0405,-5.0501,-5.039,-5.0405,-5.0486,-5.0647,0.0,0.0,0.0,0.0,0.0,0.0,-5.0704,-5.0639,-4.9996,-4.9339,-4.8938,-4.8769,-4.7546,-4.6844,-4.7076,-4.7264,-4.7309,-4.7309,-4.7309,-4.7309,-4.7309,-4.7309,-4.7309,-4.7309,-4.7309,-4.7309,-4.7309,-4.7309,-4.7309,-4.7309,-4.7309,-4.7309,-4.7309,-4.7309,-4.7309,-4.7324,-4.7713,-4.8252,-4.891,-4.9568,-5.0212,-5.084,-5.1109,-5.1214,-5.1214,-5.1214,-5.1214,-5.1214,-4.6276,-4.5768,-4.524,-4.4927,-4.4524,-4.4219,-4.4219,-4.3906,-4.3628,-4.3628,-4.3509,-4.3199,-4.2573,-4.2228,-4.1743,-4.092,-4.1233,-4.1763,-4.2364,-4.3004,-4.3905,-4.5185,-4.5155,-4.5387,-4.588,-4.5316,-4.4763,-4.4308,-4.3749,-4.3322,-4.2981,-4.3076,-4.3155,-4.3359,-4.4018,-4.4654,-4.5317,-4.6022,-4.6718,-4.7309,-4.7309,-4.7309,-4.7309,-4.7309,-4.7309,-4.7309,-4.7309,-4.7309,-4.7309,-4.7309,-4.7207,-4.7019,-4.7019,-4.6931,-4.7022,-4.8015,-4.8505,-4.8978,-5.0009,-5.0496,-5.0677,-5.0567,-5.0677,-5.0677,-5.0581,-5.0677,-5.0757,-5.0917,-5.0917,0.0,0.0,0.0,-5.1154,-5.0945,0.0,-5.0945,-5.006,-4.9548,-4.9208,-4.876,-4.7731,-4.7081,-4.7252,-4.7309,-4.7309,-4.7309,-4.7309,-4.7309,-4.7309,-4.7309,-4.7309,-4.7309,-4.7309,-4.7309,-4.7309,-4.7309,-4.7309,-4.7309,-4.7309,-4.7309,-4.7309,-4.7309,-4.7399,-4.7593,-4.8072,-4.876,-4.9568,-5.0047,-5.0631,-5.1214,-5.1214,-5.1214,-5.1214,-5.1214,-5.1214,-5.1214,-4.5801,-4.5697,-4.5192,-4.3863,-4.3628,-4.3628,-4.3628,-4.3628,-4.3628,-4.3628,-4.3628,-4.3497,-4.3167,-4.2573,-4.2027,-4.1489,-4.1636,-4.2195,-4.3324,-4.3913,-4.4849,-4.6122,-4.5927,-4.5866,-4.588,-4.5419,-4.4937,-4.4308,-4.4069,-4.3664,-4.2981,-4.317,-4.325,-4.3359,-4.4018,-4.4668,-4.5372,-4.5978,-4.6711,-4.7309,-4.7309,-4.7309,-4.7309,-4.7309,-4.7309,-4.7309,-4.7309,-4.7309,-4.7309,-4.7309,-4.7309,-4.7309,-4.7309,-4.7309,-4.7563,-4.885,-4.9254,-4.9553,-5.084,-5.1199,-5.112,-5.0822,-5.1011,-5.112,-5.0822,-5.1011,-5.1229,-5.1229,-5.1214,-5.1214,-5.1214,-5.1214,-5.0975,-5.0333,-5.0735,0.0,0.0,-4.9341,-4.9057,-4.8389,-4.7703,-4.7324,-4.7309,-4.7309,-4.7309,-4.7309,-4.7309,-4.7309,-4.7309,-4.7309,-4.7309,-4.7309,-4.7309,-4.7309,-4.7309,-4.7309,-4.7309,-4.7309,-4.7309,-4.7309,-4.7309,-4.7309,-4.7653,-4.8252,-4.8282,-4.9015,-5.0212,-5.0227,-5.0631,-5.1214,-5.1214,-5.1214,-5.1214,-5.1214,-5.1214,-5.1214,-4.5765,-4.5678,-4.543,-4.4517,-4.3943,-4.3628,-4.3628,-4.3628,-4.3628,-4.3628,-4.4026,-4.3919,-4.2853,-4.3787,-4.3758,-4.206,-4.3086,-4.3936,-4.3957,-4.4743,-4.5286,-4.5552,-4.5683,-4.5478,-4.5039,-4.4494,-4.4152,-4.4083,-4.3582,-4.3299,-4.317,-4.325,-4.3329,-4.3359,-4.4018,-4.4646,-4.5342,-4.6007,-4.6711,-4.7309,-4.7309,-4.7309,-4.7309,-4.7309,-4.7309,-4.7309,-4.7309,-4.7309,-4.7309,-4.7309,-4.7309,-4.7309,-4.7309,-4.7309,-4.7474,-4.8356,-4.8925,-4.9449,-5.0331,-5.0885,-5.1214,-5.112,-5.112,-5.1214,-5.112,-5.112,-5.1214,-5.1214,-5.1214,-5.1214,-5.1214,-5.1214,-5.1139,-5.0885,-5.105,-5.0732,0.0,-4.858,-4.7875,-4.7674,-4.7434,-4.7309,-4.7309,-4.7309,-4.7309,-4.7309,-4.7309,-4.7309,-4.7309,-4.7309,-4.7309,-4.7309,-4.7309,-4.7309,-4.7309,-4.7309,-4.7309,-4.7309,-4.7309,-4.7309,-4.7324,-4.7758,-4.8072,-4.8341,-4.9209,-4.9823,-5.0272,-5.0705,-5.102,-5.1214,-5.1214,-5.1214,-5.1214,-5.1214,-5.1214,-5.1214,-4.5757,-4.5974,-4.5864,-4.4854,-4.4092,-4.3628,-4.3628,-4.3628,-4.3711,-4.3976,-4.439,-4.4475,-4.3997,-4.4946,-4.4996,-4.3573,-4.4474,-4.4971,-4.4564,-4.5102,-4.5339,-4.5182,-4.5182,-4.5061,-4.4619,-4.4098,-4.3856,-4.4005,-4.3403,-4.3155,-4.3329,-4.3329,-4.3329,-4.3359,-4.4018,-4.4676,-4.5334,-4.6037,-4.6711,-4.7309,-4.7309,-4.7309,-4.7309,-4.7309,-4.7309,-4.7309,-4.7309,-4.7309,-4.7309,-4.7309,-4.7309,-4.7309,-4.7309,-4.7309,-4.7429,-4.8087,-4.8581,-4.9119,-4.9987,-5.0556,-5.093,-5.1154,-5.1214,-5.1214,-5.1214,-5.1214,-5.1214,-5.1214,-5.1214,-5.1214,-5.1214,-5.1214,-5.1214,-5.1214,-5.1214,-5.0732,0.0,-4.8163,-4.7309,-4.7309,-4.7309,-4.7309,-4.7309,-4.7309,-4.7309,-4.7309,-4.7309,-4.7309,-4.7309,-4.7309,-4.7309,-4.7309,-4.7309,-4.7309,-4.7309,-4.7309,-4.7309,-4.7309,-4.7309,-4.7429,-4.7668,-4.8087,-4.8536,-4.903,-4.9868,-5.0376,-5.0616,-5.105,-5.1214,-5.1214,-5.1214,-5.1214,-5.1214,-5.1214,-5.1214,-5.1214,-4.5748,-4.6295,-4.6328,-4.4887,-4.4075,-4.3628,-4.3628,-4.3661,-4.3926,-4.4605,-4.4787,-4.5276,-4.636,-4.6024,-4.5803,-4.6043,-4.5654,-4.5311,-4.5075,-4.5075,-4.506,-4.503,-4.4847,-4.4634,-4.4575,-4.4235,-4.3991,-4.3961,-4.3483,-4.3329,-4.3329,-4.3329,-4.3344,-4.3404,-4.4062,-4.4721,-4.5394,-4.6082,-4.6741,-4.7309,-4.7309,-4.7309,-4.7309,-4.7309,-4.7309,-4.7309,-4.7309,-4.7309,-4.7309,-4.7309,-4.7309,-4.7309,-4.7309,-4.7309,-4.7429,-4.8057,-4.8252,-4.8551,-4.9808,-5.0167,-5.0346,-5.1005,-5.1169,-5.1184,-5.1214,-5.1214,-5.1214,-5.1214,-5.1214,-5.1214,-5.1214,-5.1214,-5.1214,-5.1214,-5.1184,-5.071,-4.9422,-4.8136,-4.7309,-4.7309,-4.7309,-4.7309,-4.7309,-4.7309,-4.7309,-4.7309,-4.7309,-4.7309,-4.7309,-4.7309,-4.7309,-4.7309,-4.7309,-4.7309,-4.7309,-4.7309,-4.7309,-4.7309,-4.7339,-4.7683,-4.8282,-4.8356,-4.906,-5.0242,-5.0272,-5.0646,-5.1214,-5.1214,-5.1214,-5.1214,-5.1214,-5.1214,-5.1214,-5.1214,-5.1214,-5.1214,-4.5086,-4.5119,-4.497,-4.4059,-4.3744,-4.3628,-4.3628,-4.4075,-4.4473,-4.4671,-4.6129,-4.6797,-4.5943,-4.7076,-4.7418,-4.6346,-4.6606,-4.67,-4.6426,-4.6614,-4.6405,-4.5758,-4.5813,-4.5421,-4.4422,-4.4244,-4.3997,-4.3519,-4.3339,-4.3329,-4.3329,-4.3329,-4.3599,-4.4092,-4.4751,-4.5424,-4.6112,-4.677,-4.7145,-4.7309,-4.7309,-4.7309,-4.7309,-4.7309,-4.7309,-4.7309,-4.7309,-4.7309,-4.7309,-4.7309,-4.7309,-4.7309,-4.7309,-4.7309,-4.7339,-4.7504,-4.7908,-4.8356,-4.8701,-4.9149,-4.9673,-5.0331,-5.0496,-5.0616,-5.1109,-5.1214,-5.1214,-5.1214,-5.1214,-5.1214,-5.1214,-5.1214,-5.1214,-5.1214,-5.0377,-4.9471,-4.8706,-4.7797,-4.7309,-4.7309,-4.7309,-4.7309,-4.7309,-4.7309,-4.7309,-4.7309,-4.7309,-4.7309,-4.7309,-4.7309,-4.7309,-4.7309,-4.7309,-4.7309,-4.7309,-4.7309,-4.7309,-4.7309,-4.7803,-4.8117,-4.8312,-4.9299,-4.9912,-5.0272,-5.075,-5.1065,-5.1214,-5.1214,-5.1214,-5.1214,-5.1214,-5.1214,-5.1214,-5.1214,-5.1214,-5.1289,-4.4771,-4.4688,-4.4556,-4.4158,-4.4092,-4.4092,-4.4092,-4.4423,-4.5036,-4.6013,-4.7222,-4.7865,-4.7533,-4.8536,-4.8749,-4.7426,-4.7637,-4.7488,-4.6703,-4.6774,-4.6491,-4.5749,-4.5789,-4.5514,-4.4751,-4.4466,-4.4137,-4.3763,-4.3464,-4.3329,-4.3329,-4.3329,-4.3688,-4.4347,-4.5005,-4.5678,-4.6367,-4.7025,-4.7309,-4.7309,-4.7309,-4.7309,0.0,-4.7309,-4.7309,-4.7309,-4.7309,-4.7309,-4.7309,-4.7309,-4.7309,-4.7309,-4.7309,-4.7309,-4.7309,-4.7309,-4.7563,-4.7923,-4.8207,-4.8566,-4.9,-4.9643,-4.9823,-4.9912,-5.0287,-5.0586,-5.0795,-5.0795,-5.102,-5.1214,-5.1214,-5.1214,-5.1109,-5.078,-4.9682,-4.8759,-4.8377,-4.7722,-4.7309,-4.7309,-4.7309,-4.7309,-4.7309,-4.7309,-4.7309,-4.7309,-4.7309,-4.7309,-4.7309,-4.7309,-4.7309,-4.7309,-4.7309,-4.7309,-4.7309,-4.7309,-4.7459,-4.7743,-4.8117,-4.8581,-4.9164,-4.9898,-5.0391,-5.069,-5.1065,-5.1214,-5.1214,-5.1214,-5.1214,-5.1214,-5.1214,-5.1214,-5.1259,-5.1543,-5.1648,-5.1693,-4.4688,-4.4605,-4.4572,-4.4671,-4.4688,-4.4754,-4.4937,-4.5052,-4.5814,-4.7752,-4.8249,-4.8857,-4.9913,-5.0115,-4.9729,-4.8677,-4.8573,-4.7996,-4.6486,-4.6456,-4.6187,-4.5589,-4.5559,-4.5514,-4.5424,-4.487,-4.4526,-4.4436,-4.3778,-4.3464,-4.3464,-4.3374,-4.3718,-4.4466,-4.5035,-4.5723,-4.6486,-4.7055,-4.7309,-4.7309,-4.7309,-4.7309,-4.7309,-4.7309,-4.7309,-4.7309,-4.7309,-4.7309,-4.7309,-4.7309,-4.7309,-4.7309,-4.7309,-4.7309,-4.7309,-4.7309,-4.7309,-4.7429,-4.7997,-4.8162,-4.8312,-4.897,-4.9134,-4.9164,-4.9239,-4.9703,-5.0107,-5.0107,-5.0571,-5.096,-5.096,-5.096,-5.072,-5.0064,-4.906,-4.8282,-4.8226,-4.7692,-4.7309,-4.7309,-4.7309,0.0,-4.7309,-4.7309,-4.7309,-4.7309,-4.7309,-4.7309,-4.7309,-4.7309,-4.7309,-4.7309,-4.7309,-4.7309,-4.7309,-4.7399,-4.7713,-4.8282,-4.8461,-4.9134,-5.0242,-5.0331,-5.0676,-5.1214,-5.1214,-5.1214,-5.1214,-5.1214,-5.1214,-5.1214,-5.1214,-5.1274,-5.1409,-5.1992,-5.2306,-5.2456,-4.4688,-4.4208,-4.3992,-4.4572,-4.4688,-4.5102,-4.6328,-4.7023,-4.7554,-4.7951,-4.9574,-5.0537,-5.0075,-5.0568,-5.0256,-4.8708,-4.8573,-4.821,-4.7231,-4.713,-4.707,-4.695,-4.695,-4.6696,-4.6157,-4.6037,-4.5693,-4.5125,-4.4466,-4.4137,-4.4122,-4.3584,-4.3973,-4.5125,-4.5244,-4.5978,-4.7145,-4.7249,-4.7309,-4.7309,-4.7309,-4.7309,-4.7309,-4.7309,-4.7309,-4.7309,-4.7309,-4.7309,-4.7309,-4.7309,-4.7309,-4.7309,-4.7309,-4.7309,-4.7309,-4.7309,-4.7309,-4.7339,-4.7444,-4.7474,-4.7638,-4.8297,-4.8461,-4.8596,-4.9134,-4.9359,-4.9434,-4.9434,-4.9523,-4.9613,-4.9613,-4.9613,-4.9389,-4.8716,-4.8417,-4.8104,-4.759,-4.7339,-4.7309,-4.7309,-4.7309,-4.7309,-4.7309,-4.7309,-4.7309,-4.7309,-4.7309,-4.7309,-4.7309,-4.7309,-4.7309,-4.7309,-4.7309,-4.7309,-4.7309,-4.7848,-4.8177,-4.8297,-4.9389,-5.0017,-5.0257,-5.0795,-5.1109,-5.1214,-5.1214,-5.1214,-5.1214,-5.1214,-5.1214,-5.1214,-5.1214,-5.1558,-5.2037,-5.2157,-5.2905,-5.3862,-4.4141,-4.4158,-4.4274,-4.4622,-4.5317,-4.6079,-4.6792,-4.7852,-4.8713,-4.9094,-5.0386,-5.1272,-5.1261,-5.1532,-5.1268,-5.001,-4.9519,-4.8887,-4.8019,-4.7538,-4.7309,-4.7309,-4.7309,-4.716,-4.6845,-4.6501,-4.6157,-4.5828,-4.5155,-4.4825,-4.4811,-4.4496,-4.4885,-4.5843,-4.6187,-4.6696,-4.7309,-4.7309,-4.7309,-4.7309,-4.7309,-4.7309,-4.7309,-4.7309,-4.7309,-4.7309,-4.7309,-4.7309,-4.7309,-4.7309,-4.7309,-4.7309,-4.7309,-4.7309,-4.7309,-4.7309,-4.7309,-4.7309,-4.7309,-4.7309,-4.7384,-4.7698,-4.7773,-4.7863,-4.8177,-4.8521,-4.876,-4.876,-4.903,-4.9269,-4.9269,-4.8985,-4.8656,-4.8341,-4.8042,-4.7641,-4.7354,-4.7309,-4.7309,-4.7309,-4.7309,-4.7309,-4.7309,-4.7309,-4.7309,-4.7309,-4.7309,-4.7309,-4.7309,-4.7309,-4.7309,-4.7309,-4.7309,-4.7474,-4.7818,-4.8132,-4.8626,-4.9299,-4.9942,-5.0421,-5.075,-5.1065,-5.1214,-5.1214,-5.1214,-5.1214,-5.1214,-5.1214,-5.1214,-5.1244,-5.1588,-5.1917,-5.2276,-5.298,-5.3653,-5.4206,-4.381,-4.4307,-4.4787,-4.5102,-4.6129,-4.6941,-4.7106,-4.8382,-4.9541,-5.0137,-5.0833,-5.1562,-5.2307,-5.2373,-5.2069,-5.1194,-5.0461,-4.9742,-4.8872,-4.8256,-4.7864,-4.7864,-4.7864,-4.7779,-4.7538,-4.7026,-4.6686,-4.6531,-4.5843,-4.5439,-4.5289,-4.5289,-4.5663,-4.6352,-4.701,-4.7309,-4.7309,-4.7309,-4.7309,-4.7309,-4.7309,-4.7309,-4.7309,-4.7309,-4.7309,-4.7309,-4.7309,-4.7309,-4.7309,-4.7309,-4.7309,-4.7309,-4.7309,-4.7309,-4.7309,-4.7309,-4.7309,-4.7309,-4.7309,-4.7309,-4.7309,-4.7309,-4.7309,-4.7309,-4.7309,-4.7713,-4.8072,-4.8072,-4.8491,-4.885,-4.885,-4.8416,-4.8072,-4.8072,-4.7638,-4.7309,-4.7309,-4.7309,-4.7309,-4.7309,-4.7309,-4.7309,-4.7309,-4.7309,-4.7309,-4.7309,-4.7309,-4.7309,-4.7309,-4.7309,-4.7309,-4.7309,-4.7444,-4.7758,-4.8282,-4.8566,-4.9224,-5.0242,-5.0376,-5.072,-5.1214,-5.1214,-5.1214,-5.1214,-5.1214,-5.1214,-5.1214,-5.1214,-5.1214,-5.1274,-5.1798,-5.2067,-5.2336,-5.3399,-5.3877,-5.3997,-4.4456,-4.4638,-4.5102,-4.646,-4.6808,-4.7123,-4.7785,-4.9144,-5.0104,-5.0204,-5.0833,-5.1562,-5.2307,-5.2373,-5.2069,-5.1194,-5.1043,-5.0631,-4.9726,-4.9567,-4.9583,-4.9583,-4.9583,-4.9181,-4.849,-4.8429,-4.7996,-4.7219,-4.6546,-4.5918,-4.5289,-4.5289,-4.5663,-4.6352,-4.701,-4.7309,-4.7309,-4.7309,-4.7309,-4.7309,-4.7309,-4.7309,-4.7309,-4.7309,-4.7309,-4.7309,-4.7309,-4.7309,-4.7309,-4.7309,-4.7309,-4.7309,-4.7309,-4.7309,-4.7309,-4.7309,-4.7309,-4.7309,-4.7309,-4.7309,-4.7309,-4.7309,-4.7309,-4.7309,-4.7309,-4.7354,-4.7399,-4.7399,-4.7444,-4.7489,-4.7489,-4.7444,-4.7399,-4.7399,-4.7339,-4.7309,-4.7309,-4.7309,-4.7309,-4.7309,-4.7309,-4.7309,-4.7309,-4.7309,-4.7309,-4.7309,-4.7309,-4.7309,-4.7309,-4.7309,-4.7309,-4.7309,-4.7878,-4.8222,-4.8282,-4.9464,-5.0107,-5.0242,-5.084,-5.1154,-5.1214,-5.1214,-5.1214,-5.1214,-5.1214,-5.1214,-5.1214,-5.1214,-5.1214,-5.1229,-5.1289,-5.1678,-5.2217,-5.2336,-5.277,-5.3279,-4.5202,-4.5715,-4.6195,-4.6792,-4.7272,-4.7653,-4.7951,-4.8498,-4.9193,-5.0088,-5.1231,-5.2042,-5.2357,-5.2373,-5.2302,-5.1908,-5.1434,-5.0951,-5.0615,-5.0057,-4.9805,-4.9805,-4.9805,-4.9423,-4.8656,-4.8573,-4.8172,-4.7309,-4.704,-4.677,-4.6501,-4.6501,-4.6651,-4.692,-4.7189,-4.7309,-4.7309,-4.7309,-4.7309,-4.7309,-4.7309,-4.7309,-4.7309,-4.7309,-4.7309,-4.7309,-4.7309,-4.7309,-4.7309,-4.7309,-4.7309,-4.7309,-4.7309,-4.7309,-4.7309,-4.7309,-4.7309,-4.7309,-4.7309,-4.7309,-4.7309,-4.7309,-4.7309,-4.7309,-4.7309,-4.7309,-4.7309,-4.7309,-4.7309,-4.7309,-4.7309,-4.7309,-4.7309,-4.7309,-4.7309,-4.7309,-4.7309,-4.7309,-4.7309,-4.7309,-4.7309,-4.7309,-4.7309,-4.7309,-4.7309,-4.7309,-4.7309,-4.7309,-4.7309,-4.7309,-4.7309,-4.7309,-4.7938,-4.8476,-4.888,-4.9778,-5.0436,-5.0825,-5.1094,-5.1214,-5.1214,-5.1214,-5.1214,-5.1214,-5.1214,-5.1214,-5.1214,-5.1214,-5.1214,-5.1259,-5.1648,-5.1962,-5.2247,-5.2636,-5.295,-5.3174,-4.6026,-4.6527,-4.6957,-4.7189,-4.7653,-4.8001,-4.8001,-4.8183,-4.8696,-4.9756,-5.1148,-5.2142,-5.2357,-5.2373,-5.2373,-5.2373,-5.1835,-5.1508,-5.1508,-5.0935,-5.0522,-5.0522,-5.0522,-5.0057,-4.8953,-4.8953,-4.8407,-4.7309,-4.7309,-4.7204,-4.701,-4.701,-4.7115,-4.7309,-4.7309,-4.7309,-4.7309,-4.7309,-4.7309,-4.7309,-4.7309,-4.7309,-4.7309,-4.7309,-4.7309,-4.7309,-4.7309,-4.7309,-4.7309,-4.7309,-4.7309,-4.7309,-4.7309,-4.7309,-4.7309,-4.7309,-4.7309,-4.7309,-4.7309,-4.7309,-4.7309,-4.7309,-4.7309,-4.7309,-4.7309,-4.7309,-4.7309,-4.7309,-4.7309,-4.7309,-4.7309,-4.7309,-4.7309,-4.7309,-4.7309,-4.7309,-4.7309,-4.7309,-4.7309,-4.7309,-4.7309,-4.7309,-4.7309,-4.7309,-4.7309,-4.7309,-4.7309,-4.7309,-4.7309,-4.7476,-4.7581,-4.7593,-4.8416,-4.909,-4.9553,-5.0197,-5.0765,-5.1214,-5.1214,-5.1214,-5.1214,-5.1214,-5.1214,-5.1214,-5.1214,-5.1214,-5.1214,-5.1214,-5.1214,-5.1274,-5.1738,-5.1917,-5.1962,-5.2441,-5.2606,-5.2606,-4.6852,-4.6891,-4.7123,-4.7868,-4.8001,-4.8001,-4.8001,-4.863,-4.9094,-4.9127,-5.0386,-5.1562,-5.2307,-5.2373,-5.2373,-5.2373,-5.2373,-5.2373,-5.2373,-5.2373,-5.2373,-5.2373,-5.2373,-5.1565,-4.9805,-4.9805,-4.8953,-4.7309,-4.7309,-4.698,-4.6337,-4.6337,-4.6681,-4.7309,-4.7309,-4.7309,-4.7309,-4.7309,-4.7309,-4.7309,-4.7309,-4.7309,-4.7309,-4.7309,-4.7309,-4.7309,-4.7309,-4.7309,-4.7309,-4.7309,-4.7309,-4.7309,-4.7309,-4.7309,-4.7309,-4.7309,-4.7309,-4.7309,-4.7309,-4.7309,-4.7309,-4.7309,-4.7309,-4.7309,-4.7309,-4.7309,-4.7309,-4.7309,-4.7309,-4.7309,-4.7309,-4.7309,-4.7309,-4.7309,-4.7309,-4.7309,-4.7309,-4.7309,-4.7309,-4.7309,-4.7309,-4.7309,-4.7309,-4.7309,-4.7309,-4.7309,-4.7309,-4.7309,-4.7309,-4.7896,-4.8283,-4.8282,-4.9538,-5.0212,-5.0227,-5.087,-5.1214,-5.1214,-5.1214,-5.1214,-5.1214,-5.1214,-5.1214,-5.1214,-5.1214,-5.1214,-5.1214,-5.1214,-5.1214,-5.1214,-5.1229,-5.1229,-5.1229,-5.1244,-5.1244,-5.1244,-4.7616,-4.7653,-4.7719,-4.7968,-4.8001,-4.8001,-4.8001,-4.8199,-4.8531,-4.9044,-4.9508,-5.027,-5.1496,-5.2075,-5.2373,-5.2373,-5.2373,-5.2373,-5.2373,-5.2373,-5.2373,-5.2373,-5.2373,-5.1891,-5.0707,-5.0135,-4.9262,-4.8172,-4.7624,-4.7189,-4.6995,-4.6995,-4.7115,-4.7309,-4.7309,-4.7309,-4.7309,-4.7309,-4.7309,-4.7309,-4.7309,-4.7309,-4.7309,-4.7309,-4.7309,-4.7309,-4.7309,-4.7309,-4.7309,-4.7309,-4.7309,-4.7309,-4.7309,-4.7309,-4.7309,-4.7309,-4.7309,-4.7309,-4.7309,-4.7309,-4.7309,-4.7309,-4.7309,-4.7309,-4.7309,-4.7309,-4.7309,-4.7309,-4.7309,-4.7309,-4.7309,-4.7309,-4.7309,-4.7309,-4.7309,-4.7309,-4.7309,-4.7309,-4.7309,-4.7309,-4.7309,-4.7309,-4.7309,-4.7309,-4.7309,-4.7309,-4.7309,-4.7491,-4.7941,-4.8164,-4.8492,-4.894,-4.9793,-5.0242,-5.0242,-5.0885,-5.1214,-5.1214,-5.1214,-5.1214,-5.1214,-5.1214,-5.1214,-5.1214,-5.1214,-5.1214,-5.1214,-5.1214,-5.1214,-5.1214,-5.1214,-5.1214,-5.1214,-5.1214,-5.1214,-5.1214,-4.808,-4.8001,-4.8001,-4.8001,-4.8001,-4.8001,-4.8001,-4.8001,-4.8166,-4.863,-4.8945,-4.9458,-5.0353,-5.1363,-5.2075,-5.2357,-5.2373,-5.2373,-5.2373,-5.2373,-5.2373,-5.2373,-5.2373,-5.198,-5.1118,-5.0554,-4.9742,-4.8573,-4.7694,-4.7309,-4.7309,-4.7309,-4.7309,-4.7309,-4.7309,-4.7309,-4.7309,-4.7309,-4.7309,-4.7309,-4.7309,-4.7309,-4.7309,-4.7309,-4.7309,-4.7309,-4.7309,-4.7309,-4.7309,-4.7309,-4.7309,-4.7309,-4.7309,-4.7309,-4.7309,-4.7309,-4.7309,-4.7309,-4.7309,-4.7309,-4.7309,-4.7309,-4.7309,-4.7309,-4.7309,-4.7309,-4.7309,-4.7309,-4.7309,-4.7309,-4.7309,-4.7309,-4.7309,-4.7309,-4.7309,-4.7309,-4.7309,-4.7309,-4.7309,-4.7309,-4.7309,-4.7309,-4.7309,-4.7309,-4.7309,-4.7309,-4.7563,-4.7984,-4.8686,-4.8641,-4.894,-4.9613,-5.0272,-5.0616,-5.0616,-5.1005,-5.1214,-5.1214,-5.1214,-5.1214,-5.1214,-5.1214,-5.1214,-5.1214,-5.1214,-5.1214,-5.1214,-5.1214,-5.1214,-5.1214,-5.1214,-5.1214,-5.1214,-5.1214,-5.1214,-5.1214,-4.8227,-4.8001,-4.8001,-4.8001,-4.8001,-4.8001,-4.8001,-4.8001,-4.8001,-4.8001,-4.8597,-4.9044,-4.9094,-5.032,-5.1446,-5.2224,-5.2357,-5.2373,-5.2373,-5.2373,-5.2373,-5.2373,-5.2373,-5.198,-5.1194,-5.1118,-5.0245,-4.8573,-4.7694,-4.7309,-4.7309,-4.7309,-4.7309,-4.7309,-4.7309,-4.7309,-4.7309,-4.7309,-4.7309,-4.7309,-4.7309,-4.7309,-4.7309,-4.7309,-4.7309,-4.7309,-4.7309,-4.7309,-4.7309,-4.7309,-4.7309,-4.7309,-4.7309,-4.7309,-4.7309,-4.7309,-4.7309,-4.7309,-4.7309,-4.7309,-4.7309,-4.7309,-4.7309,-4.7309,-4.7309,-4.7309,-4.7309,-4.7309,-4.7309,-4.7309,-4.7309,-4.7309,-4.7309,-4.7309,-4.7309,-4.7309,-4.7309,-4.7309,-4.7309,-4.7309,-4.7309,-4.7309,-4.7309,-4.7309,-4.7324,-4.7384,-4.7954,-4.8611,-4.9329,-4.9342,-4.964,-5.0287,-5.09,-5.1214,-5.1214,-5.1214,-5.1214,-5.1214,-5.1214,-5.1214,-5.1214,-5.1214,-5.1214,-5.1214,-5.1214,-5.1214,-5.1214,-5.1214,-5.1214,-5.1214,-5.1214,-5.1214,-5.1214,-5.1214,-5.1214,-5.1229,-4.8227,-4.8001,-4.8001,-4.8001,-4.8001,-4.8001,-4.8001,-4.8001,-4.8001,-4.8001,-4.815,-4.8481,-4.9044,-4.9409,-5.0137,-5.1429,-5.2059,-5.2373,-5.2373,-5.2373,-5.2373,-5.2373,-5.2373,-5.2302,-5.2069,-5.1434,-5.0245,-4.8573,-4.7694,-4.7309,-4.7309,-4.7309,-4.7309,-4.7309,-4.7309,-4.7309,-4.7309,-4.7309,-4.7309,-4.7309,-4.7309,-4.7309,-4.7309,-4.7309,-4.7309,-4.7309,-4.7309,-4.7309,-4.7309,-4.7309,-4.7309,-4.7309,-4.7309,-4.7309,-4.7309,-4.7309,-4.7309,-4.7309,-4.7309,-4.7309,-4.7309,-4.7309,-4.7309,-4.7309,-4.7309,-4.7309,-4.7309,-4.7309,-4.7309,-4.7309,-4.7309,-4.7309,-4.7309,-4.7309,-4.7309,-4.7309,-4.7309,-4.7309,-4.7309,-4.7309,-4.7309,-4.7309,-4.7309,-4.7309,-4.7549,-4.8029,-4.8238,-4.8805,-4.9965,-4.9983,-5.0269,-5.0975,-5.1139,-5.1214,-5.1214,-5.1214,-5.1214,-5.1214,-5.1214,-5.1214,-5.1214,-5.1214,-5.1214,-5.1214,-5.1214,-5.1214,-5.1214,-5.1214,-5.1214,-5.1214,-5.1214,-5.1214,-5.1214,-5.1214,-5.1214,-5.1289,-4.8227,-4.8001,-4.8001,-4.8001,-4.8001,-4.8001,-4.8001,-4.8001,-4.8001,-4.8001,-4.8001,-4.815,-4.8547,-4.8912,-4.9558,-5.0701,-5.1462,-5.2026,-5.2357,-5.2373,-5.2373,-5.2373,-5.2373,-5.2373,-5.2373,-5.1908,-5.0876,-4.9197,-4.8324,-4.7694,-4.7309,-4.7309,-4.7309,-4.7309,-4.7309,-4.7309,-4.7309,-4.7309,-4.7309,-4.7309,-4.7309,-4.7309,-4.7309,-4.7309,-4.7309,-4.7309,-4.7309,-4.7309,-4.7309,-4.7309,-4.7309,-4.7309,-4.7309,-4.7309,-4.7309,-4.7309,-4.7309,-4.7309,-4.7309,-4.7309,-4.7309,-4.7309,-4.7309,-4.7309,-4.7309,-4.7309,-4.7309,-4.7309,-4.7309,-4.7309,-4.7309,-4.7309,-4.7309,-4.7309,-4.7309,-4.7309,-4.7309,-4.7309,-4.7309,-4.7309,-4.7309,-4.7309,-4.7309,-4.7309,-4.7623,-4.8283,-4.8581,-4.9163,-5.0105,-5.0475,-5.0855,-5.1214,-5.1214,-5.1214,-5.1214,-5.1214,-5.1214,-5.1214,-5.1214,-5.1214,-5.1214,-5.1214,-5.1214,-5.1214,-5.1214,-5.1214,-5.1214,-5.1214,-5.1214,-5.1214,-5.1214,-5.1214,-5.1214,-5.1214,-5.1214,-5.1319,-4.8339,-4.8049,-4.8001,-4.8001,-4.8001,-4.8001,-4.8001,-4.8001,-4.8001,-4.8001,-4.8001,-4.8001,-4.8001,-4.8564,-4.9243,-4.9988,-5.0701,-5.1462,-5.2324,-5.2373,-5.2373,-5.2373,-5.2373,-5.2373,-5.2373,-5.2302,-5.1492,-4.9978,-4.9035,-4.8256,-4.7452,-4.7381,-4.7309,-4.7309,-4.7309,-4.7309,-4.7309,-4.7309,-4.7309,-4.7309,-4.7309,-4.7309,-4.7309,-4.7309,-4.7309,-4.7309,-4.7309,-4.7309,-4.7309,-4.7309,-4.7309,-4.7309,-4.7309,-4.7309,-4.7309,-4.7309,-4.7309,-4.7309,-4.7309,-4.7309,-4.7309,-4.7309,-4.7309,-4.7309,-4.7309,-4.7309,-4.7309,-4.7309,-4.7309,-4.7309,-4.7309,-4.7309,-4.7309,-4.7309,-4.7309,-4.7309,-4.7309,-4.7309,-4.7309,-4.7309,-4.7309,-4.7309,-4.7309,-4.7399,-4.7743,-4.8372,-4.9075,-4.9702,-5.0303,-5.0847,-5.1214,-5.1214,-5.1214,-5.1214,-5.1214,-5.1214,-5.1214,-5.1214,-5.1214,-5.1214,-5.1214,-5.1214,-5.1214,-5.1214,-5.1214,-5.1214,-5.1214,-5.1214,-5.1214,-5.1214,-5.1214,-5.1214,-5.1214,-5.1214,-5.1274,-5.1468,-4.89,-4.8339,-4.8001,-4.8001,-4.8001,-4.8001,-4.8001,-4.8001,-4.8001,-4.8001,-4.8001,-4.8001,-4.8001,-4.81,-4.8481,-4.9226,-4.9955,-5.0949,-5.2291,-5.2373,-5.2373,-5.2373,-5.2373,-5.2373,-5.2373,-5.1672,-5.1194,-5.0876,-4.9358,-4.8573,-4.8407,-4.7609,-4.7309,-4.7309,-4.7309,-4.7309,-4.7309,-4.7309,-4.7309,-4.7309,-4.7309,-4.7309,-4.7309,-4.7309,-4.7309,-4.7309,-4.7309,-4.7309,-4.7309,-4.7309,-4.7309,-4.7309,-4.7309,-4.7309,-4.7309,-4.7309,-4.7309,-4.7309,-4.7309,-4.7309,-4.7309,-4.7309,-4.7309,-4.7309,-4.7309,-4.7309,-4.7309,-4.7309,-4.7309,-4.7309,-4.7309,-4.7309,-4.7309,-4.7309,-4.7309,-4.7309,-4.7309,-4.7309,-4.7309,-4.7309,-4.7309,-4.7309,-4.7309,-4.7803,-4.8445,-4.9074,-4.9734,-5.0391,-5.1001,-5.1184,-5.1214,-5.1214,-5.1214,-5.1214,-5.1214,-5.1214,-5.1214,-5.1214,-5.1214,-5.1214,-5.1214,-5.1214,-5.1214,-5.1214,-5.1214,-5.1214,-5.1214,-5.1214,-5.1214,-5.1214,-5.1214,-5.1214,-5.1214,-5.1214,-5.1573,-5.2142,-4.8623,-4.8163,-4.8001,-4.8001,-4.8001,-4.8001,-4.8001,-4.8001,-4.8001,-4.8001,-4.8001,-4.8001,-4.8001,-4.8001,-4.8299,-4.9044,-4.979,-5.0667,-5.1711,-5.2158,-5.2373,-5.2373,-5.2373,-5.2373,-5.2373,-5.1508,-5.0876,-5.0384,-4.9197,-4.8324,-4.7849,-4.7467,-4.7309,-4.7309,-4.7309,-4.7309,-4.7309,-4.7309,-4.7309,-4.7309,-4.7309,-4.7309,-4.7309,-4.7309,-4.7309,-4.7309,-4.7309,-4.7309,-4.7309,-4.7309,-4.7309,-4.7309,-4.7309,-4.7309,-4.7309,-4.7309,-4.7309,-4.7309,-4.7309,-4.7309,-4.7309,-4.7309,-4.7309,-4.7309,-4.7309,-4.7309,-4.7309,-4.7309,-4.7309,-4.7309,-4.7309,-4.7309,-4.7309,-4.7309,-4.7309,-4.7309,-4.7309,-4.7309,-4.7309,-4.7309,-4.7309,-4.7309,-4.7309,-4.7908,-4.8625,-4.9284,-4.9823,-5.0526,-5.1184,-5.1214,-5.1214,-5.1214,-5.1214,-5.1214,-5.1214,-5.1214,-5.1214,-5.1214,-5.1214,-5.1214,-5.1214,-5.1214,-5.1214,-5.1214,-5.1214,-5.1214,-5.1214,-5.1214,-5.1214,-5.1214,-5.1214,-5.1214,-5.1259,-5.1618,-5.1932,-5.2351,-4.8386,-4.8115,-4.8001,-4.8001,-4.8001,-4.8001,-4.8001,-4.8001,-4.8001,-4.8001,-4.8001,-4.8001,-4.8001,-4.8001,-4.8233,-4.8796,-4.969,-5.0452,-5.0999,-5.1877,-5.2373,-5.2373,-5.2373,-5.2373,-5.2373,-5.1508,-5.0783,-5.0135,-4.9116,-4.8256,-4.7624,-4.7381,-4.7309,-4.7309,-4.7309,-4.7309,-4.7309,-4.7309,-4.7309,-4.7309,-4.7309,-4.7309,-4.7309,-4.7309,-4.7309,-4.7309,-4.7309,-4.7309,-4.7309,-4.7309,-4.7309,-4.7309,-4.7309,-4.7309,-4.7309,-4.7309,-4.7309,-4.7309,-4.7309,-4.7309,-4.7309,-4.7309,-4.7309,-4.7309,-4.7309,-4.7309,-4.7309,-4.7309,-4.7309,-4.7309,-4.7309,-4.7309,-4.7309,-4.7309,-4.7309,-4.7309,-4.7309,-4.7309,-4.7309,-4.7309,-4.7309,-4.7369,-4.7519,-4.8132,-4.8775,-4.9494,-5.0077,-5.069,-5.1184,-5.1214,-5.1214,-5.1214,-5.1214,-5.1214,-5.1214,-5.1214,-5.1214,-5.1214,-5.1214,-5.1214,-5.1214,-5.1214,-5.1214,-5.1214,-5.1214,-5.1214,-5.1214,-5.1214,-5.1214,-5.1214,-5.1214,-5.1214,-5.1289,-5.1947,-5.2291,-5.2591,-4.8944,-4.8386,-4.8001,-4.8001,-4.8001,-4.8001,-4.8001,-4.8001,-4.8001,-4.8001,-4.8001,-4.8001,-4.8001,-4.8001,-4.8017,-4.8084,-4.9392,-5.0237,-5.0286,-5.1595,-5.2373,-5.2373,-5.2373,-5.2373,-5.2373,-5.1508,-5.1043,-5.1027,-4.9358,-4.8573,-4.849,-4.7709,-4.7309,-4.7309,-4.7309,-4.7309,-4.7309,-4.7309,-4.7309,-4.7309,-4.7309,-4.7309,-4.7309,-4.7309,-4.7309,-4.7309,-4.7309,-4.7309,-4.7309,-4.7309,-4.7309,-4.7309,-4.7309,-4.7309,-4.7309,-4.7309,-4.7309,-4.7309,-4.7309,-4.7309,-4.7309,-4.7309,-4.7309,-4.7309,-4.7309,-4.7309,-4.7309,-4.7309,-4.7309,-4.7309,-4.7309,-4.7309,-4.7309,-4.7309,-4.7309,-4.7309,-4.7309,-4.7309,-4.7309,-4.7309,-4.7309,-4.7549,-4.8162,-4.8805,-4.9524,-5.0079,-5.072,-5.1169,-5.1214,-5.1214,-5.1214,-5.1214,-5.1214,-5.1214,-5.1214,-5.1214,-5.1214,-5.1214,-5.1214,-5.1214,-5.1214,-5.1214,-5.1214,-5.1214,-5.1214,-5.1214,-5.1214,-5.1214,-5.1214,-5.1214,-5.1214,-5.1214,-5.1289,-5.1947,-5.2576,-5.3219,-4.8497,-4.8179,-4.8001,-4.8001,-4.8001,-4.8001,-4.8001,-4.8001,-4.8001,-4.8001,-4.8001,-4.8001,-4.8001,-4.8001,-4.8001,-4.8001,-4.8945,-4.9723,-5.0187,-5.1148,-5.1893,-5.2357,-5.2373,-5.2142,-5.1598,-5.0707,-5.0073,-4.9519,-4.8339,-4.7779,-4.7779,-4.7467,-4.7309,-4.7309,-4.7309,-4.7309,-4.7309,-4.7309,-4.7309,-4.7309,-4.7309,-4.7309,-4.7309,-4.7309,-4.7309,-4.7309,-4.7309,-4.7309,-4.7309,-4.7309,-4.7309,-4.7309,-4.7309,-4.7309,-4.7309,-4.7309,-4.7309,-4.7309,-4.7309,-4.7309,-4.7309,-4.7309,-4.7309,-4.7309,-4.7309,-4.7309,-4.7309,-4.7309,-4.7309,-4.7309,-4.7309,-4.7309,-4.7309,-4.7309,-4.7309,-4.7309,-4.7309,-4.7309,-4.7309,-4.7309,-4.7309,-4.7563,-4.8222,-4.888,-4.9523,-5.0137,-5.0825,-5.1214,-5.1214,-5.1214,-5.1214,-5.1214,-5.1214,-5.1214,-5.1214,-5.1214,-5.1214,-5.1214,-5.1214,-5.1214,-5.1214,-5.1214,-5.1214,-5.1214,-5.1214,-5.1214,-5.1214,-5.1214,-5.1214,-5.1214,-5.1214,-5.1468,-5.1902,-5.2561,-5.3234,-5.3922,-4.845,-4.8115,-4.8001,-4.8001,-4.8001,-4.8001,-4.8001,-4.8001,-4.8001,-4.8001,-4.8001,-4.8001,-4.8001,-4.8001,-4.8001,-4.8001,-4.868,-4.9425,-5.0171,-5.1098,-5.1843,-5.2357,-5.2373,-5.198,-5.1118,-5.0229,-4.9423,-4.8573,-4.7694,-4.7309,-4.7309,-4.7309,-4.7309,-4.7309,-4.7309,-4.7309,-4.7309,-4.7309,-4.7309,-4.7309,-4.7309,-4.7309,-4.7309,-4.7309,-4.7309,-4.7309,-4.7309,-4.7309,-4.7309,-4.7309,-4.7309,-4.7309,-4.7309,-4.7309,-4.7309,-4.7309,-4.7309,-4.7309,-4.7309,-4.7309,-4.7309,-4.7309,-4.7309,-4.7309,-4.7309,-4.7309,-4.7309,-4.7309,-4.7309,-4.7309,-4.7309,-4.7309,-4.7309,-4.7309,-4.7309,-4.7309,-4.7309,-4.7309,-4.7309,-4.7309,-4.7489,-4.7878,-4.8536,-4.9194,-4.9838,-5.0496,-5.096,-5.1214,-5.1214,-5.1214,-5.1214,-5.1214,-5.1214,-5.1214,-5.1214,-5.1214,-5.1214,-5.1214,-5.1214,-5.1214,-5.1214,-5.1214,-5.1214,-5.1214,-5.1214,-5.1214,-5.1214,-5.1214,-5.1214,-5.1214,-5.1214,-5.1618,-5.2276,-5.2935,-5.3608,-5.4311,-4.8883,-4.8386,-4.8001,-4.8001,-4.8001,-4.8001,-4.8001,-4.8001,-4.8001,-4.8001,-4.8001,-4.8001,-4.8001,-4.8001,-4.8001,-4.8001,-4.868,-4.9425,-5.0171,-5.1578,-5.2373,-5.2373,-5.239,-5.198,-5.1118,-5.0213,-4.9423,-4.8558,-4.7694,-4.7309,-4.7309,-4.7309,-4.7309,-4.7309,-4.7309,-4.7309,-4.7309,-4.7309,-4.7309,-4.7309,-4.7309,-4.7309,-4.7309,-4.7309,-4.7309,-4.7309,-4.7309,-4.7309,-4.7309,-4.7309,-4.7309,-4.7309,-4.7309,-4.7309,-4.7309,-4.7309,-4.7309,-4.7309,-4.7309,-4.7309,-4.7309,-4.7309,-4.7309,-4.7309,-4.7309,-4.7309,-4.7309,-4.7309,-4.7309,-4.7309,-4.7309,-4.7309,-4.7309,-4.7309,-4.7309,-4.7309,-4.7309,-4.7309,-4.7309,-4.7309,-4.7878,-4.8536,-4.9194,-4.9868,-5.0511,-5.1169,-5.1214,-5.1214,-5.1214,-5.1214,-5.1214,-5.1214,-5.1214,-5.1214,-5.1214,-5.1214,-5.1214,-5.1214,-5.1214,-5.1214,-5.1214,-5.1214,-5.1214,-5.1214,-5.1214,-5.1214,-5.1214,-5.1214,-5.1214,-5.1214,-5.1229,-5.1633,-5.2291,-5.295,-5.3623,-5.4311,-4.8239,-4.8115,-4.8001,-4.8001,-4.8001,-4.8001,-4.8001,-4.8001,-4.8001,-4.8001,-4.8001,-4.8001,-4.8001,-4.8001,-4.8001,-4.8001,-4.8199,-4.8862,-5.0137,-5.1098,-5.1597,-5.1492,-5.2053,-5.1729,-5.0213,-4.99,-4.9101,-4.7694,-4.7467,-4.7309,-4.7309,-4.7309,-4.7309,-4.7309,-4.7309,-4.7309,-4.7309,-4.7309,-4.7309,-4.7309,-4.7309,-4.7309,-4.7309,-4.7309,-4.7309,-4.7309,-4.7309,-4.7309,-4.7309,-4.7309,-4.7309,-4.7309,-4.7309,-4.7309,-4.7309,-4.7309,-4.7309,-4.7309,-4.7309,-4.7309,-4.7309,-4.7309,-4.7309,-4.7309,-4.7309,-4.7309,-4.7309,-4.7309,-4.7309,-4.7309,-4.7309,-4.7309,-4.7309,-4.7309,-4.7309,-4.7309,-4.7309,-4.7309,-4.7309,-4.7309,-4.7878,-4.8536,-4.9194,-4.9868,-5.0511,-5.1169,-5.1214,-5.1214,-5.1214,-5.1214,-5.1214,-5.1214,-5.1214,-5.1214,-5.1214,-5.1214,-5.1214,-5.1214,-5.1214,-5.1214,-5.1214,-5.1214,-5.1214,-5.1214,-5.1214,-5.1214,-5.1214,-5.1214,-5.1214,-5.1274,-5.1723,-5.2306,-5.2965,-5.3653,-5.4326,-5.4925,-4.7885,-4.7963,-4.8001,-4.8001,-4.8001,-4.8001,-4.8001,-4.8001,-4.8001,-4.8001,-4.8001,-4.8001,-4.8001,-4.8001,-4.8001,-4.8001,-4.8531,-4.926,-5.0154,-5.1148,-5.152,-5.1102,-5.1582,-5.1102,-4.9343,-4.9662,-4.8953,-4.7309,-4.7309,-4.7309,-4.7309,-4.7309,-4.7309,-4.7309,-4.7309,-4.7309,-4.7309,-4.7309,-4.7309,-4.7309,-4.7309,-4.7309,-4.7309,-4.7309,-4.7309,-4.7309,-4.7309,-4.7309,-4.7309,-4.7309,-4.7309,-4.7309,-4.7309,-4.7309,-4.7309,-4.7309,-4.7309,-4.7309,-4.7309,-4.7309,-4.7309,-4.7309,-4.7309,-4.7309,-4.7309,-4.7309,-4.7309,-4.7309,-4.7309,-4.7309,-4.7309,-4.7309,-4.7309,-4.7309,-4.7309,-4.7309,-4.7309,-4.7309,-4.7399,-4.7653,-4.8282,-4.894,-4.9583,-5.0242,-5.0795,-5.1184,-5.1214,-5.1214,-5.1214,-5.1214,-5.1214,-5.1214,-5.1214,-5.1214,-5.1214,-5.1214,-5.1214,-5.1214,-5.1214,-5.1214,-5.1214,-5.1214,-5.1214,-5.1214,-5.1214,-5.1214,-5.1214,-5.1214,-5.1214,-5.1289,-5.1947,-5.2606,-5.3264,-5.3952,-5.4625,-5.5194,-4.7619,-4.7851,-4.7918,-4.7984,-4.8001,-4.8001,-4.8001,-4.8001,-4.8001,-4.8001,-4.8001,-4.8001,-4.8001,-4.8001,-4.8001,-4.8001,-4.9293,-5.0171,-5.0303,-5.1475,-5.1842,-5.1027,-5.0951,-5.0245,-4.849,-4.9262,-4.8872,-4.7309,-4.7309,-4.7309,-4.7309,-4.7309,-4.7309,-4.7309,-4.7309,-4.7309,-4.7309,-4.7309,-4.7309,-4.7309,-4.7309,-4.7309,-4.7309,-4.7309,-4.7309,-4.7309,-4.7309,-4.7309,-4.7309,-4.7309,-4.7309,-4.7309,-4.7309,-4.7309,-4.7309,-4.7309,-4.7309,-4.7309,-4.7309,-4.7309,-4.7309,-4.7309,-4.7309,-4.7309,-4.7309,-4.7309,-4.7309,-4.7309,-4.7309,-4.7309,-4.7309,-4.7309,-4.7309,-4.7309,-4.7309,-4.7309,-4.7309,-4.7309,-4.7549,-4.8207,-4.8865,-4.9523,-5.0167,-5.084,-5.1214,-5.1214,-5.1214,-5.1214,-5.1214,-5.1214,-5.1214,-5.1214,-5.1214,-5.1214,-5.1214,-5.1214,-5.1214,-5.1214,-5.1214,-5.1214,-5.1214,-5.1214,-5.1214,-5.1214,-5.1214,-5.1214,-5.1214,-5.1214,-5.1214,-5.1289,-5.2007,-5.265,-5.3279,-5.4027,-5.4685,-5.5194,-4.6832,-4.7135,-4.7322,-4.7901,-4.8001,-4.8001,-4.8001,-4.8001,-4.8001,-4.8001,-4.8001,-4.8001,-4.8001,-4.8001,-4.8001,-4.8001,-4.8829,-4.9839,-5.0982,-5.0713,-5.0354,-5.0103,-5.0057,-4.9278,-4.7624,-4.8407,-4.8324,-4.7309,-4.7309,-4.7309,-4.7309,-4.7309,-4.7309,-4.7309,-4.7309,-4.7309,-4.7309,-4.7309,-4.7309,-4.7309,-4.7309,-4.7309,-4.7309,-4.7309,-4.7309,-4.7309,-4.7309,-4.7309,-4.7309,-4.7309,-4.7309,-4.7309,-4.7309,-4.7309,-4.7309,-4.7309,-4.7309,-4.7309,-4.7309,-4.7309,-4.7309,-4.7309,-4.7309,-4.7309,-4.7309,-4.7309,-4.7309,-4.7309,-4.7309,-4.7309,-4.7309,-4.7309,-4.7309,-4.7309,-4.7309,-4.7309,-4.7309,-4.7309,-4.7549,-4.8207,-4.8865,-4.9523,-5.0167,-5.084,-5.1214,-5.1214,-5.1214,-5.1214,-5.1214,-5.1214,-5.1214,-5.1214,-5.1214,-5.1214,-5.1214,-5.1214,-5.1214,-5.1214,-5.1214,-5.1214,-5.1214,-5.1214,-5.1214,-5.1214,-5.1214,-5.1214,-5.1214,-5.1214,-5.1214,-5.1334,-5.2516,-5.3054,-5.3324,-5.4536,-5.5074,-5.5194,-4.5698,-4.6411,-4.7023,-4.7404,-4.7769,-4.8001,-4.8001,-4.8001,-4.8001,-4.8001,-4.8001,-4.8001,-4.8001,-4.8001,-4.815,-4.8498,-4.9135,-4.9861,-5.0615,-5.0193,-4.9676,-4.9247,-4.9262,-4.8641,-4.7309,-4.7779,-4.7779,-4.7309,-4.7309,-4.7309,-4.7309,-4.7309,-4.7309,-4.7309,-4.7309,-4.7309,-4.7309,-4.7309,-4.7309,-4.7309,-4.7309,-4.7309,-4.7309,-4.7309,-4.7309,-4.7309,-4.7309,-4.7309,-4.7309,-4.7309,-4.7309,-4.7309,-4.7309,-4.7309,-4.7309,-4.7309,-4.7309,-4.7309,-4.7309,-4.7309,-4.7309,-4.7309,-4.7309,-4.7309,-4.7309,-4.7309,-4.7309,-4.7309,-4.7309,-4.7309,-4.7309,-4.7309,-4.7309,-4.7309,-4.7309,-4.7309,-4.7309,-4.7309,-4.7668,-4.8641,-4.8775,-4.906,-4.9718,-5.0092,-5.0287,-5.0287,-5.0287,-5.0287,-5.0287,-5.0586,-5.075,-5.075,-5.105,-5.1214,-5.1214,-5.1214,-5.1214,-5.1214,-5.1214,-5.1214,-5.1214,-5.1214,-5.1214,-5.1214,-5.1214,-5.1214,-5.1214,-5.1214,-5.1409,-5.1783,-5.2785,-5.3384,-5.3788,-5.482,-5.5194,-5.5194,-4.4671,-4.5781,-4.6742,-4.6874,-4.7504,-4.8001,-4.8001,-4.8001,-4.8001,-4.8001,-4.8001,-4.8001,-4.8001,-4.8117,-4.8481,-4.9226,-4.9736,-5.0082,-5.0212,-4.9817,-4.9262,-4.8641,-4.849,-4.8019,-4.7309,-4.7309,-4.7309,-4.7309,-4.7309,-4.7309,-4.7309,-4.7309,-4.7309,-4.7309,-4.7309,-4.7309,-4.7309,-4.7309,-4.7309,-4.7309,-4.7309,-4.7309,-4.7309,-4.7309,-4.7309,-4.7309,-4.7309,-4.7309,-4.7309,-4.7309,-4.7309,-4.7309,-4.7309,-4.7309,-4.7309,-4.7309,-4.7309,-4.7309,-4.7309,-4.7309,-4.7309,-4.7309,-4.7309,-4.7309,-4.7309,-4.7309,-4.7309,-4.7309,-4.7309,-4.7309,-4.7309,-4.7309,-4.7309,-4.7309,-4.7309,-4.7309,-4.7309,-4.7309,-4.7758,-4.8955,-4.8716,-4.8671,-4.9224,-4.9269,-4.9269,-4.9269,-4.9269,-4.9269,-4.9269,-4.9778,-5.0122,-5.0242,-5.0765,-5.1109,-5.1214,-5.1214,-5.1214,-5.1214,-5.1214,-5.1214,-5.1214,-5.1214,-5.1214,-5.1214,-5.1214,-5.1214,-5.1214,-5.1214,-5.1618,-5.2261,-5.292,-5.3608,-5.4281,-5.494,-5.5194,-5.5194,-4.4556,-4.5367,-4.6146,-4.6792,-4.7504,-4.8001,-4.8001,-4.8001,-4.8001,-4.8001,-4.8001,-4.8001,-4.8001,-4.858,-4.926,-5.0005,-5.003,-5.0293,-5.0924,-4.9551,-4.8723,-4.8558,-4.7864,-4.7381,-4.7309,-4.7309,-4.7309,-4.7309,-4.7309,-4.7309,-4.7309,-4.7309,-4.7309,-4.7309,-4.7309,-4.7309,-4.7309,-4.7309,-4.7309,-4.7309,-4.7309,-4.7309,-4.7309,-4.7309,-4.7309,-4.7309,-4.7309,-4.7309,-4.7309,-4.7309,-4.7309,-4.7309,-4.7309,-4.7309,-4.7309,-4.7309,-4.7309,-4.7309,-4.7309,-4.7309,-4.7309,-4.7309,-4.7309,-4.7309,-4.7309,-4.7309,-4.7309,-4.7309,-4.7309,-4.7309,-4.7309,-4.7309,-4.7309,-4.7309,-4.7309,-4.7309,-4.7309,-4.7309,-4.7578,-4.8327,-4.8835,-4.9164,-4.9254,-4.9269,-4.9269,-4.9269,-4.9269,-4.9269,-4.9269,-4.9359,-4.9658,-5.0212,-5.0331,-5.0646,-5.1214,-5.1214,-5.1214,-5.1214,-5.1214,-5.1214,-5.1214,-5.1214,-5.1214,-5.1214,-5.1214,-5.1214,-5.1214,-5.1214,-5.1618,-5.2261,-5.292,-5.3608,-5.4281,-5.494,-5.5194,-5.5194,-4.4026,-4.4671,-4.5417,-4.6146,-4.6891,-4.752,-4.7934,-4.8001,-4.8001,-4.8001,-4.8001,-4.8001,-4.8001,-4.9028,-4.9856,-5.0187,-4.9985,-5.0048,-5.0352,-4.8805,-4.7849,-4.7849,-4.7553,-4.7309,-4.7309,-4.7309,-4.7309,-4.7309,-4.7309,-4.7309,-4.7309,-4.7309,-4.7309,-4.7309,-4.7309,-4.7309,-4.7309,-4.7309,-4.7309,-4.7309,-4.7309,-4.7309,-4.7309,-4.7309,-4.7309,-4.7309,-4.7309,-4.7309,-4.7309,-4.7309,-4.7309,-4.7309,-4.7309,-4.7309,-4.7309,-4.7309,-4.7309,-4.7309,-4.7309,-4.7309,-4.7309,-4.7309,-4.7309,-4.7309,-4.7309,-4.7309,-4.7309,-4.7309,-4.7309,-4.7309,-4.7309,-4.7309,-4.7309,-4.7309,-4.7309,-4.7309,-4.7309,-4.7309,-4.7414,-4.7698,-4.8312,-4.8581,-4.8207,-4.8177,-4.8177,-4.8177,-4.8177,-4.8177,-4.8177,-4.8521,-4.885,-4.9134,-4.9853,-5.0376,-5.0676,-5.1035,-5.1214,-5.1214,-5.1214,-5.1214,-5.1214,-5.1214,-5.1214,-5.1214,-5.1214,-5.1214,-5.1214,-5.1214,-5.1828,-5.277,-5.3069,-5.3832,-5.479,-5.5089,-5.5194,-5.5194]}]]